<?xml version="1.0" encoding="UTF-8" standalone="no" ?>
<gpx xmlns="http://www.topografix.com/GPX/1/1" xmlns:xsi="http://www.w3.org/2001/XMLSchema-instance" xsi:schemaLocation="http://www.topografix.com/GPX/1/1 http://www.topografix.com/GPX/1/1/gpx.xsd" version="1.1" creator="VisuGPX - https://www.visugpx.com">
  <metadata>
    <name>2019-05-24 14:19:44</name>
    <desc><![CDATA[

]]></desc>
  </metadata>
  <trk>
    <name><![CDATA[2019-05-24 14:19:44]]></name>
    <trkseg>
      <trkpt lat="40.58182" lon="-8.45181">
        <ele>57.34</ele>
        <time>2019-05-24T06:54:55Z</time>
      </trkpt>
      <trkpt lat="40.58183" lon="-8.45191">
        <ele>57.82</ele>
        <time>2019-05-24T06:55:17Z</time>
      </trkpt>
      <trkpt lat="40.58194" lon="-8.45131">
        <ele>57.82</ele>
        <time>2019-05-24T06:55:36Z</time>
      </trkpt>
      <trkpt lat="40.582" lon="-8.45119">
        <ele>57.34</ele>
        <time>2019-05-24T06:55:51Z</time>
      </trkpt>
      <trkpt lat="40.582" lon="-8.45112">
        <ele>60.7</ele>
        <time>2019-05-24T06:56:06Z</time>
      </trkpt>
      <trkpt lat="40.582" lon="-8.45111">
        <ele>61.18</ele>
        <time>2019-05-24T06:56:07Z</time>
      </trkpt>
      <trkpt lat="40.58197" lon="-8.45109">
        <ele>61.18</ele>
        <time>2019-05-24T06:56:13Z</time>
      </trkpt>
      <trkpt lat="40.58187" lon="-8.45109">
        <ele>61.18</ele>
        <time>2019-05-24T06:56:27Z</time>
      </trkpt>
      <trkpt lat="40.58185" lon="-8.45101">
        <ele>63.58</ele>
        <time>2019-05-24T06:56:40Z</time>
      </trkpt>
      <trkpt lat="40.58185" lon="-8.45093">
        <ele>64.55</ele>
        <time>2019-05-24T06:56:54Z</time>
      </trkpt>
      <trkpt lat="40.5819" lon="-8.45089">
        <ele>63.1</ele>
        <time>2019-05-24T06:57:15Z</time>
      </trkpt>
      <trkpt lat="40.58199" lon="-8.45087">
        <ele>60.22</ele>
        <time>2019-05-24T06:57:32Z</time>
      </trkpt>
      <trkpt lat="40.5821" lon="-8.45084">
        <ele>61.66</ele>
        <time>2019-05-24T06:57:45Z</time>
      </trkpt>
      <trkpt lat="40.58224" lon="-8.45079">
        <ele>61.66</ele>
        <time>2019-05-24T06:57:59Z</time>
      </trkpt>
      <trkpt lat="40.58242" lon="-8.45073">
        <ele>61.66</ele>
        <time>2019-05-24T06:58:15Z</time>
      </trkpt>
      <trkpt lat="40.5825" lon="-8.45068">
        <ele>62.14</ele>
        <time>2019-05-24T06:58:29Z</time>
      </trkpt>
      <trkpt lat="40.5825" lon="-8.45066">
        <ele>62.14</ele>
        <time>2019-05-24T06:58:51Z</time>
      </trkpt>
      <trkpt lat="40.5826" lon="-8.45064">
        <ele>62.14</ele>
        <time>2019-05-24T06:59:05Z</time>
      </trkpt>
      <trkpt lat="40.58272" lon="-8.45056">
        <ele>62.62</ele>
        <time>2019-05-24T06:59:20Z</time>
      </trkpt>
      <trkpt lat="40.58285" lon="-8.45048">
        <ele>62.14</ele>
        <time>2019-05-24T06:59:34Z</time>
      </trkpt>
      <trkpt lat="40.58298" lon="-8.45039">
        <ele>62.62</ele>
        <time>2019-05-24T06:59:49Z</time>
      </trkpt>
      <trkpt lat="40.58311" lon="-8.4503">
        <ele>63.1</ele>
        <time>2019-05-24T07:00:04Z</time>
      </trkpt>
      <trkpt lat="40.5832" lon="-8.45021">
        <ele>63.1</ele>
        <time>2019-05-24T07:00:16Z</time>
      </trkpt>
      <trkpt lat="40.58332" lon="-8.45012">
        <ele>63.1</ele>
        <time>2019-05-24T07:00:27Z</time>
      </trkpt>
      <trkpt lat="40.58349" lon="-8.45002">
        <ele>63.58</ele>
        <time>2019-05-24T07:00:42Z</time>
      </trkpt>
      <trkpt lat="40.58368" lon="-8.44991">
        <ele>64.07</ele>
        <time>2019-05-24T07:01:00Z</time>
      </trkpt>
      <trkpt lat="40.5838" lon="-8.44985">
        <ele>64.55</ele>
        <time>2019-05-24T07:01:10Z</time>
      </trkpt>
      <trkpt lat="40.58394" lon="-8.44974">
        <ele>64.55</ele>
        <time>2019-05-24T07:01:23Z</time>
      </trkpt>
      <trkpt lat="40.58407" lon="-8.44965">
        <ele>65.51</ele>
        <time>2019-05-24T07:01:36Z</time>
      </trkpt>
      <trkpt lat="40.58411" lon="-8.44954">
        <ele>65.51</ele>
        <time>2019-05-24T07:01:46Z</time>
      </trkpt>
      <trkpt lat="40.58445" lon="-8.44958">
        <ele>65.99</ele>
        <time>2019-05-24T07:01:59Z</time>
      </trkpt>
      <trkpt lat="40.58462" lon="-8.44953">
        <ele>65.51</ele>
        <time>2019-05-24T07:02:11Z</time>
      </trkpt>
      <trkpt lat="40.58476" lon="-8.44948">
        <ele>65.99</ele>
        <time>2019-05-24T07:02:24Z</time>
      </trkpt>
      <trkpt lat="40.58496" lon="-8.44942">
        <ele>66.47</ele>
        <time>2019-05-24T07:02:40Z</time>
      </trkpt>
      <trkpt lat="40.58516" lon="-8.44935">
        <ele>66.95</ele>
        <time>2019-05-24T07:02:56Z</time>
      </trkpt>
      <trkpt lat="40.58532" lon="-8.4493">
        <ele>66.95</ele>
        <time>2019-05-24T07:03:09Z</time>
      </trkpt>
      <trkpt lat="40.5855" lon="-8.44925">
        <ele>67.43</ele>
        <time>2019-05-24T07:03:24Z</time>
      </trkpt>
      <trkpt lat="40.58567" lon="-8.44924">
        <ele>68.39</ele>
        <time>2019-05-24T07:03:39Z</time>
      </trkpt>
      <trkpt lat="40.58584" lon="-8.44921">
        <ele>68.87</ele>
        <time>2019-05-24T07:03:53Z</time>
      </trkpt>
      <trkpt lat="40.58606" lon="-8.44921">
        <ele>68.87</ele>
        <time>2019-05-24T07:04:11Z</time>
      </trkpt>
      <trkpt lat="40.58628" lon="-8.44922">
        <ele>69.83</ele>
        <time>2019-05-24T07:04:30Z</time>
      </trkpt>
      <trkpt lat="40.58633" lon="-8.44921">
        <ele>69.83</ele>
        <time>2019-05-24T07:04:43Z</time>
      </trkpt>
      <trkpt lat="40.58639" lon="-8.44924">
        <ele>70.31</ele>
        <time>2019-05-24T07:04:58Z</time>
      </trkpt>
      <trkpt lat="40.5864" lon="-8.44925">
        <ele>67.43</ele>
        <time>2019-05-24T07:05:03Z</time>
      </trkpt>
      <trkpt lat="40.5864" lon="-8.44925">
        <ele>72.72</ele>
        <time>2019-05-24T07:05:04Z</time>
      </trkpt>
      <trkpt lat="40.58639" lon="-8.44925">
        <ele>69.83</ele>
        <time>2019-05-24T07:05:17Z</time>
      </trkpt>
      <trkpt lat="40.58639" lon="-8.44925">
        <ele>69.83</ele>
        <time>2019-05-24T07:05:32Z</time>
      </trkpt>
      <trkpt lat="40.58643" lon="-8.44926">
        <ele>69.83</ele>
        <time>2019-05-24T07:06:00Z</time>
      </trkpt>
      <trkpt lat="40.58643" lon="-8.44926">
        <ele>69.35</ele>
        <time>2019-05-24T07:06:22Z</time>
      </trkpt>
      <trkpt lat="40.58647" lon="-8.44926">
        <ele>69.83</ele>
        <time>2019-05-24T07:06:45Z</time>
      </trkpt>
      <trkpt lat="40.58647" lon="-8.44922">
        <ele>69.83</ele>
        <time>2019-05-24T07:06:58Z</time>
      </trkpt>
      <trkpt lat="40.58664" lon="-8.44925">
        <ele>70.31</ele>
        <time>2019-05-24T07:07:14Z</time>
      </trkpt>
      <trkpt lat="40.58682" lon="-8.44928">
        <ele>70.79</ele>
        <time>2019-05-24T07:07:29Z</time>
      </trkpt>
      <trkpt lat="40.58698" lon="-8.44933">
        <ele>71.76</ele>
        <time>2019-05-24T07:07:44Z</time>
      </trkpt>
      <trkpt lat="40.5872" lon="-8.44941">
        <ele>71.76</ele>
        <time>2019-05-24T07:08:03Z</time>
      </trkpt>
      <trkpt lat="40.58725" lon="-8.44941">
        <ele>72.72</ele>
        <time>2019-05-24T07:08:13Z</time>
      </trkpt>
      <trkpt lat="40.58744" lon="-8.4495">
        <ele>72.72</ele>
        <time>2019-05-24T07:08:30Z</time>
      </trkpt>
      <trkpt lat="40.58761" lon="-8.44958">
        <ele>73.2</ele>
        <time>2019-05-24T07:08:46Z</time>
      </trkpt>
      <trkpt lat="40.5878" lon="-8.4497">
        <ele>73.2</ele>
        <time>2019-05-24T07:09:04Z</time>
      </trkpt>
      <trkpt lat="40.58795" lon="-8.44979">
        <ele>74.16</ele>
        <time>2019-05-24T07:09:18Z</time>
      </trkpt>
      <trkpt lat="40.58811" lon="-8.4499">
        <ele>74.64</ele>
        <time>2019-05-24T07:09:34Z</time>
      </trkpt>
      <trkpt lat="40.58827" lon="-8.45005">
        <ele>75.12</ele>
        <time>2019-05-24T07:09:51Z</time>
      </trkpt>
      <trkpt lat="40.58843" lon="-8.45019">
        <ele>75.12</ele>
        <time>2019-05-24T07:10:06Z</time>
      </trkpt>
      <trkpt lat="40.5886" lon="-8.45035">
        <ele>76.08</ele>
        <time>2019-05-24T07:10:23Z</time>
      </trkpt>
      <trkpt lat="40.58872" lon="-8.45048">
        <ele>76.08</ele>
        <time>2019-05-24T07:10:38Z</time>
      </trkpt>
      <trkpt lat="40.58872" lon="-8.45047">
        <ele>77.04</ele>
        <time>2019-05-24T07:10:40Z</time>
      </trkpt>
      <trkpt lat="40.58873" lon="-8.45048">
        <ele>77.04</ele>
        <time>2019-05-24T07:10:54Z</time>
      </trkpt>
      <trkpt lat="40.58874" lon="-8.45048">
        <ele>76.56</ele>
        <time>2019-05-24T07:11:09Z</time>
      </trkpt>
      <trkpt lat="40.58876" lon="-8.45052">
        <ele>76.56</ele>
        <time>2019-05-24T07:11:13Z</time>
      </trkpt>
      <trkpt lat="40.5889" lon="-8.45069">
        <ele>77.52</ele>
        <time>2019-05-24T07:11:30Z</time>
      </trkpt>
      <trkpt lat="40.58902" lon="-8.45084">
        <ele>78</ele>
        <time>2019-05-24T07:11:45Z</time>
      </trkpt>
      <trkpt lat="40.58905" lon="-8.45087">
        <ele>78</ele>
        <time>2019-05-24T07:11:49Z</time>
      </trkpt>
      <trkpt lat="40.58919" lon="-8.45105">
        <ele>77.52</ele>
        <time>2019-05-24T07:12:06Z</time>
      </trkpt>
      <trkpt lat="40.5893" lon="-8.45119">
        <ele>78</ele>
        <time>2019-05-24T07:12:19Z</time>
      </trkpt>
      <trkpt lat="40.58943" lon="-8.45133">
        <ele>77.52</ele>
        <time>2019-05-24T07:12:33Z</time>
      </trkpt>
      <trkpt lat="40.58952" lon="-8.45143">
        <ele>78</ele>
        <time>2019-05-24T07:12:45Z</time>
      </trkpt>
      <trkpt lat="40.58964" lon="-8.45159">
        <ele>78</ele>
        <time>2019-05-24T07:12:59Z</time>
      </trkpt>
      <trkpt lat="40.58977" lon="-8.45176">
        <ele>78.97</ele>
        <time>2019-05-24T07:13:15Z</time>
      </trkpt>
      <trkpt lat="40.58978" lon="-8.45182">
        <ele>78.48</ele>
        <time>2019-05-24T07:13:25Z</time>
      </trkpt>
      <trkpt lat="40.5898" lon="-8.45185">
        <ele>78.48</ele>
        <time>2019-05-24T07:13:37Z</time>
      </trkpt>
      <trkpt lat="40.58989" lon="-8.45196">
        <ele>78.48</ele>
        <time>2019-05-24T07:13:50Z</time>
      </trkpt>
      <trkpt lat="40.59002" lon="-8.45212">
        <ele>78.97</ele>
        <time>2019-05-24T07:14:05Z</time>
      </trkpt>
      <trkpt lat="40.59013" lon="-8.45229">
        <ele>78.48</ele>
        <time>2019-05-24T07:14:19Z</time>
      </trkpt>
      <trkpt lat="40.59029" lon="-8.45246">
        <ele>78.97</ele>
        <time>2019-05-24T07:14:36Z</time>
      </trkpt>
      <trkpt lat="40.59041" lon="-8.4526">
        <ele>78.97</ele>
        <time>2019-05-24T07:14:49Z</time>
      </trkpt>
      <trkpt lat="40.59052" lon="-8.45274">
        <ele>78.97</ele>
        <time>2019-05-24T07:15:02Z</time>
      </trkpt>
      <trkpt lat="40.59066" lon="-8.4529">
        <ele>78.97</ele>
        <time>2019-05-24T07:15:18Z</time>
      </trkpt>
      <trkpt lat="40.59074" lon="-8.45304">
        <ele>79.93</ele>
        <time>2019-05-24T07:15:34Z</time>
      </trkpt>
      <trkpt lat="40.59074" lon="-8.45305">
        <ele>78.97</ele>
        <time>2019-05-24T07:15:37Z</time>
      </trkpt>
      <trkpt lat="40.59075" lon="-8.45319">
        <ele>79.45</ele>
        <time>2019-05-24T07:15:46Z</time>
      </trkpt>
      <trkpt lat="40.59075" lon="-8.45328">
        <ele>79.93</ele>
        <time>2019-05-24T07:16:02Z</time>
      </trkpt>
      <trkpt lat="40.59075" lon="-8.45329">
        <ele>79.45</ele>
        <time>2019-05-24T07:16:21Z</time>
      </trkpt>
      <trkpt lat="40.59076" lon="-8.4533">
        <ele>79.45</ele>
        <time>2019-05-24T07:16:45Z</time>
      </trkpt>
      <trkpt lat="40.59075" lon="-8.45333">
        <ele>79.93</ele>
        <time>2019-05-24T07:17:02Z</time>
      </trkpt>
      <trkpt lat="40.59075" lon="-8.45344">
        <ele>78.97</ele>
        <time>2019-05-24T07:17:19Z</time>
      </trkpt>
      <trkpt lat="40.59077" lon="-8.45346">
        <ele>79.45</ele>
        <time>2019-05-24T07:17:21Z</time>
      </trkpt>
      <trkpt lat="40.5908" lon="-8.45345">
        <ele>79.93</ele>
        <time>2019-05-24T07:17:25Z</time>
      </trkpt>
      <trkpt lat="40.59091" lon="-8.45332">
        <ele>79.93</ele>
        <time>2019-05-24T07:17:38Z</time>
      </trkpt>
      <trkpt lat="40.59096" lon="-8.45328">
        <ele>80.41</ele>
        <time>2019-05-24T07:17:44Z</time>
      </trkpt>
      <trkpt lat="40.59108" lon="-8.45339">
        <ele>80.41</ele>
        <time>2019-05-24T07:17:58Z</time>
      </trkpt>
      <trkpt lat="40.59117" lon="-8.45348">
        <ele>80.41</ele>
        <time>2019-05-24T07:18:11Z</time>
      </trkpt>
      <trkpt lat="40.59118" lon="-8.45349">
        <ele>79.93</ele>
        <time>2019-05-24T07:18:12Z</time>
      </trkpt>
      <trkpt lat="40.59128" lon="-8.45362">
        <ele>79.93</ele>
        <time>2019-05-24T07:18:27Z</time>
      </trkpt>
      <trkpt lat="40.59141" lon="-8.45377">
        <ele>80.89</ele>
        <time>2019-05-24T07:18:42Z</time>
      </trkpt>
      <trkpt lat="40.59152" lon="-8.45393">
        <ele>80.89</ele>
        <time>2019-05-24T07:18:55Z</time>
      </trkpt>
      <trkpt lat="40.59167" lon="-8.4541">
        <ele>80.41</ele>
        <time>2019-05-24T07:19:11Z</time>
      </trkpt>
      <trkpt lat="40.5918" lon="-8.45425">
        <ele>80.89</ele>
        <time>2019-05-24T07:19:25Z</time>
      </trkpt>
      <trkpt lat="40.59189" lon="-8.45436">
        <ele>81.37</ele>
        <time>2019-05-24T07:19:38Z</time>
      </trkpt>
      <trkpt lat="40.59199" lon="-8.45448">
        <ele>81.37</ele>
        <time>2019-05-24T07:19:52Z</time>
      </trkpt>
      <trkpt lat="40.5921" lon="-8.45461">
        <ele>81.37</ele>
        <time>2019-05-24T07:20:05Z</time>
      </trkpt>
      <trkpt lat="40.59224" lon="-8.45477">
        <ele>81.37</ele>
        <time>2019-05-24T07:20:20Z</time>
      </trkpt>
      <trkpt lat="40.59239" lon="-8.45496">
        <ele>82.33</ele>
        <time>2019-05-24T07:20:35Z</time>
      </trkpt>
      <trkpt lat="40.59252" lon="-8.4551">
        <ele>82.33</ele>
        <time>2019-05-24T07:20:49Z</time>
      </trkpt>
      <trkpt lat="40.5926" lon="-8.45517">
        <ele>82.81</ele>
        <time>2019-05-24T07:20:58Z</time>
      </trkpt>
      <trkpt lat="40.59276" lon="-8.45537">
        <ele>82.81</ele>
        <time>2019-05-24T07:21:13Z</time>
      </trkpt>
      <trkpt lat="40.59287" lon="-8.45549">
        <ele>83.77</ele>
        <time>2019-05-24T07:21:27Z</time>
      </trkpt>
      <trkpt lat="40.59294" lon="-8.45555">
        <ele>82.81</ele>
        <time>2019-05-24T07:21:45Z</time>
      </trkpt>
      <trkpt lat="40.5931" lon="-8.45573">
        <ele>83.29</ele>
        <time>2019-05-24T07:22:01Z</time>
      </trkpt>
      <trkpt lat="40.59324" lon="-8.45588">
        <ele>82.81</ele>
        <time>2019-05-24T07:22:15Z</time>
      </trkpt>
      <trkpt lat="40.59331" lon="-8.45591">
        <ele>83.77</ele>
        <time>2019-05-24T07:22:22Z</time>
      </trkpt>
      <trkpt lat="40.59337" lon="-8.45587">
        <ele>83.77</ele>
        <time>2019-05-24T07:22:27Z</time>
      </trkpt>
      <trkpt lat="40.59346" lon="-8.45588">
        <ele>82.81</ele>
        <time>2019-05-24T07:22:35Z</time>
      </trkpt>
      <trkpt lat="40.59354" lon="-8.45596">
        <ele>82.81</ele>
        <time>2019-05-24T07:22:43Z</time>
      </trkpt>
      <trkpt lat="40.59371" lon="-8.45612">
        <ele>83.29</ele>
        <time>2019-05-24T07:23:01Z</time>
      </trkpt>
      <trkpt lat="40.59389" lon="-8.45627">
        <ele>83.29</ele>
        <time>2019-05-24T07:23:19Z</time>
      </trkpt>
      <trkpt lat="40.59405" lon="-8.45641">
        <ele>83.77</ele>
        <time>2019-05-24T07:23:35Z</time>
      </trkpt>
      <trkpt lat="40.59424" lon="-8.45653">
        <ele>83.77</ele>
        <time>2019-05-24T07:23:52Z</time>
      </trkpt>
      <trkpt lat="40.59439" lon="-8.45663">
        <ele>83.29</ele>
        <time>2019-05-24T07:24:07Z</time>
      </trkpt>
      <trkpt lat="40.59459" lon="-8.45662">
        <ele>84.73</ele>
        <time>2019-05-24T07:24:24Z</time>
      </trkpt>
      <trkpt lat="40.59463" lon="-8.45658">
        <ele>84.25</ele>
        <time>2019-05-24T07:24:28Z</time>
      </trkpt>
      <trkpt lat="40.59471" lon="-8.45653">
        <ele>83.77</ele>
        <time>2019-05-24T07:24:37Z</time>
      </trkpt>
      <trkpt lat="40.59477" lon="-8.45659">
        <ele>83.77</ele>
        <time>2019-05-24T07:24:44Z</time>
      </trkpt>
      <trkpt lat="40.59478" lon="-8.45662">
        <ele>83.77</ele>
        <time>2019-05-24T07:24:46Z</time>
      </trkpt>
      <trkpt lat="40.59479" lon="-8.45665">
        <ele>84.25</ele>
        <time>2019-05-24T07:24:48Z</time>
      </trkpt>
      <trkpt lat="40.5948" lon="-8.45666">
        <ele>83.77</ele>
        <time>2019-05-24T07:24:50Z</time>
      </trkpt>
      <trkpt lat="40.59483" lon="-8.45669">
        <ele>83.77</ele>
        <time>2019-05-24T07:24:53Z</time>
      </trkpt>
      <trkpt lat="40.59488" lon="-8.45691">
        <ele>83.29</ele>
        <time>2019-05-24T07:25:08Z</time>
      </trkpt>
      <trkpt lat="40.59501" lon="-8.45712">
        <ele>84.25</ele>
        <time>2019-05-24T07:25:26Z</time>
      </trkpt>
      <trkpt lat="40.59504" lon="-8.45717">
        <ele>85.21</ele>
        <time>2019-05-24T07:25:39Z</time>
      </trkpt>
      <trkpt lat="40.59509" lon="-8.45723">
        <ele>84.25</ele>
        <time>2019-05-24T07:25:48Z</time>
      </trkpt>
      <trkpt lat="40.59525" lon="-8.45736">
        <ele>84.25</ele>
        <time>2019-05-24T07:26:04Z</time>
      </trkpt>
      <trkpt lat="40.59537" lon="-8.45745">
        <ele>84.73</ele>
        <time>2019-05-24T07:26:16Z</time>
      </trkpt>
      <trkpt lat="40.59553" lon="-8.45759">
        <ele>84.73</ele>
        <time>2019-05-24T07:26:31Z</time>
      </trkpt>
      <trkpt lat="40.59569" lon="-8.45772">
        <ele>84.73</ele>
        <time>2019-05-24T07:26:47Z</time>
      </trkpt>
      <trkpt lat="40.59571" lon="-8.45774">
        <ele>84.73</ele>
        <time>2019-05-24T07:26:49Z</time>
      </trkpt>
      <trkpt lat="40.59585" lon="-8.45783">
        <ele>84.73</ele>
        <time>2019-05-24T07:27:03Z</time>
      </trkpt>
      <trkpt lat="40.59599" lon="-8.45794">
        <ele>85.21</ele>
        <time>2019-05-24T07:27:18Z</time>
      </trkpt>
      <trkpt lat="40.59611" lon="-8.45802">
        <ele>84.73</ele>
        <time>2019-05-24T07:27:30Z</time>
      </trkpt>
      <trkpt lat="40.59627" lon="-8.45824">
        <ele>84.73</ele>
        <time>2019-05-24T07:27:47Z</time>
      </trkpt>
      <trkpt lat="40.59634" lon="-8.45829">
        <ele>84.73</ele>
        <time>2019-05-24T07:28:00Z</time>
      </trkpt>
      <trkpt lat="40.59644" lon="-8.4584">
        <ele>84.73</ele>
        <time>2019-05-24T07:28:14Z</time>
      </trkpt>
      <trkpt lat="40.59663" lon="-8.45856">
        <ele>84.73</ele>
        <time>2019-05-24T07:28:31Z</time>
      </trkpt>
      <trkpt lat="40.59681" lon="-8.45872">
        <ele>85.21</ele>
        <time>2019-05-24T07:28:48Z</time>
      </trkpt>
      <trkpt lat="40.59698" lon="-8.45884">
        <ele>84.73</ele>
        <time>2019-05-24T07:29:05Z</time>
      </trkpt>
      <trkpt lat="40.5971" lon="-8.45896">
        <ele>84.25</ele>
        <time>2019-05-24T07:29:19Z</time>
      </trkpt>
      <trkpt lat="40.59726" lon="-8.45909">
        <ele>84.73</ele>
        <time>2019-05-24T07:29:34Z</time>
      </trkpt>
      <trkpt lat="40.59744" lon="-8.45925">
        <ele>84.73</ele>
        <time>2019-05-24T07:29:51Z</time>
      </trkpt>
      <trkpt lat="40.59752" lon="-8.45931">
        <ele>84.73</ele>
        <time>2019-05-24T07:30:03Z</time>
      </trkpt>
      <trkpt lat="40.59768" lon="-8.45943">
        <ele>85.21</ele>
        <time>2019-05-24T07:30:18Z</time>
      </trkpt>
      <trkpt lat="40.59786" lon="-8.45959">
        <ele>85.21</ele>
        <time>2019-05-24T07:30:35Z</time>
      </trkpt>
      <trkpt lat="40.59803" lon="-8.45971">
        <ele>85.21</ele>
        <time>2019-05-24T07:30:51Z</time>
      </trkpt>
      <trkpt lat="40.59819" lon="-8.45985">
        <ele>84.73</ele>
        <time>2019-05-24T07:31:07Z</time>
      </trkpt>
      <trkpt lat="40.59837" lon="-8.46002">
        <ele>85.21</ele>
        <time>2019-05-24T07:31:25Z</time>
      </trkpt>
      <trkpt lat="40.59845" lon="-8.46008">
        <ele>84.25</ele>
        <time>2019-05-24T07:31:33Z</time>
      </trkpt>
      <trkpt lat="40.59862" lon="-8.46022">
        <ele>84.73</ele>
        <time>2019-05-24T07:31:50Z</time>
      </trkpt>
      <trkpt lat="40.59875" lon="-8.46032">
        <ele>84.73</ele>
        <time>2019-05-24T07:32:02Z</time>
      </trkpt>
      <trkpt lat="40.59893" lon="-8.46048">
        <ele>84.73</ele>
        <time>2019-05-24T07:32:20Z</time>
      </trkpt>
      <trkpt lat="40.59912" lon="-8.46062">
        <ele>85.21</ele>
        <time>2019-05-24T07:32:37Z</time>
      </trkpt>
      <trkpt lat="40.59928" lon="-8.46077">
        <ele>84.25</ele>
        <time>2019-05-24T07:32:53Z</time>
      </trkpt>
      <trkpt lat="40.59938" lon="-8.46085">
        <ele>84.25</ele>
        <time>2019-05-24T07:33:05Z</time>
      </trkpt>
      <trkpt lat="40.59955" lon="-8.46099">
        <ele>84.25</ele>
        <time>2019-05-24T07:33:20Z</time>
      </trkpt>
      <trkpt lat="40.5997" lon="-8.46112">
        <ele>83.77</ele>
        <time>2019-05-24T07:33:34Z</time>
      </trkpt>
      <trkpt lat="40.59982" lon="-8.46098">
        <ele>84.25</ele>
        <time>2019-05-24T07:33:49Z</time>
      </trkpt>
      <trkpt lat="40.59981" lon="-8.46092">
        <ele>84.25</ele>
        <time>2019-05-24T07:34:03Z</time>
      </trkpt>
      <trkpt lat="40.59982" lon="-8.46092">
        <ele>83.77</ele>
        <time>2019-05-24T07:34:07Z</time>
      </trkpt>
      <trkpt lat="40.59984" lon="-8.46092">
        <ele>83.77</ele>
        <time>2019-05-24T07:34:09Z</time>
      </trkpt>
      <trkpt lat="40.59995" lon="-8.46091">
        <ele>83.29</ele>
        <time>2019-05-24T07:34:18Z</time>
      </trkpt>
      <trkpt lat="40.6" lon="-8.46091">
        <ele>84.25</ele>
        <time>2019-05-24T07:34:31Z</time>
      </trkpt>
      <trkpt lat="40.60007" lon="-8.46092">
        <ele>83.77</ele>
        <time>2019-05-24T07:34:36Z</time>
      </trkpt>
      <trkpt lat="40.60012" lon="-8.46093">
        <ele>83.77</ele>
        <time>2019-05-24T07:34:41Z</time>
      </trkpt>
      <trkpt lat="40.60018" lon="-8.46096">
        <ele>83.77</ele>
        <time>2019-05-24T07:34:46Z</time>
      </trkpt>
      <trkpt lat="40.60035" lon="-8.461">
        <ele>82.81</ele>
        <time>2019-05-24T07:35:00Z</time>
      </trkpt>
      <trkpt lat="40.60044" lon="-8.46102">
        <ele>83.29</ele>
        <time>2019-05-24T07:35:11Z</time>
      </trkpt>
      <trkpt lat="40.60055" lon="-8.46106">
        <ele>82.33</ele>
        <time>2019-05-24T07:35:23Z</time>
      </trkpt>
      <trkpt lat="40.60067" lon="-8.46109">
        <ele>81.85</ele>
        <time>2019-05-24T07:35:36Z</time>
      </trkpt>
      <trkpt lat="40.60085" lon="-8.46108">
        <ele>81.85</ele>
        <time>2019-05-24T07:35:50Z</time>
      </trkpt>
      <trkpt lat="40.60109" lon="-8.46114">
        <ele>80.89</ele>
        <time>2019-05-24T07:36:08Z</time>
      </trkpt>
      <trkpt lat="40.60121" lon="-8.46117">
        <ele>81.85</ele>
        <time>2019-05-24T07:36:21Z</time>
      </trkpt>
      <trkpt lat="40.60122" lon="-8.46118">
        <ele>81.37</ele>
        <time>2019-05-24T07:36:22Z</time>
      </trkpt>
      <trkpt lat="40.60128" lon="-8.46119">
        <ele>80.89</ele>
        <time>2019-05-24T07:36:27Z</time>
      </trkpt>
      <trkpt lat="40.6013" lon="-8.4612">
        <ele>80.89</ele>
        <time>2019-05-24T07:36:29Z</time>
      </trkpt>
      <trkpt lat="40.60133" lon="-8.46121">
        <ele>81.37</ele>
        <time>2019-05-24T07:36:32Z</time>
      </trkpt>
      <trkpt lat="40.60143" lon="-8.4612">
        <ele>80.41</ele>
        <time>2019-05-24T07:36:44Z</time>
      </trkpt>
      <trkpt lat="40.60161" lon="-8.46123">
        <ele>80.41</ele>
        <time>2019-05-24T07:36:55Z</time>
      </trkpt>
      <trkpt lat="40.60169" lon="-8.46124">
        <ele>79.93</ele>
        <time>2019-05-24T07:37:01Z</time>
      </trkpt>
      <trkpt lat="40.60191" lon="-8.46127">
        <ele>79.45</ele>
        <time>2019-05-24T07:37:18Z</time>
      </trkpt>
      <trkpt lat="40.60211" lon="-8.4613">
        <ele>79.45</ele>
        <time>2019-05-24T07:37:34Z</time>
      </trkpt>
      <trkpt lat="40.60231" lon="-8.46134">
        <ele>78.97</ele>
        <time>2019-05-24T07:37:51Z</time>
      </trkpt>
      <trkpt lat="40.60245" lon="-8.46137">
        <ele>78.48</ele>
        <time>2019-05-24T07:38:05Z</time>
      </trkpt>
      <trkpt lat="40.60252" lon="-8.4614">
        <ele>78.97</ele>
        <time>2019-05-24T07:38:11Z</time>
      </trkpt>
      <trkpt lat="40.60267" lon="-8.46148">
        <ele>78.97</ele>
        <time>2019-05-24T07:38:25Z</time>
      </trkpt>
      <trkpt lat="40.60285" lon="-8.46147">
        <ele>78.97</ele>
        <time>2019-05-24T07:38:38Z</time>
      </trkpt>
      <trkpt lat="40.60287" lon="-8.46148">
        <ele>78.97</ele>
        <time>2019-05-24T07:38:41Z</time>
      </trkpt>
      <trkpt lat="40.60304" lon="-8.46152">
        <ele>78.48</ele>
        <time>2019-05-24T07:38:55Z</time>
      </trkpt>
      <trkpt lat="40.60314" lon="-8.46149">
        <ele>78.48</ele>
        <time>2019-05-24T07:39:08Z</time>
      </trkpt>
      <trkpt lat="40.60318" lon="-8.46151">
        <ele>78.48</ele>
        <time>2019-05-24T07:39:13Z</time>
      </trkpt>
      <trkpt lat="40.60332" lon="-8.46152">
        <ele>78</ele>
        <time>2019-05-24T07:39:26Z</time>
      </trkpt>
      <trkpt lat="40.60353" lon="-8.46154">
        <ele>78</ele>
        <time>2019-05-24T07:39:41Z</time>
      </trkpt>
      <trkpt lat="40.60365" lon="-8.46154">
        <ele>78</ele>
        <time>2019-05-24T07:39:50Z</time>
      </trkpt>
      <trkpt lat="40.60382" lon="-8.46158">
        <ele>77.52</ele>
        <time>2019-05-24T07:40:05Z</time>
      </trkpt>
      <trkpt lat="40.60395" lon="-8.46161">
        <ele>78</ele>
        <time>2019-05-24T07:40:17Z</time>
      </trkpt>
      <trkpt lat="40.60396" lon="-8.46163">
        <ele>78</ele>
        <time>2019-05-24T07:40:38Z</time>
      </trkpt>
      <trkpt lat="40.60403" lon="-8.46164">
        <ele>78</ele>
        <time>2019-05-24T07:40:49Z</time>
      </trkpt>
      <trkpt lat="40.60415" lon="-8.46168">
        <ele>78</ele>
        <time>2019-05-24T07:41:01Z</time>
      </trkpt>
      <trkpt lat="40.6042" lon="-8.46167">
        <ele>78</ele>
        <time>2019-05-24T07:41:07Z</time>
      </trkpt>
      <trkpt lat="40.60427" lon="-8.46167">
        <ele>78</ele>
        <time>2019-05-24T07:41:12Z</time>
      </trkpt>
      <trkpt lat="40.6045" lon="-8.46174">
        <ele>77.52</ele>
        <time>2019-05-24T07:41:31Z</time>
      </trkpt>
      <trkpt lat="40.60472" lon="-8.46176">
        <ele>77.52</ele>
        <time>2019-05-24T07:41:48Z</time>
      </trkpt>
      <trkpt lat="40.60487" lon="-8.46178">
        <ele>77.52</ele>
        <time>2019-05-24T07:42:01Z</time>
      </trkpt>
      <trkpt lat="40.60496" lon="-8.46178">
        <ele>78</ele>
        <time>2019-05-24T07:42:13Z</time>
      </trkpt>
      <trkpt lat="40.60509" lon="-8.4618">
        <ele>77.52</ele>
        <time>2019-05-24T07:42:26Z</time>
      </trkpt>
      <trkpt lat="40.6052" lon="-8.46178">
        <ele>78</ele>
        <time>2019-05-24T07:42:35Z</time>
      </trkpt>
      <trkpt lat="40.60537" lon="-8.4618">
        <ele>77.04</ele>
        <time>2019-05-24T07:42:49Z</time>
      </trkpt>
      <trkpt lat="40.60539" lon="-8.46179">
        <ele>77.52</ele>
        <time>2019-05-24T07:42:51Z</time>
      </trkpt>
      <trkpt lat="40.60554" lon="-8.46185">
        <ele>77.52</ele>
        <time>2019-05-24T07:43:04Z</time>
      </trkpt>
      <trkpt lat="40.6057" lon="-8.46188">
        <ele>77.52</ele>
        <time>2019-05-24T07:43:16Z</time>
      </trkpt>
      <trkpt lat="40.60584" lon="-8.46187">
        <ele>78</ele>
        <time>2019-05-24T07:43:28Z</time>
      </trkpt>
      <trkpt lat="40.606" lon="-8.46192">
        <ele>78</ele>
        <time>2019-05-24T07:43:42Z</time>
      </trkpt>
      <trkpt lat="40.60615" lon="-8.46194">
        <ele>78</ele>
        <time>2019-05-24T07:43:57Z</time>
      </trkpt>
      <trkpt lat="40.60615" lon="-8.46198">
        <ele>78</ele>
        <time>2019-05-24T07:44:21Z</time>
      </trkpt>
      <trkpt lat="40.60613" lon="-8.46199">
        <ele>77.52</ele>
        <time>2019-05-24T07:44:51Z</time>
      </trkpt>
      <trkpt lat="40.60617" lon="-8.46199">
        <ele>77.04</ele>
        <time>2019-05-24T07:45:12Z</time>
      </trkpt>
      <trkpt lat="40.60621" lon="-8.46199">
        <ele>77.52</ele>
        <time>2019-05-24T07:45:15Z</time>
      </trkpt>
      <trkpt lat="40.60626" lon="-8.46199">
        <ele>77.52</ele>
        <time>2019-05-24T07:45:20Z</time>
      </trkpt>
      <trkpt lat="40.60645" lon="-8.46203">
        <ele>77.04</ele>
        <time>2019-05-24T07:45:35Z</time>
      </trkpt>
      <trkpt lat="40.60661" lon="-8.46202">
        <ele>77.52</ele>
        <time>2019-05-24T07:45:48Z</time>
      </trkpt>
      <trkpt lat="40.60681" lon="-8.46205">
        <ele>77.52</ele>
        <time>2019-05-24T07:46:06Z</time>
      </trkpt>
      <trkpt lat="40.60696" lon="-8.46207">
        <ele>77.52</ele>
        <time>2019-05-24T07:46:21Z</time>
      </trkpt>
      <trkpt lat="40.60716" lon="-8.4621">
        <ele>77.52</ele>
        <time>2019-05-24T07:46:37Z</time>
      </trkpt>
      <trkpt lat="40.60734" lon="-8.46212">
        <ele>77.04</ele>
        <time>2019-05-24T07:46:52Z</time>
      </trkpt>
      <trkpt lat="40.60752" lon="-8.46213">
        <ele>77.52</ele>
        <time>2019-05-24T07:47:08Z</time>
      </trkpt>
      <trkpt lat="40.60765" lon="-8.46216">
        <ele>77.04</ele>
        <time>2019-05-24T07:47:20Z</time>
      </trkpt>
      <trkpt lat="40.60767" lon="-8.46216">
        <ele>77.52</ele>
        <time>2019-05-24T07:47:33Z</time>
      </trkpt>
      <trkpt lat="40.60781" lon="-8.46214">
        <ele>77.52</ele>
        <time>2019-05-24T07:47:41Z</time>
      </trkpt>
      <trkpt lat="40.60806" lon="-8.46211">
        <ele>77.52</ele>
        <time>2019-05-24T07:47:56Z</time>
      </trkpt>
      <trkpt lat="40.60813" lon="-8.46212">
        <ele>77.52</ele>
        <time>2019-05-24T07:48:00Z</time>
      </trkpt>
      <trkpt lat="40.60817" lon="-8.46212">
        <ele>77.52</ele>
        <time>2019-05-24T07:48:03Z</time>
      </trkpt>
      <trkpt lat="40.60823" lon="-8.46212">
        <ele>77.04</ele>
        <time>2019-05-24T07:48:08Z</time>
      </trkpt>
      <trkpt lat="40.60828" lon="-8.46211">
        <ele>77.52</ele>
        <time>2019-05-24T07:48:13Z</time>
      </trkpt>
      <trkpt lat="40.60844" lon="-8.46216">
        <ele>77.52</ele>
        <time>2019-05-24T07:48:28Z</time>
      </trkpt>
      <trkpt lat="40.60865" lon="-8.46223">
        <ele>77.04</ele>
        <time>2019-05-24T07:48:44Z</time>
      </trkpt>
      <trkpt lat="40.6088" lon="-8.4622">
        <ele>77.52</ele>
        <time>2019-05-24T07:48:59Z</time>
      </trkpt>
      <trkpt lat="40.609" lon="-8.4622">
        <ele>76.56</ele>
        <time>2019-05-24T07:49:15Z</time>
      </trkpt>
      <trkpt lat="40.60923" lon="-8.46219">
        <ele>76.56</ele>
        <time>2019-05-24T07:49:33Z</time>
      </trkpt>
      <trkpt lat="40.60937" lon="-8.46225">
        <ele>77.04</ele>
        <time>2019-05-24T07:49:47Z</time>
      </trkpt>
      <trkpt lat="40.60943" lon="-8.46227">
        <ele>77.04</ele>
        <time>2019-05-24T07:50:04Z</time>
      </trkpt>
      <trkpt lat="40.60954" lon="-8.4623">
        <ele>76.56</ele>
        <time>2019-05-24T07:50:22Z</time>
      </trkpt>
      <trkpt lat="40.60969" lon="-8.4623">
        <ele>76.56</ele>
        <time>2019-05-24T07:50:38Z</time>
      </trkpt>
      <trkpt lat="40.60971" lon="-8.46234">
        <ele>76.08</ele>
        <time>2019-05-24T07:50:44Z</time>
      </trkpt>
      <trkpt lat="40.60984" lon="-8.46231">
        <ele>77.04</ele>
        <time>2019-05-24T07:50:58Z</time>
      </trkpt>
      <trkpt lat="40.60996" lon="-8.46231">
        <ele>76.08</ele>
        <time>2019-05-24T07:51:13Z</time>
      </trkpt>
      <trkpt lat="40.61014" lon="-8.46226">
        <ele>77.04</ele>
        <time>2019-05-24T07:51:26Z</time>
      </trkpt>
      <trkpt lat="40.61018" lon="-8.46227">
        <ele>77.04</ele>
        <time>2019-05-24T07:51:29Z</time>
      </trkpt>
      <trkpt lat="40.61029" lon="-8.46227">
        <ele>76.08</ele>
        <time>2019-05-24T07:51:40Z</time>
      </trkpt>
      <trkpt lat="40.61048" lon="-8.46226">
        <ele>77.04</ele>
        <time>2019-05-24T07:51:54Z</time>
      </trkpt>
      <trkpt lat="40.61067" lon="-8.46235">
        <ele>77.04</ele>
        <time>2019-05-24T07:52:12Z</time>
      </trkpt>
      <trkpt lat="40.61076" lon="-8.46235">
        <ele>77.04</ele>
        <time>2019-05-24T07:52:18Z</time>
      </trkpt>
      <trkpt lat="40.61082" lon="-8.46235">
        <ele>76.56</ele>
        <time>2019-05-24T07:52:22Z</time>
      </trkpt>
      <trkpt lat="40.61093" lon="-8.46233">
        <ele>78</ele>
        <time>2019-05-24T07:52:34Z</time>
      </trkpt>
      <trkpt lat="40.61099" lon="-8.46232">
        <ele>77.52</ele>
        <time>2019-05-24T07:52:47Z</time>
      </trkpt>
      <trkpt lat="40.61105" lon="-8.4623">
        <ele>78</ele>
        <time>2019-05-24T07:53:01Z</time>
      </trkpt>
      <trkpt lat="40.61107" lon="-8.46223">
        <ele>78</ele>
        <time>2019-05-24T07:53:18Z</time>
      </trkpt>
      <trkpt lat="40.61118" lon="-8.46224">
        <ele>78</ele>
        <time>2019-05-24T07:53:33Z</time>
      </trkpt>
      <trkpt lat="40.61121" lon="-8.46216">
        <ele>78</ele>
        <time>2019-05-24T07:53:59Z</time>
      </trkpt>
      <trkpt lat="40.61128" lon="-8.46219">
        <ele>78</ele>
        <time>2019-05-24T07:54:12Z</time>
      </trkpt>
      <trkpt lat="40.61129" lon="-8.4622">
        <ele>78</ele>
        <time>2019-05-24T07:54:14Z</time>
      </trkpt>
      <trkpt lat="40.61139" lon="-8.4622">
        <ele>78</ele>
        <time>2019-05-24T07:54:27Z</time>
      </trkpt>
      <trkpt lat="40.61157" lon="-8.46213">
        <ele>78.48</ele>
        <time>2019-05-24T07:54:40Z</time>
      </trkpt>
      <trkpt lat="40.61176" lon="-8.46213">
        <ele>78</ele>
        <time>2019-05-24T07:54:55Z</time>
      </trkpt>
      <trkpt lat="40.61187" lon="-8.46213">
        <ele>78</ele>
        <time>2019-05-24T07:55:06Z</time>
      </trkpt>
      <trkpt lat="40.61201" lon="-8.46215">
        <ele>77.52</ele>
        <time>2019-05-24T07:55:19Z</time>
      </trkpt>
      <trkpt lat="40.61213" lon="-8.46216">
        <ele>78</ele>
        <time>2019-05-24T07:55:32Z</time>
      </trkpt>
      <trkpt lat="40.61224" lon="-8.46215">
        <ele>78</ele>
        <time>2019-05-24T07:55:39Z</time>
      </trkpt>
      <trkpt lat="40.61242" lon="-8.46218">
        <ele>77.52</ele>
        <time>2019-05-24T07:55:53Z</time>
      </trkpt>
      <trkpt lat="40.61259" lon="-8.46221">
        <ele>78.48</ele>
        <time>2019-05-24T07:56:07Z</time>
      </trkpt>
      <trkpt lat="40.61271" lon="-8.46222">
        <ele>78</ele>
        <time>2019-05-24T07:56:19Z</time>
      </trkpt>
      <trkpt lat="40.6128" lon="-8.4622">
        <ele>77.52</ele>
        <time>2019-05-24T07:56:33Z</time>
      </trkpt>
      <trkpt lat="40.61296" lon="-8.46219">
        <ele>78</ele>
        <time>2019-05-24T07:56:49Z</time>
      </trkpt>
      <trkpt lat="40.61311" lon="-8.46217">
        <ele>77.04</ele>
        <time>2019-05-24T07:57:02Z</time>
      </trkpt>
      <trkpt lat="40.61315" lon="-8.46217">
        <ele>77.52</ele>
        <time>2019-05-24T07:57:05Z</time>
      </trkpt>
      <trkpt lat="40.61319" lon="-8.46217">
        <ele>77.52</ele>
        <time>2019-05-24T07:57:08Z</time>
      </trkpt>
      <trkpt lat="40.61339" lon="-8.46216">
        <ele>77.52</ele>
        <time>2019-05-24T07:57:23Z</time>
      </trkpt>
      <trkpt lat="40.61358" lon="-8.46218">
        <ele>77.52</ele>
        <time>2019-05-24T07:57:35Z</time>
      </trkpt>
      <trkpt lat="40.61371" lon="-8.46221">
        <ele>77.52</ele>
        <time>2019-05-24T07:57:51Z</time>
      </trkpt>
      <trkpt lat="40.61383" lon="-8.4622">
        <ele>76.56</ele>
        <time>2019-05-24T07:58:01Z</time>
      </trkpt>
      <trkpt lat="40.61396" lon="-8.46218">
        <ele>77.04</ele>
        <time>2019-05-24T07:58:18Z</time>
      </trkpt>
      <trkpt lat="40.61406" lon="-8.46218">
        <ele>76.56</ele>
        <time>2019-05-24T07:58:26Z</time>
      </trkpt>
      <trkpt lat="40.61424" lon="-8.46221">
        <ele>76.56</ele>
        <time>2019-05-24T07:58:39Z</time>
      </trkpt>
      <trkpt lat="40.61436" lon="-8.46222">
        <ele>76.56</ele>
        <time>2019-05-24T07:58:47Z</time>
      </trkpt>
      <trkpt lat="40.61451" lon="-8.46227">
        <ele>77.04</ele>
        <time>2019-05-24T07:59:01Z</time>
      </trkpt>
      <trkpt lat="40.61458" lon="-8.46228">
        <ele>77.04</ele>
        <time>2019-05-24T07:59:13Z</time>
      </trkpt>
      <trkpt lat="40.61462" lon="-8.46228">
        <ele>76.08</ele>
        <time>2019-05-24T07:59:19Z</time>
      </trkpt>
      <trkpt lat="40.61465" lon="-8.46226">
        <ele>76.08</ele>
        <time>2019-05-24T07:59:23Z</time>
      </trkpt>
      <trkpt lat="40.61484" lon="-8.46227">
        <ele>76.56</ele>
        <time>2019-05-24T07:59:39Z</time>
      </trkpt>
      <trkpt lat="40.61501" lon="-8.46226">
        <ele>75.6</ele>
        <time>2019-05-24T07:59:54Z</time>
      </trkpt>
      <trkpt lat="40.61518" lon="-8.46228">
        <ele>75.6</ele>
        <time>2019-05-24T08:00:05Z</time>
      </trkpt>
      <trkpt lat="40.61524" lon="-8.46232">
        <ele>76.56</ele>
        <time>2019-05-24T08:00:14Z</time>
      </trkpt>
      <trkpt lat="40.61531" lon="-8.46235">
        <ele>75.6</ele>
        <time>2019-05-24T08:00:20Z</time>
      </trkpt>
      <trkpt lat="40.6155" lon="-8.46228">
        <ele>76.08</ele>
        <time>2019-05-24T08:00:39Z</time>
      </trkpt>
      <trkpt lat="40.61556" lon="-8.46227">
        <ele>76.08</ele>
        <time>2019-05-24T08:00:43Z</time>
      </trkpt>
      <trkpt lat="40.61562" lon="-8.46226">
        <ele>76.56</ele>
        <time>2019-05-24T08:00:50Z</time>
      </trkpt>
      <trkpt lat="40.61573" lon="-8.46224">
        <ele>76.08</ele>
        <time>2019-05-24T08:01:00Z</time>
      </trkpt>
      <trkpt lat="40.61586" lon="-8.46223">
        <ele>76.08</ele>
        <time>2019-05-24T08:01:11Z</time>
      </trkpt>
      <trkpt lat="40.61601" lon="-8.46222">
        <ele>76.56</ele>
        <time>2019-05-24T08:01:24Z</time>
      </trkpt>
      <trkpt lat="40.61614" lon="-8.46218">
        <ele>76.56</ele>
        <time>2019-05-24T08:01:34Z</time>
      </trkpt>
      <trkpt lat="40.61626" lon="-8.46216">
        <ele>76.08</ele>
        <time>2019-05-24T08:01:46Z</time>
      </trkpt>
      <trkpt lat="40.6163" lon="-8.46217">
        <ele>76.08</ele>
        <time>2019-05-24T08:01:49Z</time>
      </trkpt>
      <trkpt lat="40.61645" lon="-8.46219">
        <ele>75.6</ele>
        <time>2019-05-24T08:02:03Z</time>
      </trkpt>
      <trkpt lat="40.6165" lon="-8.46217">
        <ele>75.12</ele>
        <time>2019-05-24T08:02:07Z</time>
      </trkpt>
      <trkpt lat="40.61664" lon="-8.46216">
        <ele>75.6</ele>
        <time>2019-05-24T08:02:18Z</time>
      </trkpt>
      <trkpt lat="40.61668" lon="-8.46214">
        <ele>75.6</ele>
        <time>2019-05-24T08:02:21Z</time>
      </trkpt>
      <trkpt lat="40.61679" lon="-8.4621">
        <ele>75.12</ele>
        <time>2019-05-24T08:02:34Z</time>
      </trkpt>
      <trkpt lat="40.61694" lon="-8.46207">
        <ele>75.12</ele>
        <time>2019-05-24T08:02:47Z</time>
      </trkpt>
      <trkpt lat="40.61707" lon="-8.46202">
        <ele>74.16</ele>
        <time>2019-05-24T08:02:59Z</time>
      </trkpt>
      <trkpt lat="40.61718" lon="-8.46202">
        <ele>75.12</ele>
        <time>2019-05-24T08:03:08Z</time>
      </trkpt>
      <trkpt lat="40.61736" lon="-8.46203">
        <ele>74.64</ele>
        <time>2019-05-24T08:03:22Z</time>
      </trkpt>
      <trkpt lat="40.61746" lon="-8.46203">
        <ele>75.12</ele>
        <time>2019-05-24T08:03:29Z</time>
      </trkpt>
      <trkpt lat="40.61764" lon="-8.46202">
        <ele>75.12</ele>
        <time>2019-05-24T08:03:43Z</time>
      </trkpt>
      <trkpt lat="40.61776" lon="-8.46199">
        <ele>75.6</ele>
        <time>2019-05-24T08:03:57Z</time>
      </trkpt>
      <trkpt lat="40.61786" lon="-8.46202">
        <ele>76.08</ele>
        <time>2019-05-24T08:04:11Z</time>
      </trkpt>
      <trkpt lat="40.61792" lon="-8.46204">
        <ele>74.16</ele>
        <time>2019-05-24T08:04:21Z</time>
      </trkpt>
      <trkpt lat="40.61804" lon="-8.46216">
        <ele>74.64</ele>
        <time>2019-05-24T08:04:35Z</time>
      </trkpt>
      <trkpt lat="40.61808" lon="-8.46224">
        <ele>76.08</ele>
        <time>2019-05-24T08:04:42Z</time>
      </trkpt>
      <trkpt lat="40.6181" lon="-8.46229">
        <ele>76.56</ele>
        <time>2019-05-24T08:04:46Z</time>
      </trkpt>
      <trkpt lat="40.61811" lon="-8.46235">
        <ele>76.08</ele>
        <time>2019-05-24T08:04:51Z</time>
      </trkpt>
      <trkpt lat="40.61817" lon="-8.46246">
        <ele>77.04</ele>
        <time>2019-05-24T08:05:05Z</time>
      </trkpt>
      <trkpt lat="40.61817" lon="-8.46248">
        <ele>77.52</ele>
        <time>2019-05-24T08:05:26Z</time>
      </trkpt>
      <trkpt lat="40.61818" lon="-8.46248">
        <ele>77.52</ele>
        <time>2019-05-24T08:05:33Z</time>
      </trkpt>
      <trkpt lat="40.61818" lon="-8.46248">
        <ele>77.52</ele>
        <time>2019-05-24T08:05:49Z</time>
      </trkpt>
      <trkpt lat="40.61818" lon="-8.46247">
        <ele>77.52</ele>
        <time>2019-05-24T08:06:10Z</time>
      </trkpt>
      <trkpt lat="40.61818" lon="-8.46249">
        <ele>77.52</ele>
        <time>2019-05-24T08:06:31Z</time>
      </trkpt>
      <trkpt lat="40.61818" lon="-8.46248">
        <ele>78.48</ele>
        <time>2019-05-24T08:06:53Z</time>
      </trkpt>
      <trkpt lat="40.61817" lon="-8.46248">
        <ele>77.52</ele>
        <time>2019-05-24T08:07:07Z</time>
      </trkpt>
      <trkpt lat="40.61819" lon="-8.46249">
        <ele>77.52</ele>
        <time>2019-05-24T08:07:27Z</time>
      </trkpt>
      <trkpt lat="40.61819" lon="-8.4625">
        <ele>77.52</ele>
        <time>2019-05-24T08:07:35Z</time>
      </trkpt>
      <trkpt lat="40.6183" lon="-8.46265">
        <ele>77.52</ele>
        <time>2019-05-24T08:07:49Z</time>
      </trkpt>
      <trkpt lat="40.61847" lon="-8.46274">
        <ele>76.08</ele>
        <time>2019-05-24T08:08:04Z</time>
      </trkpt>
      <trkpt lat="40.61866" lon="-8.46284">
        <ele>75.12</ele>
        <time>2019-05-24T08:08:20Z</time>
      </trkpt>
      <trkpt lat="40.61873" lon="-8.46287">
        <ele>75.6</ele>
        <time>2019-05-24T08:08:29Z</time>
      </trkpt>
      <trkpt lat="40.61878" lon="-8.46289">
        <ele>75.12</ele>
        <time>2019-05-24T08:08:33Z</time>
      </trkpt>
      <trkpt lat="40.61894" lon="-8.46296">
        <ele>75.6</ele>
        <time>2019-05-24T08:08:49Z</time>
      </trkpt>
      <trkpt lat="40.61897" lon="-8.46298">
        <ele>74.64</ele>
        <time>2019-05-24T08:08:52Z</time>
      </trkpt>
      <trkpt lat="40.61914" lon="-8.46308">
        <ele>75.12</ele>
        <time>2019-05-24T08:09:08Z</time>
      </trkpt>
      <trkpt lat="40.61927" lon="-8.46316">
        <ele>75.6</ele>
        <time>2019-05-24T08:09:22Z</time>
      </trkpt>
      <trkpt lat="40.6194" lon="-8.46324">
        <ele>74.64</ele>
        <time>2019-05-24T08:09:36Z</time>
      </trkpt>
      <trkpt lat="40.61943" lon="-8.46325">
        <ele>74.64</ele>
        <time>2019-05-24T08:09:39Z</time>
      </trkpt>
      <trkpt lat="40.61961" lon="-8.46335">
        <ele>75.12</ele>
        <time>2019-05-24T08:09:56Z</time>
      </trkpt>
      <trkpt lat="40.61976" lon="-8.46343">
        <ele>75.6</ele>
        <time>2019-05-24T08:10:10Z</time>
      </trkpt>
      <trkpt lat="40.61992" lon="-8.46351">
        <ele>75.12</ele>
        <time>2019-05-24T08:10:24Z</time>
      </trkpt>
      <trkpt lat="40.62003" lon="-8.46355">
        <ele>75.12</ele>
        <time>2019-05-24T08:10:34Z</time>
      </trkpt>
      <trkpt lat="40.6202" lon="-8.46365">
        <ele>76.08</ele>
        <time>2019-05-24T08:10:47Z</time>
      </trkpt>
      <trkpt lat="40.62036" lon="-8.46371">
        <ele>75.6</ele>
        <time>2019-05-24T08:11:01Z</time>
      </trkpt>
      <trkpt lat="40.62051" lon="-8.46383">
        <ele>76.08</ele>
        <time>2019-05-24T08:11:17Z</time>
      </trkpt>
      <trkpt lat="40.62065" lon="-8.46392">
        <ele>75.6</ele>
        <time>2019-05-24T08:11:34Z</time>
      </trkpt>
      <trkpt lat="40.6207" lon="-8.46398">
        <ele>76.08</ele>
        <time>2019-05-24T08:11:47Z</time>
      </trkpt>
      <trkpt lat="40.62085" lon="-8.46408">
        <ele>75.12</ele>
        <time>2019-05-24T08:12:02Z</time>
      </trkpt>
      <trkpt lat="40.62097" lon="-8.46416">
        <ele>75.12</ele>
        <time>2019-05-24T08:12:13Z</time>
      </trkpt>
      <trkpt lat="40.62114" lon="-8.46429">
        <ele>75.6</ele>
        <time>2019-05-24T08:12:29Z</time>
      </trkpt>
      <trkpt lat="40.6213" lon="-8.46444">
        <ele>75.12</ele>
        <time>2019-05-24T08:12:45Z</time>
      </trkpt>
      <trkpt lat="40.62143" lon="-8.46456">
        <ele>75.12</ele>
        <time>2019-05-24T08:13:00Z</time>
      </trkpt>
      <trkpt lat="40.62153" lon="-8.46465">
        <ele>75.12</ele>
        <time>2019-05-24T08:13:13Z</time>
      </trkpt>
      <trkpt lat="40.62158" lon="-8.46469">
        <ele>75.6</ele>
        <time>2019-05-24T08:13:27Z</time>
      </trkpt>
      <trkpt lat="40.62173" lon="-8.46482">
        <ele>75.12</ele>
        <time>2019-05-24T08:13:43Z</time>
      </trkpt>
      <trkpt lat="40.62188" lon="-8.46495">
        <ele>75.6</ele>
        <time>2019-05-24T08:13:59Z</time>
      </trkpt>
      <trkpt lat="40.62205" lon="-8.46508">
        <ele>74.64</ele>
        <time>2019-05-24T08:14:15Z</time>
      </trkpt>
      <trkpt lat="40.62221" lon="-8.46522">
        <ele>73.68</ele>
        <time>2019-05-24T08:14:32Z</time>
      </trkpt>
      <trkpt lat="40.62239" lon="-8.46537">
        <ele>74.64</ele>
        <time>2019-05-24T08:14:48Z</time>
      </trkpt>
      <trkpt lat="40.62246" lon="-8.4654">
        <ele>74.64</ele>
        <time>2019-05-24T08:14:54Z</time>
      </trkpt>
      <trkpt lat="40.62259" lon="-8.46554">
        <ele>74.16</ele>
        <time>2019-05-24T08:15:09Z</time>
      </trkpt>
      <trkpt lat="40.62276" lon="-8.46567">
        <ele>75.12</ele>
        <time>2019-05-24T08:15:25Z</time>
      </trkpt>
      <trkpt lat="40.6229" lon="-8.4658">
        <ele>75.6</ele>
        <time>2019-05-24T08:15:40Z</time>
      </trkpt>
      <trkpt lat="40.62306" lon="-8.46592">
        <ele>75.12</ele>
        <time>2019-05-24T08:15:56Z</time>
      </trkpt>
      <trkpt lat="40.62319" lon="-8.46607">
        <ele>75.6</ele>
        <time>2019-05-24T08:16:11Z</time>
      </trkpt>
      <trkpt lat="40.62327" lon="-8.46621">
        <ele>76.56</ele>
        <time>2019-05-24T08:16:21Z</time>
      </trkpt>
      <trkpt lat="40.62328" lon="-8.46623">
        <ele>76.08</ele>
        <time>2019-05-24T08:16:23Z</time>
      </trkpt>
      <trkpt lat="40.62336" lon="-8.46628">
        <ele>76.56</ele>
        <time>2019-05-24T08:16:36Z</time>
      </trkpt>
      <trkpt lat="40.6234" lon="-8.4663">
        <ele>75.6</ele>
        <time>2019-05-24T08:16:57Z</time>
      </trkpt>
      <trkpt lat="40.62345" lon="-8.46632">
        <ele>76.08</ele>
        <time>2019-05-24T08:17:11Z</time>
      </trkpt>
      <trkpt lat="40.62347" lon="-8.46634">
        <ele>76.08</ele>
        <time>2019-05-24T08:17:38Z</time>
      </trkpt>
      <trkpt lat="40.62346" lon="-8.46633">
        <ele>76.08</ele>
        <time>2019-05-24T08:18:13Z</time>
      </trkpt>
      <trkpt lat="40.62348" lon="-8.46634">
        <ele>76.56</ele>
        <time>2019-05-24T08:18:51Z</time>
      </trkpt>
      <trkpt lat="40.6235" lon="-8.46633">
        <ele>76.56</ele>
        <time>2019-05-24T08:19:19Z</time>
      </trkpt>
      <trkpt lat="40.62345" lon="-8.46621">
        <ele>76.56</ele>
        <time>2019-05-24T08:19:52Z</time>
      </trkpt>
      <trkpt lat="40.62349" lon="-8.46629">
        <ele>76.56</ele>
        <time>2019-05-24T08:20:21Z</time>
      </trkpt>
      <trkpt lat="40.62362" lon="-8.46642">
        <ele>77.04</ele>
        <time>2019-05-24T08:20:36Z</time>
      </trkpt>
      <trkpt lat="40.62378" lon="-8.46657">
        <ele>77.52</ele>
        <time>2019-05-24T08:20:53Z</time>
      </trkpt>
      <trkpt lat="40.62395" lon="-8.46667">
        <ele>76.56</ele>
        <time>2019-05-24T08:21:08Z</time>
      </trkpt>
      <trkpt lat="40.62409" lon="-8.46678">
        <ele>77.52</ele>
        <time>2019-05-24T08:21:23Z</time>
      </trkpt>
      <trkpt lat="40.62424" lon="-8.46688">
        <ele>78.48</ele>
        <time>2019-05-24T08:21:37Z</time>
      </trkpt>
      <trkpt lat="40.62437" lon="-8.46699">
        <ele>78</ele>
        <time>2019-05-24T08:21:51Z</time>
      </trkpt>
      <trkpt lat="40.62451" lon="-8.46709">
        <ele>78.48</ele>
        <time>2019-05-24T08:22:04Z</time>
      </trkpt>
      <trkpt lat="40.62465" lon="-8.46717">
        <ele>78.97</ele>
        <time>2019-05-24T08:22:18Z</time>
      </trkpt>
      <trkpt lat="40.62485" lon="-8.46731">
        <ele>78.48</ele>
        <time>2019-05-24T08:22:35Z</time>
      </trkpt>
      <trkpt lat="40.62502" lon="-8.46744">
        <ele>79.45</ele>
        <time>2019-05-24T08:22:51Z</time>
      </trkpt>
      <trkpt lat="40.62518" lon="-8.46756">
        <ele>78.97</ele>
        <time>2019-05-24T08:23:06Z</time>
      </trkpt>
      <trkpt lat="40.62531" lon="-8.46765">
        <ele>79.93</ele>
        <time>2019-05-24T08:23:21Z</time>
      </trkpt>
      <trkpt lat="40.62548" lon="-8.46776">
        <ele>79.45</ele>
        <time>2019-05-24T08:23:39Z</time>
      </trkpt>
      <trkpt lat="40.6256" lon="-8.46791">
        <ele>79.93</ele>
        <time>2019-05-24T08:23:54Z</time>
      </trkpt>
      <trkpt lat="40.62571" lon="-8.46804">
        <ele>79.45</ele>
        <time>2019-05-24T08:24:09Z</time>
      </trkpt>
      <trkpt lat="40.6259" lon="-8.46822">
        <ele>78.97</ele>
        <time>2019-05-24T08:24:25Z</time>
      </trkpt>
      <trkpt lat="40.62607" lon="-8.46838">
        <ele>78.97</ele>
        <time>2019-05-24T08:24:42Z</time>
      </trkpt>
      <trkpt lat="40.62625" lon="-8.46854">
        <ele>78.48</ele>
        <time>2019-05-24T08:24:59Z</time>
      </trkpt>
      <trkpt lat="40.62641" lon="-8.46869">
        <ele>78.48</ele>
        <time>2019-05-24T08:25:15Z</time>
      </trkpt>
      <trkpt lat="40.62646" lon="-8.46873">
        <ele>78.48</ele>
        <time>2019-05-24T08:25:19Z</time>
      </trkpt>
      <trkpt lat="40.62651" lon="-8.46881">
        <ele>78</ele>
        <time>2019-05-24T08:25:25Z</time>
      </trkpt>
      <trkpt lat="40.62655" lon="-8.46884">
        <ele>78</ele>
        <time>2019-05-24T08:25:31Z</time>
      </trkpt>
      <trkpt lat="40.6267" lon="-8.46903">
        <ele>78</ele>
        <time>2019-05-24T08:25:47Z</time>
      </trkpt>
      <trkpt lat="40.62681" lon="-8.46919">
        <ele>78</ele>
        <time>2019-05-24T08:26:01Z</time>
      </trkpt>
      <trkpt lat="40.62693" lon="-8.46937">
        <ele>78.97</ele>
        <time>2019-05-24T08:26:17Z</time>
      </trkpt>
      <trkpt lat="40.62704" lon="-8.46952">
        <ele>78.97</ele>
        <time>2019-05-24T08:26:31Z</time>
      </trkpt>
      <trkpt lat="40.62707" lon="-8.46955">
        <ele>78.97</ele>
        <time>2019-05-24T08:26:51Z</time>
      </trkpt>
      <trkpt lat="40.62707" lon="-8.46954">
        <ele>78.97</ele>
        <time>2019-05-24T08:27:07Z</time>
      </trkpt>
      <trkpt lat="40.62711" lon="-8.46957">
        <ele>78.48</ele>
        <time>2019-05-24T08:27:29Z</time>
      </trkpt>
      <trkpt lat="40.62718" lon="-8.4696">
        <ele>78</ele>
        <time>2019-05-24T08:27:49Z</time>
      </trkpt>
      <trkpt lat="40.62724" lon="-8.46972">
        <ele>78.48</ele>
        <time>2019-05-24T08:27:59Z</time>
      </trkpt>
      <trkpt lat="40.62726" lon="-8.46976">
        <ele>78</ele>
        <time>2019-05-24T08:28:02Z</time>
      </trkpt>
      <trkpt lat="40.62744" lon="-8.46993">
        <ele>78.48</ele>
        <time>2019-05-24T08:28:19Z</time>
      </trkpt>
      <trkpt lat="40.6275" lon="-8.46997">
        <ele>77.52</ele>
        <time>2019-05-24T08:28:23Z</time>
      </trkpt>
      <trkpt lat="40.62768" lon="-8.47008">
        <ele>77.04</ele>
        <time>2019-05-24T08:28:38Z</time>
      </trkpt>
      <trkpt lat="40.62784" lon="-8.47017">
        <ele>75.6</ele>
        <time>2019-05-24T08:28:52Z</time>
      </trkpt>
      <trkpt lat="40.62798" lon="-8.4703">
        <ele>74.16</ele>
        <time>2019-05-24T08:29:07Z</time>
      </trkpt>
      <trkpt lat="40.62801" lon="-8.47036">
        <ele>73.68</ele>
        <time>2019-05-24T08:29:11Z</time>
      </trkpt>
      <trkpt lat="40.62816" lon="-8.47055">
        <ele>71.76</ele>
        <time>2019-05-24T08:29:26Z</time>
      </trkpt>
      <trkpt lat="40.62828" lon="-8.47074">
        <ele>70.31</ele>
        <time>2019-05-24T08:29:42Z</time>
      </trkpt>
      <trkpt lat="40.62833" lon="-8.47086">
        <ele>69.83</ele>
        <time>2019-05-24T08:29:49Z</time>
      </trkpt>
      <trkpt lat="40.62847" lon="-8.47092">
        <ele>67.91</ele>
        <time>2019-05-24T08:29:59Z</time>
      </trkpt>
      <trkpt lat="40.62858" lon="-8.4709">
        <ele>67.43</ele>
        <time>2019-05-24T08:30:07Z</time>
      </trkpt>
      <trkpt lat="40.62865" lon="-8.47079">
        <ele>66.95</ele>
        <time>2019-05-24T08:30:16Z</time>
      </trkpt>
      <trkpt lat="40.62864" lon="-8.47071">
        <ele>65.51</ele>
        <time>2019-05-24T08:30:21Z</time>
      </trkpt>
      <trkpt lat="40.62866" lon="-8.47056">
        <ele>64.07</ele>
        <time>2019-05-24T08:30:30Z</time>
      </trkpt>
      <trkpt lat="40.62866" lon="-8.47049">
        <ele>63.58</ele>
        <time>2019-05-24T08:30:34Z</time>
      </trkpt>
      <trkpt lat="40.62867" lon="-8.47028">
        <ele>61.66</ele>
        <time>2019-05-24T08:30:47Z</time>
      </trkpt>
      <trkpt lat="40.62879" lon="-8.47005">
        <ele>59.26</ele>
        <time>2019-05-24T08:31:03Z</time>
      </trkpt>
      <trkpt lat="40.62896" lon="-8.46999">
        <ele>57.34</ele>
        <time>2019-05-24T08:31:18Z</time>
      </trkpt>
      <trkpt lat="40.629" lon="-8.47001">
        <ele>57.34</ele>
        <time>2019-05-24T08:31:35Z</time>
      </trkpt>
      <trkpt lat="40.62902" lon="-8.47003">
        <ele>57.82</ele>
        <time>2019-05-24T08:31:58Z</time>
      </trkpt>
      <trkpt lat="40.62905" lon="-8.47002">
        <ele>57.82</ele>
        <time>2019-05-24T08:32:13Z</time>
      </trkpt>
      <trkpt lat="40.6291" lon="-8.46997">
        <ele>57.82</ele>
        <time>2019-05-24T08:32:18Z</time>
      </trkpt>
      <trkpt lat="40.62918" lon="-8.46996">
        <ele>54.93</ele>
        <time>2019-05-24T08:32:32Z</time>
      </trkpt>
      <trkpt lat="40.62932" lon="-8.46991">
        <ele>53.97</ele>
        <time>2019-05-24T08:32:44Z</time>
      </trkpt>
      <trkpt lat="40.62951" lon="-8.46986">
        <ele>51.57</ele>
        <time>2019-05-24T08:33:01Z</time>
      </trkpt>
      <trkpt lat="40.62953" lon="-8.46986">
        <ele>51.09</ele>
        <time>2019-05-24T08:33:03Z</time>
      </trkpt>
      <trkpt lat="40.62966" lon="-8.46984">
        <ele>49.65</ele>
        <time>2019-05-24T08:33:15Z</time>
      </trkpt>
      <trkpt lat="40.6297" lon="-8.46982">
        <ele>49.16</ele>
        <time>2019-05-24T08:33:18Z</time>
      </trkpt>
      <trkpt lat="40.62992" lon="-8.4698">
        <ele>46.76</ele>
        <time>2019-05-24T08:33:36Z</time>
      </trkpt>
      <trkpt lat="40.63008" lon="-8.4698">
        <ele>44.84</ele>
        <time>2019-05-24T08:33:49Z</time>
      </trkpt>
      <trkpt lat="40.63025" lon="-8.46983">
        <ele>43.88</ele>
        <time>2019-05-24T08:34:02Z</time>
      </trkpt>
      <trkpt lat="40.63045" lon="-8.46993">
        <ele>41.95</ele>
        <time>2019-05-24T08:34:19Z</time>
      </trkpt>
      <trkpt lat="40.63064" lon="-8.47003">
        <ele>40.51</ele>
        <time>2019-05-24T08:34:34Z</time>
      </trkpt>
      <trkpt lat="40.63079" lon="-8.47012">
        <ele>39.55</ele>
        <time>2019-05-24T08:34:48Z</time>
      </trkpt>
      <trkpt lat="40.63094" lon="-8.47018">
        <ele>37.63</ele>
        <time>2019-05-24T08:35:01Z</time>
      </trkpt>
      <trkpt lat="40.631" lon="-8.47018">
        <ele>37.15</ele>
        <time>2019-05-24T08:35:07Z</time>
      </trkpt>
      <trkpt lat="40.63108" lon="-8.47017">
        <ele>36.19</ele>
        <time>2019-05-24T08:35:14Z</time>
      </trkpt>
      <trkpt lat="40.63114" lon="-8.46998">
        <ele>33.78</ele>
        <time>2019-05-24T08:35:30Z</time>
      </trkpt>
      <trkpt lat="40.63107" lon="-8.46974">
        <ele>31.38</ele>
        <time>2019-05-24T08:35:48Z</time>
      </trkpt>
      <trkpt lat="40.63103" lon="-8.46956">
        <ele>28.98</ele>
        <time>2019-05-24T08:36:05Z</time>
      </trkpt>
      <trkpt lat="40.63101" lon="-8.46949">
        <ele>28.5</ele>
        <time>2019-05-24T08:36:14Z</time>
      </trkpt>
      <trkpt lat="40.63099" lon="-8.46939">
        <ele>27.53</ele>
        <time>2019-05-24T08:36:29Z</time>
      </trkpt>
      <trkpt lat="40.63092" lon="-8.46927">
        <ele>26.57</ele>
        <time>2019-05-24T08:36:44Z</time>
      </trkpt>
      <trkpt lat="40.6309" lon="-8.4692">
        <ele>26.57</ele>
        <time>2019-05-24T08:36:58Z</time>
      </trkpt>
      <trkpt lat="40.63092" lon="-8.46921">
        <ele>26.09</ele>
        <time>2019-05-24T08:37:17Z</time>
      </trkpt>
      <trkpt lat="40.63092" lon="-8.46921">
        <ele>26.57</ele>
        <time>2019-05-24T08:37:39Z</time>
      </trkpt>
      <trkpt lat="40.6308" lon="-8.46904">
        <ele>25.13</ele>
        <time>2019-05-24T08:37:58Z</time>
      </trkpt>
      <trkpt lat="40.63077" lon="-8.46886">
        <ele>24.65</ele>
        <time>2019-05-24T08:38:11Z</time>
      </trkpt>
      <trkpt lat="40.63078" lon="-8.46882">
        <ele>24.17</ele>
        <time>2019-05-24T08:38:15Z</time>
      </trkpt>
      <trkpt lat="40.63087" lon="-8.46867">
        <ele>22.25</ele>
        <time>2019-05-24T08:38:29Z</time>
      </trkpt>
      <trkpt lat="40.631" lon="-8.46859">
        <ele>21.29</ele>
        <time>2019-05-24T08:38:41Z</time>
      </trkpt>
      <trkpt lat="40.63109" lon="-8.46858">
        <ele>19.36</ele>
        <time>2019-05-24T08:38:53Z</time>
      </trkpt>
      <trkpt lat="40.63122" lon="-8.46857">
        <ele>17.44</ele>
        <time>2019-05-24T08:39:10Z</time>
      </trkpt>
      <trkpt lat="40.63123" lon="-8.46857">
        <ele>17.44</ele>
        <time>2019-05-24T08:39:11Z</time>
      </trkpt>
      <trkpt lat="40.63136" lon="-8.46851">
        <ele>14.56</ele>
        <time>2019-05-24T08:39:24Z</time>
      </trkpt>
      <trkpt lat="40.63141" lon="-8.46849">
        <ele>14.08</ele>
        <time>2019-05-24T08:39:28Z</time>
      </trkpt>
      <trkpt lat="40.63148" lon="-8.46847">
        <ele>13.6</ele>
        <time>2019-05-24T08:39:40Z</time>
      </trkpt>
      <trkpt lat="40.63162" lon="-8.46841">
        <ele>12.15</ele>
        <time>2019-05-24T08:39:57Z</time>
      </trkpt>
      <trkpt lat="40.63166" lon="-8.46838">
        <ele>12.63</ele>
        <time>2019-05-24T08:40:15Z</time>
      </trkpt>
      <trkpt lat="40.63171" lon="-8.46837">
        <ele>11.19</ele>
        <time>2019-05-24T08:40:34Z</time>
      </trkpt>
      <trkpt lat="40.63187" lon="-8.46847">
        <ele>11.67</ele>
        <time>2019-05-24T08:40:49Z</time>
      </trkpt>
      <trkpt lat="40.63194" lon="-8.4685">
        <ele>11.67</ele>
        <time>2019-05-24T08:41:04Z</time>
      </trkpt>
      <trkpt lat="40.63206" lon="-8.46855">
        <ele>11.19</ele>
        <time>2019-05-24T08:41:20Z</time>
      </trkpt>
      <trkpt lat="40.63207" lon="-8.46854">
        <ele>11.19</ele>
        <time>2019-05-24T08:41:48Z</time>
      </trkpt>
      <trkpt lat="40.63205" lon="-8.46855">
        <ele>11.19</ele>
        <time>2019-05-24T08:42:12Z</time>
      </trkpt>
      <trkpt lat="40.63205" lon="-8.46851">
        <ele>14.56</ele>
        <time>2019-05-24T08:42:29Z</time>
      </trkpt>
      <trkpt lat="40.63204" lon="-8.46851">
        <ele>11.19</ele>
        <time>2019-05-24T08:42:31Z</time>
      </trkpt>
      <trkpt lat="40.63202" lon="-8.4685">
        <ele>11.67</ele>
        <time>2019-05-24T08:43:08Z</time>
      </trkpt>
      <trkpt lat="40.63213" lon="-8.4686">
        <ele>11.19</ele>
        <time>2019-05-24T08:43:22Z</time>
      </trkpt>
      <trkpt lat="40.63214" lon="-8.4686">
        <ele>10.71</ele>
        <time>2019-05-24T08:43:23Z</time>
      </trkpt>
      <trkpt lat="40.63225" lon="-8.4687">
        <ele>11.19</ele>
        <time>2019-05-24T08:43:39Z</time>
      </trkpt>
      <trkpt lat="40.63238" lon="-8.46883">
        <ele>10.71</ele>
        <time>2019-05-24T08:43:53Z</time>
      </trkpt>
      <trkpt lat="40.63241" lon="-8.46888">
        <ele>11.19</ele>
        <time>2019-05-24T08:44:00Z</time>
      </trkpt>
      <trkpt lat="40.63249" lon="-8.46893">
        <ele>10.71</ele>
        <time>2019-05-24T08:44:08Z</time>
      </trkpt>
      <trkpt lat="40.63259" lon="-8.46904">
        <ele>10.71</ele>
        <time>2019-05-24T08:44:23Z</time>
      </trkpt>
      <trkpt lat="40.63272" lon="-8.46915">
        <ele>10.23</ele>
        <time>2019-05-24T08:44:36Z</time>
      </trkpt>
      <trkpt lat="40.63282" lon="-8.46922">
        <ele>10.71</ele>
        <time>2019-05-24T08:44:46Z</time>
      </trkpt>
      <trkpt lat="40.63286" lon="-8.46925">
        <ele>10.71</ele>
        <time>2019-05-24T08:44:50Z</time>
      </trkpt>
      <trkpt lat="40.63303" lon="-8.4694">
        <ele>11.19</ele>
        <time>2019-05-24T08:45:08Z</time>
      </trkpt>
      <trkpt lat="40.63311" lon="-8.46949">
        <ele>12.15</ele>
        <time>2019-05-24T08:45:23Z</time>
      </trkpt>
      <trkpt lat="40.63314" lon="-8.46948">
        <ele>11.19</ele>
        <time>2019-05-24T08:45:28Z</time>
      </trkpt>
      <trkpt lat="40.63319" lon="-8.4695">
        <ele>11.19</ele>
        <time>2019-05-24T08:45:32Z</time>
      </trkpt>
      <trkpt lat="40.63322" lon="-8.46952">
        <ele>10.23</ele>
        <time>2019-05-24T08:45:35Z</time>
      </trkpt>
      <trkpt lat="40.6334" lon="-8.46955">
        <ele>11.19</ele>
        <time>2019-05-24T08:45:50Z</time>
      </trkpt>
      <trkpt lat="40.63345" lon="-8.46958">
        <ele>11.67</ele>
        <time>2019-05-24T08:46:04Z</time>
      </trkpt>
      <trkpt lat="40.63361" lon="-8.46964">
        <ele>11.19</ele>
        <time>2019-05-24T08:46:19Z</time>
      </trkpt>
      <trkpt lat="40.63378" lon="-8.46977">
        <ele>10.71</ele>
        <time>2019-05-24T08:46:35Z</time>
      </trkpt>
      <trkpt lat="40.63387" lon="-8.46985">
        <ele>9.75</ele>
        <time>2019-05-24T08:46:43Z</time>
      </trkpt>
      <trkpt lat="40.63398" lon="-8.4701">
        <ele>9.75</ele>
        <time>2019-05-24T08:47:00Z</time>
      </trkpt>
      <trkpt lat="40.63399" lon="-8.4702">
        <ele>11.19</ele>
        <time>2019-05-24T08:47:08Z</time>
      </trkpt>
      <trkpt lat="40.63394" lon="-8.47029">
        <ele>10.71</ele>
        <time>2019-05-24T08:47:23Z</time>
      </trkpt>
      <trkpt lat="40.63393" lon="-8.47032">
        <ele>9.75</ele>
        <time>2019-05-24T08:47:28Z</time>
      </trkpt>
      <trkpt lat="40.63395" lon="-8.4704">
        <ele>9.75</ele>
        <time>2019-05-24T08:47:34Z</time>
      </trkpt>
      <trkpt lat="40.63396" lon="-8.47058">
        <ele>11.19</ele>
        <time>2019-05-24T08:47:52Z</time>
      </trkpt>
      <trkpt lat="40.63399" lon="-8.47075">
        <ele>11.19</ele>
        <time>2019-05-24T08:48:00Z</time>
      </trkpt>
      <trkpt lat="40.63405" lon="-8.47095">
        <ele>12.15</ele>
        <time>2019-05-24T08:48:13Z</time>
      </trkpt>
      <trkpt lat="40.63417" lon="-8.47102">
        <ele>13.6</ele>
        <time>2019-05-24T08:48:28Z</time>
      </trkpt>
      <trkpt lat="40.63433" lon="-8.47103">
        <ele>15.04</ele>
        <time>2019-05-24T08:48:43Z</time>
      </trkpt>
      <trkpt lat="40.63434" lon="-8.47102">
        <ele>15.04</ele>
        <time>2019-05-24T08:48:44Z</time>
      </trkpt>
      <trkpt lat="40.63446" lon="-8.47089">
        <ele>16</ele>
        <time>2019-05-24T08:49:01Z</time>
      </trkpt>
      <trkpt lat="40.63459" lon="-8.47085">
        <ele>18.4</ele>
        <time>2019-05-24T08:49:15Z</time>
      </trkpt>
      <trkpt lat="40.63474" lon="-8.47085">
        <ele>19.84</ele>
        <time>2019-05-24T08:49:31Z</time>
      </trkpt>
      <trkpt lat="40.6349" lon="-8.47087">
        <ele>21.77</ele>
        <time>2019-05-24T08:49:50Z</time>
      </trkpt>
      <trkpt lat="40.63504" lon="-8.47089">
        <ele>24.65</ele>
        <time>2019-05-24T08:50:08Z</time>
      </trkpt>
      <trkpt lat="40.6352" lon="-8.47092">
        <ele>26.09</ele>
        <time>2019-05-24T08:50:24Z</time>
      </trkpt>
      <trkpt lat="40.63534" lon="-8.47094">
        <ele>27.53</ele>
        <time>2019-05-24T08:50:41Z</time>
      </trkpt>
      <trkpt lat="40.63546" lon="-8.47097">
        <ele>28.5</ele>
        <time>2019-05-24T08:50:56Z</time>
      </trkpt>
      <trkpt lat="40.63557" lon="-8.47098">
        <ele>29.46</ele>
        <time>2019-05-24T08:51:07Z</time>
      </trkpt>
      <trkpt lat="40.6356" lon="-8.47098">
        <ele>30.42</ele>
        <time>2019-05-24T08:51:21Z</time>
      </trkpt>
      <trkpt lat="40.63566" lon="-8.47099">
        <ele>29.46</ele>
        <time>2019-05-24T08:51:31Z</time>
      </trkpt>
      <trkpt lat="40.63586" lon="-8.47103">
        <ele>28.5</ele>
        <time>2019-05-24T08:51:48Z</time>
      </trkpt>
      <trkpt lat="40.63589" lon="-8.47102">
        <ele>27.53</ele>
        <time>2019-05-24T08:51:50Z</time>
      </trkpt>
      <trkpt lat="40.63592" lon="-8.47102">
        <ele>28.02</ele>
        <time>2019-05-24T08:51:53Z</time>
      </trkpt>
      <trkpt lat="40.63602" lon="-8.47104">
        <ele>27.05</ele>
        <time>2019-05-24T08:52:01Z</time>
      </trkpt>
      <trkpt lat="40.63617" lon="-8.47107">
        <ele>25.61</ele>
        <time>2019-05-24T08:52:12Z</time>
      </trkpt>
      <trkpt lat="40.63637" lon="-8.4711">
        <ele>25.61</ele>
        <time>2019-05-24T08:52:28Z</time>
      </trkpt>
      <trkpt lat="40.63653" lon="-8.47111">
        <ele>25.13</ele>
        <time>2019-05-24T08:52:41Z</time>
      </trkpt>
      <trkpt lat="40.63662" lon="-8.47107">
        <ele>25.13</ele>
        <time>2019-05-24T08:52:49Z</time>
      </trkpt>
      <trkpt lat="40.63671" lon="-8.47095">
        <ele>25.13</ele>
        <time>2019-05-24T08:53:03Z</time>
      </trkpt>
      <trkpt lat="40.63673" lon="-8.47091">
        <ele>24.65</ele>
        <time>2019-05-24T08:53:06Z</time>
      </trkpt>
      <trkpt lat="40.63679" lon="-8.47074">
        <ele>25.13</ele>
        <time>2019-05-24T08:53:18Z</time>
      </trkpt>
      <trkpt lat="40.63689" lon="-8.47047">
        <ele>24.17</ele>
        <time>2019-05-24T08:53:36Z</time>
      </trkpt>
      <trkpt lat="40.63699" lon="-8.47041">
        <ele>24.17</ele>
        <time>2019-05-24T08:53:46Z</time>
      </trkpt>
      <trkpt lat="40.63718" lon="-8.47026">
        <ele>24.17</ele>
        <time>2019-05-24T08:53:50Z</time>
      </trkpt>
      <trkpt lat="40.63735" lon="-8.47017">
        <ele>25.61</ele>
        <time>2019-05-24T08:54:05Z</time>
      </trkpt>
      <trkpt lat="40.63747" lon="-8.47008">
        <ele>25.61</ele>
        <time>2019-05-24T08:54:17Z</time>
      </trkpt>
      <trkpt lat="40.63763" lon="-8.46999">
        <ele>25.13</ele>
        <time>2019-05-24T08:54:32Z</time>
      </trkpt>
      <trkpt lat="40.63779" lon="-8.46991">
        <ele>26.57</ele>
        <time>2019-05-24T08:54:45Z</time>
      </trkpt>
      <trkpt lat="40.63795" lon="-8.46983">
        <ele>26.57</ele>
        <time>2019-05-24T08:55:00Z</time>
      </trkpt>
      <trkpt lat="40.63813" lon="-8.46974">
        <ele>26.09</ele>
        <time>2019-05-24T08:55:15Z</time>
      </trkpt>
      <trkpt lat="40.63833" lon="-8.46962">
        <ele>26.09</ele>
        <time>2019-05-24T08:55:34Z</time>
      </trkpt>
      <trkpt lat="40.63852" lon="-8.46952">
        <ele>26.57</ele>
        <time>2019-05-24T08:55:48Z</time>
      </trkpt>
      <trkpt lat="40.63871" lon="-8.46942">
        <ele>26.57</ele>
        <time>2019-05-24T08:56:05Z</time>
      </trkpt>
      <trkpt lat="40.63886" lon="-8.46935">
        <ele>27.05</ele>
        <time>2019-05-24T08:56:22Z</time>
      </trkpt>
      <trkpt lat="40.63887" lon="-8.46935">
        <ele>26.57</ele>
        <time>2019-05-24T08:56:37Z</time>
      </trkpt>
      <trkpt lat="40.63896" lon="-8.46929">
        <ele>26.57</ele>
        <time>2019-05-24T08:56:56Z</time>
      </trkpt>
      <trkpt lat="40.63911" lon="-8.4692">
        <ele>27.53</ele>
        <time>2019-05-24T08:57:12Z</time>
      </trkpt>
      <trkpt lat="40.6392" lon="-8.46915">
        <ele>27.05</ele>
        <time>2019-05-24T08:57:24Z</time>
      </trkpt>
      <trkpt lat="40.63936" lon="-8.46905">
        <ele>28.02</ele>
        <time>2019-05-24T08:57:40Z</time>
      </trkpt>
      <trkpt lat="40.6395" lon="-8.46899">
        <ele>27.05</ele>
        <time>2019-05-24T08:57:54Z</time>
      </trkpt>
      <trkpt lat="40.63968" lon="-8.4689">
        <ele>27.05</ele>
        <time>2019-05-24T08:58:10Z</time>
      </trkpt>
      <trkpt lat="40.63982" lon="-8.46881">
        <ele>27.53</ele>
        <time>2019-05-24T08:58:23Z</time>
      </trkpt>
      <trkpt lat="40.63997" lon="-8.46874">
        <ele>26.57</ele>
        <time>2019-05-24T08:58:37Z</time>
      </trkpt>
      <trkpt lat="40.64015" lon="-8.46864">
        <ele>27.05</ele>
        <time>2019-05-24T08:58:54Z</time>
      </trkpt>
      <trkpt lat="40.64032" lon="-8.46856">
        <ele>27.53</ele>
        <time>2019-05-24T08:59:09Z</time>
      </trkpt>
      <trkpt lat="40.64054" lon="-8.46848">
        <ele>26.57</ele>
        <time>2019-05-24T08:59:25Z</time>
      </trkpt>
      <trkpt lat="40.64057" lon="-8.46846">
        <ele>27.05</ele>
        <time>2019-05-24T08:59:44Z</time>
      </trkpt>
      <trkpt lat="40.64052" lon="-8.46848">
        <ele>26.57</ele>
        <time>2019-05-24T08:59:58Z</time>
      </trkpt>
      <trkpt lat="40.64053" lon="-8.46848">
        <ele>26.57</ele>
        <time>2019-05-24T09:00:18Z</time>
      </trkpt>
      <trkpt lat="40.64062" lon="-8.46843">
        <ele>26.57</ele>
        <time>2019-05-24T09:00:30Z</time>
      </trkpt>
      <trkpt lat="40.64078" lon="-8.46834">
        <ele>26.57</ele>
        <time>2019-05-24T09:00:46Z</time>
      </trkpt>
      <trkpt lat="40.64094" lon="-8.46826">
        <ele>27.05</ele>
        <time>2019-05-24T09:01:00Z</time>
      </trkpt>
      <trkpt lat="40.64113" lon="-8.46818">
        <ele>27.53</ele>
        <time>2019-05-24T09:01:16Z</time>
      </trkpt>
      <trkpt lat="40.64135" lon="-8.46807">
        <ele>26.09</ele>
        <time>2019-05-24T09:01:33Z</time>
      </trkpt>
      <trkpt lat="40.64152" lon="-8.46797">
        <ele>27.05</ele>
        <time>2019-05-24T09:01:48Z</time>
      </trkpt>
      <trkpt lat="40.64169" lon="-8.46787">
        <ele>27.53</ele>
        <time>2019-05-24T09:02:04Z</time>
      </trkpt>
      <trkpt lat="40.64185" lon="-8.4678">
        <ele>26.57</ele>
        <time>2019-05-24T09:02:18Z</time>
      </trkpt>
      <trkpt lat="40.64205" lon="-8.46771">
        <ele>27.05</ele>
        <time>2019-05-24T09:02:35Z</time>
      </trkpt>
      <trkpt lat="40.64225" lon="-8.46761">
        <ele>27.53</ele>
        <time>2019-05-24T09:02:52Z</time>
      </trkpt>
      <trkpt lat="40.64226" lon="-8.4676">
        <ele>26.57</ele>
        <time>2019-05-24T09:02:53Z</time>
      </trkpt>
      <trkpt lat="40.64241" lon="-8.46752">
        <ele>27.05</ele>
        <time>2019-05-24T09:03:06Z</time>
      </trkpt>
      <trkpt lat="40.6426" lon="-8.46743">
        <ele>27.05</ele>
        <time>2019-05-24T09:03:22Z</time>
      </trkpt>
      <trkpt lat="40.64279" lon="-8.46733">
        <ele>27.05</ele>
        <time>2019-05-24T09:03:38Z</time>
      </trkpt>
      <trkpt lat="40.64297" lon="-8.46725">
        <ele>26.57</ele>
        <time>2019-05-24T09:03:53Z</time>
      </trkpt>
      <trkpt lat="40.64314" lon="-8.46716">
        <ele>28.02</ele>
        <time>2019-05-24T09:04:09Z</time>
      </trkpt>
      <trkpt lat="40.64334" lon="-8.46707">
        <ele>27.05</ele>
        <time>2019-05-24T09:04:26Z</time>
      </trkpt>
      <trkpt lat="40.64352" lon="-8.46698">
        <ele>27.05</ele>
        <time>2019-05-24T09:04:41Z</time>
      </trkpt>
      <trkpt lat="40.64374" lon="-8.46685">
        <ele>27.05</ele>
        <time>2019-05-24T09:04:58Z</time>
      </trkpt>
      <trkpt lat="40.64394" lon="-8.46675">
        <ele>26.57</ele>
        <time>2019-05-24T09:05:15Z</time>
      </trkpt>
      <trkpt lat="40.64413" lon="-8.46666">
        <ele>27.53</ele>
        <time>2019-05-24T09:05:31Z</time>
      </trkpt>
      <trkpt lat="40.64432" lon="-8.46658">
        <ele>27.53</ele>
        <time>2019-05-24T09:05:47Z</time>
      </trkpt>
      <trkpt lat="40.64451" lon="-8.46649">
        <ele>27.53</ele>
        <time>2019-05-24T09:06:04Z</time>
      </trkpt>
      <trkpt lat="40.6447" lon="-8.46644">
        <ele>28.02</ele>
        <time>2019-05-24T09:06:21Z</time>
      </trkpt>
      <trkpt lat="40.6449" lon="-8.46636">
        <ele>27.53</ele>
        <time>2019-05-24T09:06:38Z</time>
      </trkpt>
      <trkpt lat="40.6451" lon="-8.46629">
        <ele>28.02</ele>
        <time>2019-05-24T09:06:55Z</time>
      </trkpt>
      <trkpt lat="40.64521" lon="-8.46625">
        <ele>28.5</ele>
        <time>2019-05-24T09:07:05Z</time>
      </trkpt>
      <trkpt lat="40.64541" lon="-8.46619">
        <ele>28.02</ele>
        <time>2019-05-24T09:07:22Z</time>
      </trkpt>
      <trkpt lat="40.64559" lon="-8.46613">
        <ele>28.02</ele>
        <time>2019-05-24T09:07:37Z</time>
      </trkpt>
      <trkpt lat="40.64577" lon="-8.46608">
        <ele>28.98</ele>
        <time>2019-05-24T09:07:52Z</time>
      </trkpt>
      <trkpt lat="40.64594" lon="-8.46603">
        <ele>28.5</ele>
        <time>2019-05-24T09:08:07Z</time>
      </trkpt>
      <trkpt lat="40.64612" lon="-8.46597">
        <ele>28.98</ele>
        <time>2019-05-24T09:08:22Z</time>
      </trkpt>
      <trkpt lat="40.64623" lon="-8.46594">
        <ele>29.46</ele>
        <time>2019-05-24T09:08:32Z</time>
      </trkpt>
      <trkpt lat="40.64642" lon="-8.46599">
        <ele>29.46</ele>
        <time>2019-05-24T09:08:50Z</time>
      </trkpt>
      <trkpt lat="40.64655" lon="-8.4661">
        <ele>32.34</ele>
        <time>2019-05-24T09:09:06Z</time>
      </trkpt>
      <trkpt lat="40.64662" lon="-8.46618">
        <ele>33.78</ele>
        <time>2019-05-24T09:09:18Z</time>
      </trkpt>
      <trkpt lat="40.64669" lon="-8.46626">
        <ele>35.23</ele>
        <time>2019-05-24T09:09:33Z</time>
      </trkpt>
      <trkpt lat="40.64674" lon="-8.46625">
        <ele>35.71</ele>
        <time>2019-05-24T09:09:48Z</time>
      </trkpt>
      <trkpt lat="40.64678" lon="-8.46629">
        <ele>36.19</ele>
        <time>2019-05-24T09:10:02Z</time>
      </trkpt>
      <trkpt lat="40.64678" lon="-8.46627">
        <ele>36.19</ele>
        <time>2019-05-24T09:10:31Z</time>
      </trkpt>
      <trkpt lat="40.64677" lon="-8.46628">
        <ele>36.19</ele>
        <time>2019-05-24T09:10:50Z</time>
      </trkpt>
      <trkpt lat="40.64681" lon="-8.4664">
        <ele>36.67</ele>
        <time>2019-05-24T09:11:03Z</time>
      </trkpt>
      <trkpt lat="40.64679" lon="-8.46655">
        <ele>38.59</ele>
        <time>2019-05-24T09:11:14Z</time>
      </trkpt>
      <trkpt lat="40.64678" lon="-8.4667">
        <ele>40.03</ele>
        <time>2019-05-24T09:11:28Z</time>
      </trkpt>
      <trkpt lat="40.6468" lon="-8.4669">
        <ele>40.99</ele>
        <time>2019-05-24T09:11:42Z</time>
      </trkpt>
      <trkpt lat="40.64683" lon="-8.46703">
        <ele>42.92</ele>
        <time>2019-05-24T09:11:55Z</time>
      </trkpt>
      <trkpt lat="40.64687" lon="-8.46715">
        <ele>43.88</ele>
        <time>2019-05-24T09:12:08Z</time>
      </trkpt>
      <trkpt lat="40.64695" lon="-8.46728">
        <ele>44.84</ele>
        <time>2019-05-24T09:12:23Z</time>
      </trkpt>
      <trkpt lat="40.64705" lon="-8.46737">
        <ele>45.8</ele>
        <time>2019-05-24T09:12:37Z</time>
      </trkpt>
      <trkpt lat="40.64717" lon="-8.46747">
        <ele>45.8</ele>
        <time>2019-05-24T09:12:51Z</time>
      </trkpt>
      <trkpt lat="40.64725" lon="-8.46762">
        <ele>47.72</ele>
        <time>2019-05-24T09:13:03Z</time>
      </trkpt>
      <trkpt lat="40.64736" lon="-8.46781">
        <ele>48.2</ele>
        <time>2019-05-24T09:13:19Z</time>
      </trkpt>
      <trkpt lat="40.64746" lon="-8.46793">
        <ele>49.16</ele>
        <time>2019-05-24T09:13:32Z</time>
      </trkpt>
      <trkpt lat="40.64762" lon="-8.46808">
        <ele>50.13</ele>
        <time>2019-05-24T09:13:50Z</time>
      </trkpt>
      <trkpt lat="40.64764" lon="-8.46809">
        <ele>49.65</ele>
        <time>2019-05-24T09:13:52Z</time>
      </trkpt>
      <trkpt lat="40.64776" lon="-8.46813">
        <ele>50.13</ele>
        <time>2019-05-24T09:14:06Z</time>
      </trkpt>
      <trkpt lat="40.64778" lon="-8.46811">
        <ele>51.09</ele>
        <time>2019-05-24T09:14:09Z</time>
      </trkpt>
      <trkpt lat="40.64788" lon="-8.468">
        <ele>54.93</ele>
        <time>2019-05-24T09:14:22Z</time>
      </trkpt>
      <trkpt lat="40.64797" lon="-8.46788">
        <ele>55.41</ele>
        <time>2019-05-24T09:14:35Z</time>
      </trkpt>
      <trkpt lat="40.64804" lon="-8.46773">
        <ele>56.86</ele>
        <time>2019-05-24T09:14:48Z</time>
      </trkpt>
      <trkpt lat="40.64811" lon="-8.46762">
        <ele>57.82</ele>
        <time>2019-05-24T09:15:02Z</time>
      </trkpt>
      <trkpt lat="40.64823" lon="-8.46751">
        <ele>60.22</ele>
        <time>2019-05-24T09:15:17Z</time>
      </trkpt>
      <trkpt lat="40.64834" lon="-8.46741">
        <ele>61.66</ele>
        <time>2019-05-24T09:15:34Z</time>
      </trkpt>
      <trkpt lat="40.64843" lon="-8.46733">
        <ele>63.1</ele>
        <time>2019-05-24T09:15:48Z</time>
      </trkpt>
      <trkpt lat="40.64851" lon="-8.46724">
        <ele>64.07</ele>
        <time>2019-05-24T09:16:02Z</time>
      </trkpt>
      <trkpt lat="40.6486" lon="-8.46714">
        <ele>65.51</ele>
        <time>2019-05-24T09:16:16Z</time>
      </trkpt>
      <trkpt lat="40.6487" lon="-8.46704">
        <ele>67.43</ele>
        <time>2019-05-24T09:16:31Z</time>
      </trkpt>
      <trkpt lat="40.64883" lon="-8.46694">
        <ele>68.87</ele>
        <time>2019-05-24T09:16:47Z</time>
      </trkpt>
      <trkpt lat="40.64893" lon="-8.46685">
        <ele>70.79</ele>
        <time>2019-05-24T09:17:01Z</time>
      </trkpt>
      <trkpt lat="40.64904" lon="-8.46677">
        <ele>72.72</ele>
        <time>2019-05-24T09:17:17Z</time>
      </trkpt>
      <trkpt lat="40.64911" lon="-8.46673">
        <ele>72.72</ele>
        <time>2019-05-24T09:17:26Z</time>
      </trkpt>
      <trkpt lat="40.6493" lon="-8.46673">
        <ele>74.16</ele>
        <time>2019-05-24T09:17:45Z</time>
      </trkpt>
      <trkpt lat="40.64942" lon="-8.46673">
        <ele>75.6</ele>
        <time>2019-05-24T09:17:58Z</time>
      </trkpt>
      <trkpt lat="40.64959" lon="-8.46677">
        <ele>76.56</ele>
        <time>2019-05-24T09:18:15Z</time>
      </trkpt>
      <trkpt lat="40.64972" lon="-8.46678">
        <ele>78.48</ele>
        <time>2019-05-24T09:18:29Z</time>
      </trkpt>
      <trkpt lat="40.64986" lon="-8.4668">
        <ele>79.93</ele>
        <time>2019-05-24T09:18:43Z</time>
      </trkpt>
      <trkpt lat="40.64997" lon="-8.4668">
        <ele>80.41</ele>
        <time>2019-05-24T09:18:56Z</time>
      </trkpt>
      <trkpt lat="40.64999" lon="-8.4668">
        <ele>81.37</ele>
        <time>2019-05-24T09:18:58Z</time>
      </trkpt>
      <trkpt lat="40.65004" lon="-8.46683">
        <ele>81.37</ele>
        <time>2019-05-24T09:19:02Z</time>
      </trkpt>
      <trkpt lat="40.65018" lon="-8.46687">
        <ele>82.33</ele>
        <time>2019-05-24T09:19:17Z</time>
      </trkpt>
      <trkpt lat="40.65019" lon="-8.46687">
        <ele>82.33</ele>
        <time>2019-05-24T09:19:18Z</time>
      </trkpt>
      <trkpt lat="40.6503" lon="-8.46692">
        <ele>83.29</ele>
        <time>2019-05-24T09:19:28Z</time>
      </trkpt>
      <trkpt lat="40.65046" lon="-8.46702">
        <ele>83.77</ele>
        <time>2019-05-24T09:19:43Z</time>
      </trkpt>
      <trkpt lat="40.65062" lon="-8.46711">
        <ele>83.77</ele>
        <time>2019-05-24T09:19:56Z</time>
      </trkpt>
      <trkpt lat="40.65075" lon="-8.46718">
        <ele>85.21</ele>
        <time>2019-05-24T09:20:10Z</time>
      </trkpt>
      <trkpt lat="40.6509" lon="-8.46725">
        <ele>85.69</ele>
        <time>2019-05-24T09:20:24Z</time>
      </trkpt>
      <trkpt lat="40.65109" lon="-8.46728">
        <ele>86.18</ele>
        <time>2019-05-24T09:20:40Z</time>
      </trkpt>
      <trkpt lat="40.65125" lon="-8.46738">
        <ele>87.14</ele>
        <time>2019-05-24T09:20:55Z</time>
      </trkpt>
      <trkpt lat="40.65126" lon="-8.46744">
        <ele>87.14</ele>
        <time>2019-05-24T09:21:22Z</time>
      </trkpt>
      <trkpt lat="40.65132" lon="-8.46751">
        <ele>88.1</ele>
        <time>2019-05-24T09:21:34Z</time>
      </trkpt>
      <trkpt lat="40.65147" lon="-8.46758">
        <ele>88.58</ele>
        <time>2019-05-24T09:21:49Z</time>
      </trkpt>
      <trkpt lat="40.65159" lon="-8.46766">
        <ele>89.54</ele>
        <time>2019-05-24T09:22:03Z</time>
      </trkpt>
      <trkpt lat="40.65174" lon="-8.46776">
        <ele>90.02</ele>
        <time>2019-05-24T09:22:18Z</time>
      </trkpt>
      <trkpt lat="40.65187" lon="-8.46788">
        <ele>90.02</ele>
        <time>2019-05-24T09:22:32Z</time>
      </trkpt>
      <trkpt lat="40.65199" lon="-8.46797">
        <ele>90.5</ele>
        <time>2019-05-24T09:22:45Z</time>
      </trkpt>
      <trkpt lat="40.65216" lon="-8.46811">
        <ele>90.98</ele>
        <time>2019-05-24T09:23:00Z</time>
      </trkpt>
      <trkpt lat="40.65229" lon="-8.46824">
        <ele>90.98</ele>
        <time>2019-05-24T09:23:15Z</time>
      </trkpt>
      <trkpt lat="40.65245" lon="-8.46836">
        <ele>90.98</ele>
        <time>2019-05-24T09:23:29Z</time>
      </trkpt>
      <trkpt lat="40.65256" lon="-8.46844">
        <ele>91.46</ele>
        <time>2019-05-24T09:23:43Z</time>
      </trkpt>
      <trkpt lat="40.65261" lon="-8.4685">
        <ele>91.94</ele>
        <time>2019-05-24T09:23:50Z</time>
      </trkpt>
      <trkpt lat="40.65275" lon="-8.4686">
        <ele>91.94</ele>
        <time>2019-05-24T09:24:04Z</time>
      </trkpt>
      <trkpt lat="40.65278" lon="-8.46862">
        <ele>91.94</ele>
        <time>2019-05-24T09:24:07Z</time>
      </trkpt>
      <trkpt lat="40.65286" lon="-8.46877">
        <ele>91.46</ele>
        <time>2019-05-24T09:24:20Z</time>
      </trkpt>
      <trkpt lat="40.65298" lon="-8.46888">
        <ele>91.94</ele>
        <time>2019-05-24T09:24:32Z</time>
      </trkpt>
      <trkpt lat="40.65314" lon="-8.469">
        <ele>92.42</ele>
        <time>2019-05-24T09:24:48Z</time>
      </trkpt>
      <trkpt lat="40.65326" lon="-8.46909">
        <ele>91.94</ele>
        <time>2019-05-24T09:25:00Z</time>
      </trkpt>
      <trkpt lat="40.65345" lon="-8.46921">
        <ele>92.42</ele>
        <time>2019-05-24T09:25:17Z</time>
      </trkpt>
      <trkpt lat="40.6536" lon="-8.46932">
        <ele>92.9</ele>
        <time>2019-05-24T09:25:32Z</time>
      </trkpt>
      <trkpt lat="40.65375" lon="-8.46941">
        <ele>93.39</ele>
        <time>2019-05-24T09:25:47Z</time>
      </trkpt>
      <trkpt lat="40.65387" lon="-8.46949">
        <ele>93.39</ele>
        <time>2019-05-24T09:26:00Z</time>
      </trkpt>
      <trkpt lat="40.65394" lon="-8.46955">
        <ele>93.39</ele>
        <time>2019-05-24T09:26:12Z</time>
      </trkpt>
      <trkpt lat="40.65402" lon="-8.46962">
        <ele>93.39</ele>
        <time>2019-05-24T09:26:24Z</time>
      </trkpt>
      <trkpt lat="40.65405" lon="-8.46965">
        <ele>93.39</ele>
        <time>2019-05-24T09:26:28Z</time>
      </trkpt>
      <trkpt lat="40.65407" lon="-8.46966">
        <ele>93.39</ele>
        <time>2019-05-24T09:26:30Z</time>
      </trkpt>
      <trkpt lat="40.65411" lon="-8.46971">
        <ele>93.39</ele>
        <time>2019-05-24T09:26:34Z</time>
      </trkpt>
      <trkpt lat="40.65418" lon="-8.46977">
        <ele>93.87</ele>
        <time>2019-05-24T09:26:40Z</time>
      </trkpt>
      <trkpt lat="40.65433" lon="-8.46986">
        <ele>92.9</ele>
        <time>2019-05-24T09:26:55Z</time>
      </trkpt>
      <trkpt lat="40.6544" lon="-8.46988">
        <ele>94.35</ele>
        <time>2019-05-24T09:27:09Z</time>
      </trkpt>
      <trkpt lat="40.65442" lon="-8.46987">
        <ele>93.87</ele>
        <time>2019-05-24T09:27:33Z</time>
      </trkpt>
      <trkpt lat="40.65443" lon="-8.46987">
        <ele>93.39</ele>
        <time>2019-05-24T09:27:52Z</time>
      </trkpt>
      <trkpt lat="40.65445" lon="-8.46986">
        <ele>90.5</ele>
        <time>2019-05-24T09:28:20Z</time>
      </trkpt>
      <trkpt lat="40.65445" lon="-8.46986">
        <ele>95.79</ele>
        <time>2019-05-24T09:28:21Z</time>
      </trkpt>
      <trkpt lat="40.65445" lon="-8.46987">
        <ele>93.87</ele>
        <time>2019-05-24T09:28:38Z</time>
      </trkpt>
      <trkpt lat="40.65445" lon="-8.46989">
        <ele>93.87</ele>
        <time>2019-05-24T09:29:12Z</time>
      </trkpt>
      <trkpt lat="40.65443" lon="-8.4699">
        <ele>94.35</ele>
        <time>2019-05-24T09:29:39Z</time>
      </trkpt>
      <trkpt lat="40.65442" lon="-8.46989">
        <ele>94.35</ele>
        <time>2019-05-24T09:30:01Z</time>
      </trkpt>
      <trkpt lat="40.65442" lon="-8.46989">
        <ele>94.35</ele>
        <time>2019-05-24T09:30:20Z</time>
      </trkpt>
      <trkpt lat="40.65445" lon="-8.46989">
        <ele>94.35</ele>
        <time>2019-05-24T09:30:41Z</time>
      </trkpt>
      <trkpt lat="40.65446" lon="-8.46988">
        <ele>94.83</ele>
        <time>2019-05-24T09:31:05Z</time>
      </trkpt>
      <trkpt lat="40.65445" lon="-8.46988">
        <ele>94.83</ele>
        <time>2019-05-24T09:31:34Z</time>
      </trkpt>
      <trkpt lat="40.65446" lon="-8.46988">
        <ele>94.83</ele>
        <time>2019-05-24T09:31:53Z</time>
      </trkpt>
      <trkpt lat="40.65444" lon="-8.46988">
        <ele>95.31</ele>
        <time>2019-05-24T09:32:13Z</time>
      </trkpt>
      <trkpt lat="40.6544" lon="-8.46988">
        <ele>94.83</ele>
        <time>2019-05-24T09:32:33Z</time>
      </trkpt>
      <trkpt lat="40.65446" lon="-8.46989">
        <ele>95.31</ele>
        <time>2019-05-24T09:32:57Z</time>
      </trkpt>
      <trkpt lat="40.65451" lon="-8.46988">
        <ele>95.31</ele>
        <time>2019-05-24T09:33:17Z</time>
      </trkpt>
      <trkpt lat="40.65447" lon="-8.4699">
        <ele>95.79</ele>
        <time>2019-05-24T09:33:45Z</time>
      </trkpt>
      <trkpt lat="40.65443" lon="-8.46993">
        <ele>95.31</ele>
        <time>2019-05-24T09:34:07Z</time>
      </trkpt>
      <trkpt lat="40.65445" lon="-8.46991">
        <ele>95.31</ele>
        <time>2019-05-24T09:34:30Z</time>
      </trkpt>
      <trkpt lat="40.65445" lon="-8.4699">
        <ele>94.83</ele>
        <time>2019-05-24T09:34:54Z</time>
      </trkpt>
      <trkpt lat="40.65442" lon="-8.46989">
        <ele>95.31</ele>
        <time>2019-05-24T09:35:19Z</time>
      </trkpt>
      <trkpt lat="40.65442" lon="-8.46987">
        <ele>94.83</ele>
        <time>2019-05-24T09:35:41Z</time>
      </trkpt>
      <trkpt lat="40.65442" lon="-8.46987">
        <ele>95.31</ele>
        <time>2019-05-24T09:35:55Z</time>
      </trkpt>
      <trkpt lat="40.65443" lon="-8.46987">
        <ele>94.83</ele>
        <time>2019-05-24T09:36:16Z</time>
      </trkpt>
      <trkpt lat="40.65445" lon="-8.46988">
        <ele>94.35</ele>
        <time>2019-05-24T09:36:41Z</time>
      </trkpt>
      <trkpt lat="40.65446" lon="-8.46988">
        <ele>94.83</ele>
        <time>2019-05-24T09:37:00Z</time>
      </trkpt>
      <trkpt lat="40.65448" lon="-8.4699">
        <ele>94.83</ele>
        <time>2019-05-24T09:37:28Z</time>
      </trkpt>
      <trkpt lat="40.65449" lon="-8.46988">
        <ele>95.31</ele>
        <time>2019-05-24T09:37:54Z</time>
      </trkpt>
      <trkpt lat="40.65449" lon="-8.46988">
        <ele>95.31</ele>
        <time>2019-05-24T09:38:16Z</time>
      </trkpt>
      <trkpt lat="40.6545" lon="-8.46986">
        <ele>94.83</ele>
        <time>2019-05-24T09:38:33Z</time>
      </trkpt>
      <trkpt lat="40.65447" lon="-8.46987">
        <ele>95.31</ele>
        <time>2019-05-24T09:39:00Z</time>
      </trkpt>
      <trkpt lat="40.65447" lon="-8.46989">
        <ele>95.31</ele>
        <time>2019-05-24T09:39:23Z</time>
      </trkpt>
      <trkpt lat="40.65448" lon="-8.46989">
        <ele>95.31</ele>
        <time>2019-05-24T09:39:46Z</time>
      </trkpt>
      <trkpt lat="40.65447" lon="-8.46989">
        <ele>95.79</ele>
        <time>2019-05-24T09:40:08Z</time>
      </trkpt>
      <trkpt lat="40.65444" lon="-8.4699">
        <ele>94.83</ele>
        <time>2019-05-24T09:40:32Z</time>
      </trkpt>
      <trkpt lat="40.65444" lon="-8.46988">
        <ele>94.83</ele>
        <time>2019-05-24T09:40:55Z</time>
      </trkpt>
      <trkpt lat="40.65444" lon="-8.46988">
        <ele>95.31</ele>
        <time>2019-05-24T09:41:21Z</time>
      </trkpt>
      <trkpt lat="40.65444" lon="-8.46991">
        <ele>95.31</ele>
        <time>2019-05-24T09:41:43Z</time>
      </trkpt>
      <trkpt lat="40.65444" lon="-8.46991">
        <ele>95.79</ele>
        <time>2019-05-24T09:42:02Z</time>
      </trkpt>
      <trkpt lat="40.65446" lon="-8.4699">
        <ele>95.79</ele>
        <time>2019-05-24T09:42:26Z</time>
      </trkpt>
      <trkpt lat="40.65447" lon="-8.46991">
        <ele>96.27</ele>
        <time>2019-05-24T09:42:44Z</time>
      </trkpt>
      <trkpt lat="40.65446" lon="-8.46991">
        <ele>96.75</ele>
        <time>2019-05-24T09:43:00Z</time>
      </trkpt>
      <trkpt lat="40.65444" lon="-8.46992">
        <ele>96.75</ele>
        <time>2019-05-24T09:43:21Z</time>
      </trkpt>
      <trkpt lat="40.65443" lon="-8.46992">
        <ele>96.75</ele>
        <time>2019-05-24T09:43:44Z</time>
      </trkpt>
      <trkpt lat="40.65445" lon="-8.46991">
        <ele>96.75</ele>
        <time>2019-05-24T09:44:05Z</time>
      </trkpt>
      <trkpt lat="40.65445" lon="-8.46991">
        <ele>97.23</ele>
        <time>2019-05-24T09:44:25Z</time>
      </trkpt>
      <trkpt lat="40.65444" lon="-8.46986">
        <ele>97.23</ele>
        <time>2019-05-24T09:44:52Z</time>
      </trkpt>
      <trkpt lat="40.65445" lon="-8.46986">
        <ele>96.75</ele>
        <time>2019-05-24T09:45:11Z</time>
      </trkpt>
      <trkpt lat="40.65444" lon="-8.46985">
        <ele>97.23</ele>
        <time>2019-05-24T09:45:40Z</time>
      </trkpt>
      <trkpt lat="40.65444" lon="-8.46986">
        <ele>97.23</ele>
        <time>2019-05-24T09:45:56Z</time>
      </trkpt>
      <trkpt lat="40.65442" lon="-8.46985">
        <ele>97.71</ele>
        <time>2019-05-24T09:46:07Z</time>
      </trkpt>
      <trkpt lat="40.65444" lon="-8.46985">
        <ele>97.71</ele>
        <time>2019-05-24T09:46:29Z</time>
      </trkpt>
      <trkpt lat="40.65442" lon="-8.46986">
        <ele>97.71</ele>
        <time>2019-05-24T09:46:47Z</time>
      </trkpt>
      <trkpt lat="40.65442" lon="-8.46986">
        <ele>97.71</ele>
        <time>2019-05-24T09:47:07Z</time>
      </trkpt>
      <trkpt lat="40.65443" lon="-8.46987">
        <ele>98.19</ele>
        <time>2019-05-24T09:47:22Z</time>
      </trkpt>
      <trkpt lat="40.65444" lon="-8.46987">
        <ele>97.71</ele>
        <time>2019-05-24T09:47:39Z</time>
      </trkpt>
      <trkpt lat="40.65445" lon="-8.46992">
        <ele>97.71</ele>
        <time>2019-05-24T09:47:56Z</time>
      </trkpt>
      <trkpt lat="40.65448" lon="-8.46998">
        <ele>97.71</ele>
        <time>2019-05-24T09:48:09Z</time>
      </trkpt>
      <trkpt lat="40.65452" lon="-8.47007">
        <ele>97.71</ele>
        <time>2019-05-24T09:48:16Z</time>
      </trkpt>
      <trkpt lat="40.65454" lon="-8.47012">
        <ele>97.71</ele>
        <time>2019-05-24T09:48:20Z</time>
      </trkpt>
      <trkpt lat="40.65458" lon="-8.47018">
        <ele>97.23</ele>
        <time>2019-05-24T09:48:25Z</time>
      </trkpt>
      <trkpt lat="40.65465" lon="-8.47022">
        <ele>97.71</ele>
        <time>2019-05-24T09:48:37Z</time>
      </trkpt>
      <trkpt lat="40.65468" lon="-8.47026">
        <ele>97.71</ele>
        <time>2019-05-24T09:48:42Z</time>
      </trkpt>
      <trkpt lat="40.6548" lon="-8.47037">
        <ele>98.67</ele>
        <time>2019-05-24T09:48:55Z</time>
      </trkpt>
      <trkpt lat="40.65492" lon="-8.47046">
        <ele>98.67</ele>
        <time>2019-05-24T09:49:07Z</time>
      </trkpt>
      <trkpt lat="40.65505" lon="-8.47056">
        <ele>98.19</ele>
        <time>2019-05-24T09:49:20Z</time>
      </trkpt>
      <trkpt lat="40.6551" lon="-8.47061">
        <ele>98.67</ele>
        <time>2019-05-24T09:49:33Z</time>
      </trkpt>
      <trkpt lat="40.65514" lon="-8.47064">
        <ele>98.19</ele>
        <time>2019-05-24T09:49:37Z</time>
      </trkpt>
      <trkpt lat="40.65529" lon="-8.47077">
        <ele>99.15</ele>
        <time>2019-05-24T09:49:53Z</time>
      </trkpt>
      <trkpt lat="40.65535" lon="-8.47082">
        <ele>99.63</ele>
        <time>2019-05-24T09:50:06Z</time>
      </trkpt>
      <trkpt lat="40.65539" lon="-8.47087">
        <ele>98.67</ele>
        <time>2019-05-24T09:50:13Z</time>
      </trkpt>
      <trkpt lat="40.65553" lon="-8.47096">
        <ele>99.63</ele>
        <time>2019-05-24T09:50:28Z</time>
      </trkpt>
      <trkpt lat="40.65563" lon="-8.47102">
        <ele>99.63</ele>
        <time>2019-05-24T09:50:39Z</time>
      </trkpt>
      <trkpt lat="40.65572" lon="-8.47109">
        <ele>99.63</ele>
        <time>2019-05-24T09:50:48Z</time>
      </trkpt>
      <trkpt lat="40.65583" lon="-8.47118">
        <ele>100.11</ele>
        <time>2019-05-24T09:51:02Z</time>
      </trkpt>
      <trkpt lat="40.65595" lon="-8.4713">
        <ele>101.08</ele>
        <time>2019-05-24T09:51:15Z</time>
      </trkpt>
      <trkpt lat="40.65608" lon="-8.47141">
        <ele>100.6</ele>
        <time>2019-05-24T09:51:29Z</time>
      </trkpt>
      <trkpt lat="40.6562" lon="-8.47149">
        <ele>101.08</ele>
        <time>2019-05-24T09:51:41Z</time>
      </trkpt>
      <trkpt lat="40.65627" lon="-8.4715">
        <ele>101.08</ele>
        <time>2019-05-24T09:51:53Z</time>
      </trkpt>
      <trkpt lat="40.65634" lon="-8.47157">
        <ele>101.08</ele>
        <time>2019-05-24T09:52:02Z</time>
      </trkpt>
      <trkpt lat="40.65652" lon="-8.47174">
        <ele>101.56</ele>
        <time>2019-05-24T09:52:20Z</time>
      </trkpt>
      <trkpt lat="40.65659" lon="-8.47182">
        <ele>101.56</ele>
        <time>2019-05-24T09:52:29Z</time>
      </trkpt>
      <trkpt lat="40.65671" lon="-8.47194">
        <ele>102.52</ele>
        <time>2019-05-24T09:52:41Z</time>
      </trkpt>
      <trkpt lat="40.65676" lon="-8.47199">
        <ele>103</ele>
        <time>2019-05-24T09:52:47Z</time>
      </trkpt>
      <trkpt lat="40.65683" lon="-8.47203">
        <ele>102.04</ele>
        <time>2019-05-24T09:53:00Z</time>
      </trkpt>
      <trkpt lat="40.65686" lon="-8.47207">
        <ele>103</ele>
        <time>2019-05-24T09:53:05Z</time>
      </trkpt>
      <trkpt lat="40.65692" lon="-8.47218">
        <ele>103</ele>
        <time>2019-05-24T09:53:16Z</time>
      </trkpt>
      <trkpt lat="40.65697" lon="-8.47223">
        <ele>102.52</ele>
        <time>2019-05-24T09:53:22Z</time>
      </trkpt>
      <trkpt lat="40.6571" lon="-8.47233">
        <ele>103.96</ele>
        <time>2019-05-24T09:53:35Z</time>
      </trkpt>
      <trkpt lat="40.65727" lon="-8.47245">
        <ele>103.96</ele>
        <time>2019-05-24T09:53:50Z</time>
      </trkpt>
      <trkpt lat="40.65741" lon="-8.47255">
        <ele>104.44</ele>
        <time>2019-05-24T09:54:04Z</time>
      </trkpt>
      <trkpt lat="40.65754" lon="-8.47268">
        <ele>104.44</ele>
        <time>2019-05-24T09:54:18Z</time>
      </trkpt>
      <trkpt lat="40.65767" lon="-8.47278">
        <ele>104.92</ele>
        <time>2019-05-24T09:54:31Z</time>
      </trkpt>
      <trkpt lat="40.65778" lon="-8.47284">
        <ele>104.92</ele>
        <time>2019-05-24T09:54:44Z</time>
      </trkpt>
      <trkpt lat="40.65789" lon="-8.47294">
        <ele>103.48</ele>
        <time>2019-05-24T09:54:56Z</time>
      </trkpt>
      <trkpt lat="40.65801" lon="-8.47304">
        <ele>104.44</ele>
        <time>2019-05-24T09:55:10Z</time>
      </trkpt>
      <trkpt lat="40.65814" lon="-8.47314">
        <ele>103.96</ele>
        <time>2019-05-24T09:55:23Z</time>
      </trkpt>
      <trkpt lat="40.65825" lon="-8.47318">
        <ele>103.96</ele>
        <time>2019-05-24T09:55:37Z</time>
      </trkpt>
      <trkpt lat="40.65833" lon="-8.47324">
        <ele>103.96</ele>
        <time>2019-05-24T09:55:49Z</time>
      </trkpt>
      <trkpt lat="40.65843" lon="-8.47334">
        <ele>103.96</ele>
        <time>2019-05-24T09:56:02Z</time>
      </trkpt>
      <trkpt lat="40.65849" lon="-8.4734">
        <ele>103.48</ele>
        <time>2019-05-24T09:56:13Z</time>
      </trkpt>
      <trkpt lat="40.6586" lon="-8.4735">
        <ele>103.96</ele>
        <time>2019-05-24T09:56:24Z</time>
      </trkpt>
      <trkpt lat="40.65876" lon="-8.47362">
        <ele>103.48</ele>
        <time>2019-05-24T09:56:40Z</time>
      </trkpt>
      <trkpt lat="40.65887" lon="-8.47376">
        <ele>104.44</ele>
        <time>2019-05-24T09:56:53Z</time>
      </trkpt>
      <trkpt lat="40.65891" lon="-8.47378">
        <ele>103.96</ele>
        <time>2019-05-24T09:56:56Z</time>
      </trkpt>
      <trkpt lat="40.65907" lon="-8.47389">
        <ele>103.96</ele>
        <time>2019-05-24T09:57:11Z</time>
      </trkpt>
      <trkpt lat="40.65918" lon="-8.47396">
        <ele>104.44</ele>
        <time>2019-05-24T09:57:21Z</time>
      </trkpt>
      <trkpt lat="40.65937" lon="-8.47411">
        <ele>103.96</ele>
        <time>2019-05-24T09:57:39Z</time>
      </trkpt>
      <trkpt lat="40.65952" lon="-8.47425">
        <ele>102.52</ele>
        <time>2019-05-24T09:57:53Z</time>
      </trkpt>
      <trkpt lat="40.65958" lon="-8.47429">
        <ele>102.04</ele>
        <time>2019-05-24T09:57:58Z</time>
      </trkpt>
      <trkpt lat="40.65974" lon="-8.47441">
        <ele>101.08</ele>
        <time>2019-05-24T09:58:13Z</time>
      </trkpt>
      <trkpt lat="40.65984" lon="-8.47449">
        <ele>101.08</ele>
        <time>2019-05-24T09:58:25Z</time>
      </trkpt>
      <trkpt lat="40.65982" lon="-8.47449">
        <ele>100.6</ele>
        <time>2019-05-24T09:58:37Z</time>
      </trkpt>
      <trkpt lat="40.65991" lon="-8.47458">
        <ele>100.11</ele>
        <time>2019-05-24T09:58:49Z</time>
      </trkpt>
      <trkpt lat="40.66" lon="-8.47469">
        <ele>100.11</ele>
        <time>2019-05-24T09:59:03Z</time>
      </trkpt>
      <trkpt lat="40.66009" lon="-8.47488">
        <ele>101.56</ele>
        <time>2019-05-24T09:59:17Z</time>
      </trkpt>
      <trkpt lat="40.66011" lon="-8.47491">
        <ele>101.08</ele>
        <time>2019-05-24T09:59:19Z</time>
      </trkpt>
      <trkpt lat="40.66015" lon="-8.47497">
        <ele>100.6</ele>
        <time>2019-05-24T09:59:27Z</time>
      </trkpt>
      <trkpt lat="40.66025" lon="-8.47513">
        <ele>100.11</ele>
        <time>2019-05-24T09:59:39Z</time>
      </trkpt>
      <trkpt lat="40.66028" lon="-8.47521">
        <ele>100.6</ele>
        <time>2019-05-24T09:59:45Z</time>
      </trkpt>
      <trkpt lat="40.66036" lon="-8.47538">
        <ele>101.08</ele>
        <time>2019-05-24T09:59:58Z</time>
      </trkpt>
      <trkpt lat="40.66046" lon="-8.47552">
        <ele>101.08</ele>
        <time>2019-05-24T10:00:10Z</time>
      </trkpt>
      <trkpt lat="40.66047" lon="-8.47554">
        <ele>101.56</ele>
        <time>2019-05-24T10:00:11Z</time>
      </trkpt>
      <trkpt lat="40.6605" lon="-8.47558">
        <ele>101.08</ele>
        <time>2019-05-24T10:00:15Z</time>
      </trkpt>
      <trkpt lat="40.66054" lon="-8.47574">
        <ele>101.56</ele>
        <time>2019-05-24T10:00:28Z</time>
      </trkpt>
      <trkpt lat="40.66057" lon="-8.47583">
        <ele>102.04</ele>
        <time>2019-05-24T10:00:37Z</time>
      </trkpt>
      <trkpt lat="40.66058" lon="-8.47587">
        <ele>102.52</ele>
        <time>2019-05-24T10:00:40Z</time>
      </trkpt>
      <trkpt lat="40.66064" lon="-8.47599">
        <ele>102.52</ele>
        <time>2019-05-24T10:00:49Z</time>
      </trkpt>
      <trkpt lat="40.66067" lon="-8.47603">
        <ele>103</ele>
        <time>2019-05-24T10:00:53Z</time>
      </trkpt>
      <trkpt lat="40.66074" lon="-8.4762">
        <ele>103</ele>
        <time>2019-05-24T10:01:05Z</time>
      </trkpt>
      <trkpt lat="40.66082" lon="-8.47639">
        <ele>103.48</ele>
        <time>2019-05-24T10:01:19Z</time>
      </trkpt>
      <trkpt lat="40.66087" lon="-8.47651">
        <ele>105.4</ele>
        <time>2019-05-24T10:01:32Z</time>
      </trkpt>
      <trkpt lat="40.66093" lon="-8.47658">
        <ele>106.36</ele>
        <time>2019-05-24T10:01:43Z</time>
      </trkpt>
      <trkpt lat="40.66095" lon="-8.47661">
        <ele>105.88</ele>
        <time>2019-05-24T10:01:45Z</time>
      </trkpt>
      <trkpt lat="40.66098" lon="-8.47666">
        <ele>105.88</ele>
        <time>2019-05-24T10:01:50Z</time>
      </trkpt>
      <trkpt lat="40.66106" lon="-8.47676">
        <ele>106.36</ele>
        <time>2019-05-24T10:02:02Z</time>
      </trkpt>
      <trkpt lat="40.66107" lon="-8.47683">
        <ele>106.36</ele>
        <time>2019-05-24T10:02:32Z</time>
      </trkpt>
      <trkpt lat="40.66111" lon="-8.47674">
        <ele>106.84</ele>
        <time>2019-05-24T10:02:56Z</time>
      </trkpt>
      <trkpt lat="40.66111" lon="-8.47668">
        <ele>106.84</ele>
        <time>2019-05-24T10:03:19Z</time>
      </trkpt>
      <trkpt lat="40.6611" lon="-8.47673">
        <ele>106.84</ele>
        <time>2019-05-24T10:03:34Z</time>
      </trkpt>
      <trkpt lat="40.6611" lon="-8.47676">
        <ele>106.84</ele>
        <time>2019-05-24T10:03:54Z</time>
      </trkpt>
      <trkpt lat="40.66122" lon="-8.47673">
        <ele>106.84</ele>
        <time>2019-05-24T10:04:09Z</time>
      </trkpt>
      <trkpt lat="40.66132" lon="-8.47676">
        <ele>106.36</ele>
        <time>2019-05-24T10:04:20Z</time>
      </trkpt>
      <trkpt lat="40.66144" lon="-8.47683">
        <ele>106.36</ele>
        <time>2019-05-24T10:04:33Z</time>
      </trkpt>
      <trkpt lat="40.66157" lon="-8.47694">
        <ele>107.32</ele>
        <time>2019-05-24T10:04:46Z</time>
      </trkpt>
      <trkpt lat="40.66165" lon="-8.47705">
        <ele>107.81</ele>
        <time>2019-05-24T10:04:58Z</time>
      </trkpt>
      <trkpt lat="40.66175" lon="-8.47717">
        <ele>108.29</ele>
        <time>2019-05-24T10:05:12Z</time>
      </trkpt>
      <trkpt lat="40.66176" lon="-8.47718">
        <ele>108.29</ele>
        <time>2019-05-24T10:05:13Z</time>
      </trkpt>
      <trkpt lat="40.66178" lon="-8.47724">
        <ele>108.29</ele>
        <time>2019-05-24T10:05:17Z</time>
      </trkpt>
      <trkpt lat="40.66185" lon="-8.47731">
        <ele>108.77</ele>
        <time>2019-05-24T10:05:27Z</time>
      </trkpt>
      <trkpt lat="40.66196" lon="-8.47748">
        <ele>109.73</ele>
        <time>2019-05-24T10:05:40Z</time>
      </trkpt>
      <trkpt lat="40.66203" lon="-8.47755">
        <ele>109.73</ele>
        <time>2019-05-24T10:05:54Z</time>
      </trkpt>
      <trkpt lat="40.66203" lon="-8.47757">
        <ele>110.21</ele>
        <time>2019-05-24T10:06:10Z</time>
      </trkpt>
      <trkpt lat="40.6621" lon="-8.47765">
        <ele>110.69</ele>
        <time>2019-05-24T10:06:22Z</time>
      </trkpt>
      <trkpt lat="40.6622" lon="-8.47776">
        <ele>110.69</ele>
        <time>2019-05-24T10:06:36Z</time>
      </trkpt>
      <trkpt lat="40.66229" lon="-8.47787">
        <ele>110.69</ele>
        <time>2019-05-24T10:06:49Z</time>
      </trkpt>
      <trkpt lat="40.6624" lon="-8.47799">
        <ele>110.69</ele>
        <time>2019-05-24T10:07:02Z</time>
      </trkpt>
      <trkpt lat="40.66253" lon="-8.4781">
        <ele>111.17</ele>
        <time>2019-05-24T10:07:15Z</time>
      </trkpt>
      <trkpt lat="40.66266" lon="-8.47822">
        <ele>111.65</ele>
        <time>2019-05-24T10:07:29Z</time>
      </trkpt>
      <trkpt lat="40.66281" lon="-8.47831">
        <ele>112.13</ele>
        <time>2019-05-24T10:07:44Z</time>
      </trkpt>
      <trkpt lat="40.66296" lon="-8.47839">
        <ele>113.09</ele>
        <time>2019-05-24T10:07:58Z</time>
      </trkpt>
      <trkpt lat="40.66313" lon="-8.47847">
        <ele>113.09</ele>
        <time>2019-05-24T10:08:13Z</time>
      </trkpt>
      <trkpt lat="40.66328" lon="-8.47856">
        <ele>112.61</ele>
        <time>2019-05-24T10:08:25Z</time>
      </trkpt>
      <trkpt lat="40.6634" lon="-8.47861">
        <ele>112.61</ele>
        <time>2019-05-24T10:08:36Z</time>
      </trkpt>
      <trkpt lat="40.66354" lon="-8.47865">
        <ele>111.65</ele>
        <time>2019-05-24T10:08:48Z</time>
      </trkpt>
      <trkpt lat="40.66356" lon="-8.47865">
        <ele>111.17</ele>
        <time>2019-05-24T10:08:49Z</time>
      </trkpt>
      <trkpt lat="40.66371" lon="-8.47876">
        <ele>110.69</ele>
        <time>2019-05-24T10:09:04Z</time>
      </trkpt>
      <trkpt lat="40.66383" lon="-8.47887">
        <ele>110.21</ele>
        <time>2019-05-24T10:09:17Z</time>
      </trkpt>
      <trkpt lat="40.66394" lon="-8.47898">
        <ele>108.77</ele>
        <time>2019-05-24T10:09:31Z</time>
      </trkpt>
      <trkpt lat="40.66403" lon="-8.47908">
        <ele>108.77</ele>
        <time>2019-05-24T10:09:42Z</time>
      </trkpt>
      <trkpt lat="40.66407" lon="-8.47912">
        <ele>109.73</ele>
        <time>2019-05-24T10:09:47Z</time>
      </trkpt>
      <trkpt lat="40.6642" lon="-8.47927">
        <ele>109.25</ele>
        <time>2019-05-24T10:10:01Z</time>
      </trkpt>
      <trkpt lat="40.66432" lon="-8.47935">
        <ele>108.29</ele>
        <time>2019-05-24T10:10:13Z</time>
      </trkpt>
      <trkpt lat="40.66447" lon="-8.47947">
        <ele>109.25</ele>
        <time>2019-05-24T10:10:28Z</time>
      </trkpt>
      <trkpt lat="40.66456" lon="-8.47955">
        <ele>108.29</ele>
        <time>2019-05-24T10:10:36Z</time>
      </trkpt>
      <trkpt lat="40.6647" lon="-8.47965">
        <ele>109.25</ele>
        <time>2019-05-24T10:10:50Z</time>
      </trkpt>
      <trkpt lat="40.66478" lon="-8.47972">
        <ele>108.77</ele>
        <time>2019-05-24T10:10:58Z</time>
      </trkpt>
      <trkpt lat="40.6649" lon="-8.47982">
        <ele>109.25</ele>
        <time>2019-05-24T10:11:10Z</time>
      </trkpt>
      <trkpt lat="40.66505" lon="-8.47994">
        <ele>109.25</ele>
        <time>2019-05-24T10:11:24Z</time>
      </trkpt>
      <trkpt lat="40.66518" lon="-8.48004">
        <ele>110.21</ele>
        <time>2019-05-24T10:11:36Z</time>
      </trkpt>
      <trkpt lat="40.66521" lon="-8.48005">
        <ele>110.21</ele>
        <time>2019-05-24T10:11:38Z</time>
      </trkpt>
      <trkpt lat="40.66535" lon="-8.48019">
        <ele>109.73</ele>
        <time>2019-05-24T10:11:53Z</time>
      </trkpt>
      <trkpt lat="40.66542" lon="-8.48026">
        <ele>110.21</ele>
        <time>2019-05-24T10:12:02Z</time>
      </trkpt>
      <trkpt lat="40.66546" lon="-8.48028">
        <ele>110.21</ele>
        <time>2019-05-24T10:12:06Z</time>
      </trkpt>
      <trkpt lat="40.6655" lon="-8.48031">
        <ele>109.73</ele>
        <time>2019-05-24T10:12:10Z</time>
      </trkpt>
      <trkpt lat="40.66552" lon="-8.48033">
        <ele>110.69</ele>
        <time>2019-05-24T10:12:12Z</time>
      </trkpt>
      <trkpt lat="40.66558" lon="-8.48037">
        <ele>110.21</ele>
        <time>2019-05-24T10:12:16Z</time>
      </trkpt>
      <trkpt lat="40.66574" lon="-8.48051">
        <ele>109.73</ele>
        <time>2019-05-24T10:12:30Z</time>
      </trkpt>
      <trkpt lat="40.66583" lon="-8.48059">
        <ele>109.25</ele>
        <time>2019-05-24T10:12:38Z</time>
      </trkpt>
      <trkpt lat="40.66596" lon="-8.48072">
        <ele>108.77</ele>
        <time>2019-05-24T10:12:52Z</time>
      </trkpt>
      <trkpt lat="40.66605" lon="-8.48085">
        <ele>107.81</ele>
        <time>2019-05-24T10:13:03Z</time>
      </trkpt>
      <trkpt lat="40.6661" lon="-8.4809">
        <ele>107.81</ele>
        <time>2019-05-24T10:13:15Z</time>
      </trkpt>
      <trkpt lat="40.66623" lon="-8.48104">
        <ele>107.32</ele>
        <time>2019-05-24T10:13:30Z</time>
      </trkpt>
      <trkpt lat="40.66626" lon="-8.48106">
        <ele>107.32</ele>
        <time>2019-05-24T10:13:36Z</time>
      </trkpt>
      <trkpt lat="40.66638" lon="-8.48117">
        <ele>105.88</ele>
        <time>2019-05-24T10:13:48Z</time>
      </trkpt>
      <trkpt lat="40.66647" lon="-8.48125">
        <ele>105.4</ele>
        <time>2019-05-24T10:14:00Z</time>
      </trkpt>
      <trkpt lat="40.66655" lon="-8.48135">
        <ele>104.92</ele>
        <time>2019-05-24T10:14:10Z</time>
      </trkpt>
      <trkpt lat="40.66666" lon="-8.48148">
        <ele>103</ele>
        <time>2019-05-24T10:14:22Z</time>
      </trkpt>
      <trkpt lat="40.66668" lon="-8.4815">
        <ele>103</ele>
        <time>2019-05-24T10:14:24Z</time>
      </trkpt>
      <trkpt lat="40.66671" lon="-8.48152">
        <ele>103.48</ele>
        <time>2019-05-24T10:14:27Z</time>
      </trkpt>
      <trkpt lat="40.66686" lon="-8.48167">
        <ele>102.52</ele>
        <time>2019-05-24T10:14:41Z</time>
      </trkpt>
      <trkpt lat="40.66696" lon="-8.48178">
        <ele>101.56</ele>
        <time>2019-05-24T10:14:53Z</time>
      </trkpt>
      <trkpt lat="40.66707" lon="-8.48191">
        <ele>101.56</ele>
        <time>2019-05-24T10:15:05Z</time>
      </trkpt>
      <trkpt lat="40.66709" lon="-8.48191">
        <ele>101.08</ele>
        <time>2019-05-24T10:15:08Z</time>
      </trkpt>
      <trkpt lat="40.66711" lon="-8.48192">
        <ele>100.6</ele>
        <time>2019-05-24T10:15:10Z</time>
      </trkpt>
      <trkpt lat="40.66723" lon="-8.48208">
        <ele>101.08</ele>
        <time>2019-05-24T10:15:26Z</time>
      </trkpt>
      <trkpt lat="40.66736" lon="-8.48222">
        <ele>100.6</ele>
        <time>2019-05-24T10:15:40Z</time>
      </trkpt>
      <trkpt lat="40.66752" lon="-8.48238">
        <ele>98.19</ele>
        <time>2019-05-24T10:15:56Z</time>
      </trkpt>
      <trkpt lat="40.66753" lon="-8.48239">
        <ele>97.71</ele>
        <time>2019-05-24T10:15:57Z</time>
      </trkpt>
      <trkpt lat="40.66756" lon="-8.48241">
        <ele>97.23</ele>
        <time>2019-05-24T10:16:00Z</time>
      </trkpt>
      <trkpt lat="40.6676" lon="-8.48245">
        <ele>98.19</ele>
        <time>2019-05-24T10:16:05Z</time>
      </trkpt>
      <trkpt lat="40.6677" lon="-8.48256">
        <ele>97.23</ele>
        <time>2019-05-24T10:16:15Z</time>
      </trkpt>
      <trkpt lat="40.6678" lon="-8.48266">
        <ele>96.27</ele>
        <time>2019-05-24T10:16:25Z</time>
      </trkpt>
      <trkpt lat="40.66783" lon="-8.48271">
        <ele>97.23</ele>
        <time>2019-05-24T10:16:29Z</time>
      </trkpt>
      <trkpt lat="40.66797" lon="-8.48285">
        <ele>97.71</ele>
        <time>2019-05-24T10:16:43Z</time>
      </trkpt>
      <trkpt lat="40.66798" lon="-8.48286">
        <ele>97.23</ele>
        <time>2019-05-24T10:16:44Z</time>
      </trkpt>
      <trkpt lat="40.66813" lon="-8.48304">
        <ele>97.71</ele>
        <time>2019-05-24T10:17:01Z</time>
      </trkpt>
      <trkpt lat="40.66825" lon="-8.48319">
        <ele>97.71</ele>
        <time>2019-05-24T10:17:15Z</time>
      </trkpt>
      <trkpt lat="40.66836" lon="-8.48333">
        <ele>98.67</ele>
        <time>2019-05-24T10:17:29Z</time>
      </trkpt>
      <trkpt lat="40.6685" lon="-8.48344">
        <ele>100.11</ele>
        <time>2019-05-24T10:17:46Z</time>
      </trkpt>
      <trkpt lat="40.6686" lon="-8.48351">
        <ele>101.08</ele>
        <time>2019-05-24T10:17:57Z</time>
      </trkpt>
      <trkpt lat="40.66869" lon="-8.48353">
        <ele>102.04</ele>
        <time>2019-05-24T10:18:06Z</time>
      </trkpt>
      <trkpt lat="40.66885" lon="-8.48355">
        <ele>102.04</ele>
        <time>2019-05-24T10:18:21Z</time>
      </trkpt>
      <trkpt lat="40.66901" lon="-8.4836">
        <ele>102.52</ele>
        <time>2019-05-24T10:18:34Z</time>
      </trkpt>
      <trkpt lat="40.66914" lon="-8.48364">
        <ele>103</ele>
        <time>2019-05-24T10:18:47Z</time>
      </trkpt>
      <trkpt lat="40.66927" lon="-8.48368">
        <ele>103.96</ele>
        <time>2019-05-24T10:18:59Z</time>
      </trkpt>
      <trkpt lat="40.6694" lon="-8.48372">
        <ele>104.44</ele>
        <time>2019-05-24T10:19:10Z</time>
      </trkpt>
      <trkpt lat="40.6696" lon="-8.48379">
        <ele>104.44</ele>
        <time>2019-05-24T10:19:26Z</time>
      </trkpt>
      <trkpt lat="40.66962" lon="-8.4838">
        <ele>104.92</ele>
        <time>2019-05-24T10:19:28Z</time>
      </trkpt>
      <trkpt lat="40.66983" lon="-8.48387">
        <ele>105.4</ele>
        <time>2019-05-24T10:19:45Z</time>
      </trkpt>
      <trkpt lat="40.66987" lon="-8.48392">
        <ele>105.4</ele>
        <time>2019-05-24T10:19:50Z</time>
      </trkpt>
      <trkpt lat="40.66992" lon="-8.48395">
        <ele>104.92</ele>
        <time>2019-05-24T10:19:55Z</time>
      </trkpt>
      <trkpt lat="40.67001" lon="-8.48399">
        <ele>105.4</ele>
        <time>2019-05-24T10:20:03Z</time>
      </trkpt>
      <trkpt lat="40.67021" lon="-8.48407">
        <ele>104.92</ele>
        <time>2019-05-24T10:20:20Z</time>
      </trkpt>
      <trkpt lat="40.6703" lon="-8.48409">
        <ele>104.92</ele>
        <time>2019-05-24T10:20:27Z</time>
      </trkpt>
      <trkpt lat="40.67045" lon="-8.48411">
        <ele>103.96</ele>
        <time>2019-05-24T10:20:40Z</time>
      </trkpt>
      <trkpt lat="40.67065" lon="-8.48412">
        <ele>103.48</ele>
        <time>2019-05-24T10:20:56Z</time>
      </trkpt>
      <trkpt lat="40.67082" lon="-8.48421">
        <ele>103.96</ele>
        <time>2019-05-24T10:21:10Z</time>
      </trkpt>
      <trkpt lat="40.67098" lon="-8.48428">
        <ele>103</ele>
        <time>2019-05-24T10:21:24Z</time>
      </trkpt>
      <trkpt lat="40.67116" lon="-8.48434">
        <ele>103</ele>
        <time>2019-05-24T10:21:39Z</time>
      </trkpt>
      <trkpt lat="40.67131" lon="-8.48437">
        <ele>102.04</ele>
        <time>2019-05-24T10:21:53Z</time>
      </trkpt>
      <trkpt lat="40.67145" lon="-8.48438">
        <ele>100.6</ele>
        <time>2019-05-24T10:22:06Z</time>
      </trkpt>
      <trkpt lat="40.67146" lon="-8.48438">
        <ele>101.08</ele>
        <time>2019-05-24T10:22:08Z</time>
      </trkpt>
      <trkpt lat="40.67159" lon="-8.48437">
        <ele>100.11</ele>
        <time>2019-05-24T10:22:25Z</time>
      </trkpt>
      <trkpt lat="40.67176" lon="-8.48438">
        <ele>98.67</ele>
        <time>2019-05-24T10:22:37Z</time>
      </trkpt>
      <trkpt lat="40.67194" lon="-8.48435">
        <ele>97.71</ele>
        <time>2019-05-24T10:22:52Z</time>
      </trkpt>
      <trkpt lat="40.67209" lon="-8.48434">
        <ele>98.19</ele>
        <time>2019-05-24T10:23:04Z</time>
      </trkpt>
      <trkpt lat="40.67217" lon="-8.48435">
        <ele>97.71</ele>
        <time>2019-05-24T10:23:11Z</time>
      </trkpt>
      <trkpt lat="40.67224" lon="-8.48437">
        <ele>98.67</ele>
        <time>2019-05-24T10:23:23Z</time>
      </trkpt>
      <trkpt lat="40.67224" lon="-8.48435">
        <ele>98.67</ele>
        <time>2019-05-24T10:23:44Z</time>
      </trkpt>
      <trkpt lat="40.67231" lon="-8.48437">
        <ele>98.67</ele>
        <time>2019-05-24T10:23:52Z</time>
      </trkpt>
      <trkpt lat="40.6725" lon="-8.48444">
        <ele>98.19</ele>
        <time>2019-05-24T10:24:07Z</time>
      </trkpt>
      <trkpt lat="40.67259" lon="-8.48445">
        <ele>98.67</ele>
        <time>2019-05-24T10:24:19Z</time>
      </trkpt>
      <trkpt lat="40.67266" lon="-8.48446">
        <ele>98.19</ele>
        <time>2019-05-24T10:24:25Z</time>
      </trkpt>
      <trkpt lat="40.67283" lon="-8.48446">
        <ele>99.15</ele>
        <time>2019-05-24T10:24:39Z</time>
      </trkpt>
      <trkpt lat="40.67299" lon="-8.48444">
        <ele>99.15</ele>
        <time>2019-05-24T10:24:54Z</time>
      </trkpt>
      <trkpt lat="40.67315" lon="-8.4844">
        <ele>96.75</ele>
        <time>2019-05-24T10:25:07Z</time>
      </trkpt>
      <trkpt lat="40.67329" lon="-8.48434">
        <ele>95.79</ele>
        <time>2019-05-24T10:25:18Z</time>
      </trkpt>
      <trkpt lat="40.67349" lon="-8.48425">
        <ele>94.83</ele>
        <time>2019-05-24T10:25:32Z</time>
      </trkpt>
      <trkpt lat="40.67369" lon="-8.48425">
        <ele>93.39</ele>
        <time>2019-05-24T10:25:47Z</time>
      </trkpt>
      <trkpt lat="40.67385" lon="-8.4843">
        <ele>94.35</ele>
        <time>2019-05-24T10:26:00Z</time>
      </trkpt>
      <trkpt lat="40.67394" lon="-8.48438">
        <ele>93.87</ele>
        <time>2019-05-24T10:26:09Z</time>
      </trkpt>
      <trkpt lat="40.67398" lon="-8.48447">
        <ele>93.87</ele>
        <time>2019-05-24T10:26:15Z</time>
      </trkpt>
      <trkpt lat="40.67399" lon="-8.48454">
        <ele>93.39</ele>
        <time>2019-05-24T10:26:31Z</time>
      </trkpt>
      <trkpt lat="40.67396" lon="-8.48474">
        <ele>93.39</ele>
        <time>2019-05-24T10:26:44Z</time>
      </trkpt>
      <trkpt lat="40.67391" lon="-8.48494">
        <ele>93.39</ele>
        <time>2019-05-24T10:26:57Z</time>
      </trkpt>
      <trkpt lat="40.67385" lon="-8.48514">
        <ele>92.42</ele>
        <time>2019-05-24T10:27:10Z</time>
      </trkpt>
      <trkpt lat="40.67384" lon="-8.48531">
        <ele>91.94</ele>
        <time>2019-05-24T10:27:21Z</time>
      </trkpt>
      <trkpt lat="40.67385" lon="-8.48534">
        <ele>91.94</ele>
        <time>2019-05-24T10:27:23Z</time>
      </trkpt>
      <trkpt lat="40.67388" lon="-8.48559">
        <ele>92.42</ele>
        <time>2019-05-24T10:27:38Z</time>
      </trkpt>
      <trkpt lat="40.67392" lon="-8.48584">
        <ele>91.94</ele>
        <time>2019-05-24T10:27:51Z</time>
      </trkpt>
      <trkpt lat="40.67392" lon="-8.4859">
        <ele>91.94</ele>
        <time>2019-05-24T10:27:54Z</time>
      </trkpt>
      <trkpt lat="40.67393" lon="-8.48598">
        <ele>91.46</ele>
        <time>2019-05-24T10:27:58Z</time>
      </trkpt>
      <trkpt lat="40.67396" lon="-8.48606">
        <ele>91.94</ele>
        <time>2019-05-24T10:28:04Z</time>
      </trkpt>
      <trkpt lat="40.67402" lon="-8.48632">
        <ele>92.42</ele>
        <time>2019-05-24T10:28:19Z</time>
      </trkpt>
      <trkpt lat="40.67402" lon="-8.48634">
        <ele>91.94</ele>
        <time>2019-05-24T10:28:20Z</time>
      </trkpt>
      <trkpt lat="40.67406" lon="-8.48649">
        <ele>92.42</ele>
        <time>2019-05-24T10:28:31Z</time>
      </trkpt>
      <trkpt lat="40.67416" lon="-8.48671">
        <ele>93.87</ele>
        <time>2019-05-24T10:28:46Z</time>
      </trkpt>
      <trkpt lat="40.6742" lon="-8.48686">
        <ele>95.31</ele>
        <time>2019-05-24T10:29:00Z</time>
      </trkpt>
      <trkpt lat="40.67423" lon="-8.48699">
        <ele>97.71</ele>
        <time>2019-05-24T10:29:15Z</time>
      </trkpt>
      <trkpt lat="40.67429" lon="-8.48711">
        <ele>100.11</ele>
        <time>2019-05-24T10:29:29Z</time>
      </trkpt>
      <trkpt lat="40.67437" lon="-8.48729">
        <ele>101.08</ele>
        <time>2019-05-24T10:29:45Z</time>
      </trkpt>
      <trkpt lat="40.67444" lon="-8.48739">
        <ele>103</ele>
        <time>2019-05-24T10:29:57Z</time>
      </trkpt>
      <trkpt lat="40.67455" lon="-8.48752">
        <ele>103.96</ele>
        <time>2019-05-24T10:30:13Z</time>
      </trkpt>
      <trkpt lat="40.67464" lon="-8.48764">
        <ele>104.44</ele>
        <time>2019-05-24T10:30:26Z</time>
      </trkpt>
      <trkpt lat="40.67473" lon="-8.48773">
        <ele>104.92</ele>
        <time>2019-05-24T10:30:39Z</time>
      </trkpt>
      <trkpt lat="40.67478" lon="-8.48774">
        <ele>105.4</ele>
        <time>2019-05-24T10:30:53Z</time>
      </trkpt>
      <trkpt lat="40.67484" lon="-8.48779">
        <ele>104.92</ele>
        <time>2019-05-24T10:31:00Z</time>
      </trkpt>
      <trkpt lat="40.67499" lon="-8.48796">
        <ele>105.88</ele>
        <time>2019-05-24T10:31:16Z</time>
      </trkpt>
      <trkpt lat="40.67507" lon="-8.48801">
        <ele>105.88</ele>
        <time>2019-05-24T10:31:25Z</time>
      </trkpt>
      <trkpt lat="40.67516" lon="-8.48805">
        <ele>106.84</ele>
        <time>2019-05-24T10:31:37Z</time>
      </trkpt>
      <trkpt lat="40.67532" lon="-8.48813">
        <ele>107.32</ele>
        <time>2019-05-24T10:31:53Z</time>
      </trkpt>
      <trkpt lat="40.67548" lon="-8.48815">
        <ele>107.81</ele>
        <time>2019-05-24T10:32:07Z</time>
      </trkpt>
      <trkpt lat="40.67566" lon="-8.48819">
        <ele>107.32</ele>
        <time>2019-05-24T10:32:22Z</time>
      </trkpt>
      <trkpt lat="40.67574" lon="-8.4882">
        <ele>107.81</ele>
        <time>2019-05-24T10:32:29Z</time>
      </trkpt>
      <trkpt lat="40.67578" lon="-8.48821">
        <ele>107.81</ele>
        <time>2019-05-24T10:32:33Z</time>
      </trkpt>
      <trkpt lat="40.67598" lon="-8.48826">
        <ele>107.32</ele>
        <time>2019-05-24T10:32:49Z</time>
      </trkpt>
      <trkpt lat="40.67619" lon="-8.48836">
        <ele>107.81</ele>
        <time>2019-05-24T10:33:06Z</time>
      </trkpt>
      <trkpt lat="40.67633" lon="-8.48848">
        <ele>109.25</ele>
        <time>2019-05-24T10:33:19Z</time>
      </trkpt>
      <trkpt lat="40.6765" lon="-8.48859">
        <ele>108.77</ele>
        <time>2019-05-24T10:33:35Z</time>
      </trkpt>
      <trkpt lat="40.6767" lon="-8.4887">
        <ele>109.25</ele>
        <time>2019-05-24T10:33:53Z</time>
      </trkpt>
      <trkpt lat="40.67684" lon="-8.48878">
        <ele>109.73</ele>
        <time>2019-05-24T10:34:06Z</time>
      </trkpt>
      <trkpt lat="40.67704" lon="-8.48883">
        <ele>110.21</ele>
        <time>2019-05-24T10:34:23Z</time>
      </trkpt>
      <trkpt lat="40.67722" lon="-8.48888">
        <ele>111.17</ele>
        <time>2019-05-24T10:34:38Z</time>
      </trkpt>
      <trkpt lat="40.67742" lon="-8.48897">
        <ele>110.69</ele>
        <time>2019-05-24T10:34:55Z</time>
      </trkpt>
      <trkpt lat="40.67758" lon="-8.489">
        <ele>111.17</ele>
        <time>2019-05-24T10:35:09Z</time>
      </trkpt>
      <trkpt lat="40.67769" lon="-8.489">
        <ele>110.69</ele>
        <time>2019-05-24T10:35:19Z</time>
      </trkpt>
      <trkpt lat="40.6779" lon="-8.48905">
        <ele>110.69</ele>
        <time>2019-05-24T10:35:36Z</time>
      </trkpt>
      <trkpt lat="40.67812" lon="-8.48906">
        <ele>111.17</ele>
        <time>2019-05-24T10:35:53Z</time>
      </trkpt>
      <trkpt lat="40.67825" lon="-8.48907">
        <ele>110.69</ele>
        <time>2019-05-24T10:36:06Z</time>
      </trkpt>
      <trkpt lat="40.67833" lon="-8.48906">
        <ele>111.17</ele>
        <time>2019-05-24T10:36:24Z</time>
      </trkpt>
      <trkpt lat="40.6785" lon="-8.48902">
        <ele>111.17</ele>
        <time>2019-05-24T10:36:39Z</time>
      </trkpt>
      <trkpt lat="40.67868" lon="-8.48901">
        <ele>111.17</ele>
        <time>2019-05-24T10:36:54Z</time>
      </trkpt>
      <trkpt lat="40.67885" lon="-8.489">
        <ele>111.65</ele>
        <time>2019-05-24T10:37:08Z</time>
      </trkpt>
      <trkpt lat="40.67898" lon="-8.489">
        <ele>112.13</ele>
        <time>2019-05-24T10:37:22Z</time>
      </trkpt>
      <trkpt lat="40.67909" lon="-8.489">
        <ele>112.13</ele>
        <time>2019-05-24T10:37:34Z</time>
      </trkpt>
      <trkpt lat="40.67912" lon="-8.48901">
        <ele>112.61</ele>
        <time>2019-05-24T10:37:36Z</time>
      </trkpt>
      <trkpt lat="40.67929" lon="-8.489">
        <ele>113.57</ele>
        <time>2019-05-24T10:37:51Z</time>
      </trkpt>
      <trkpt lat="40.67944" lon="-8.48905">
        <ele>114.53</ele>
        <time>2019-05-24T10:38:04Z</time>
      </trkpt>
      <trkpt lat="40.67956" lon="-8.48912">
        <ele>115.98</ele>
        <time>2019-05-24T10:38:18Z</time>
      </trkpt>
      <trkpt lat="40.67971" lon="-8.48928">
        <ele>115.98</ele>
        <time>2019-05-24T10:38:33Z</time>
      </trkpt>
      <trkpt lat="40.67985" lon="-8.48938">
        <ele>116.46</ele>
        <time>2019-05-24T10:38:48Z</time>
      </trkpt>
      <trkpt lat="40.67997" lon="-8.48934">
        <ele>118.38</ele>
        <time>2019-05-24T10:39:00Z</time>
      </trkpt>
      <trkpt lat="40.68001" lon="-8.48932">
        <ele>117.9</ele>
        <time>2019-05-24T10:39:16Z</time>
      </trkpt>
      <trkpt lat="40.68013" lon="-8.48926">
        <ele>117.42</ele>
        <time>2019-05-24T10:39:31Z</time>
      </trkpt>
      <trkpt lat="40.68018" lon="-8.48925">
        <ele>117.42</ele>
        <time>2019-05-24T10:39:40Z</time>
      </trkpt>
      <trkpt lat="40.68033" lon="-8.48918">
        <ele>117.42</ele>
        <time>2019-05-24T10:39:54Z</time>
      </trkpt>
      <trkpt lat="40.68048" lon="-8.48909">
        <ele>117.42</ele>
        <time>2019-05-24T10:40:06Z</time>
      </trkpt>
      <trkpt lat="40.68049" lon="-8.48908">
        <ele>116.94</ele>
        <time>2019-05-24T10:40:07Z</time>
      </trkpt>
      <trkpt lat="40.68063" lon="-8.48901">
        <ele>116.94</ele>
        <time>2019-05-24T10:40:20Z</time>
      </trkpt>
      <trkpt lat="40.68068" lon="-8.48899">
        <ele>117.42</ele>
        <time>2019-05-24T10:40:25Z</time>
      </trkpt>
      <trkpt lat="40.68077" lon="-8.48891">
        <ele>118.38</ele>
        <time>2019-05-24T10:40:34Z</time>
      </trkpt>
      <trkpt lat="40.68087" lon="-8.48886">
        <ele>118.38</ele>
        <time>2019-05-24T10:40:44Z</time>
      </trkpt>
      <trkpt lat="40.681" lon="-8.48877">
        <ele>118.86</ele>
        <time>2019-05-24T10:41:00Z</time>
      </trkpt>
      <trkpt lat="40.68111" lon="-8.48872">
        <ele>118.38</ele>
        <time>2019-05-24T10:41:12Z</time>
      </trkpt>
      <trkpt lat="40.68113" lon="-8.48871">
        <ele>118.38</ele>
        <time>2019-05-24T10:41:14Z</time>
      </trkpt>
      <trkpt lat="40.6813" lon="-8.48864">
        <ele>118.86</ele>
        <time>2019-05-24T10:41:29Z</time>
      </trkpt>
      <trkpt lat="40.68141" lon="-8.48859">
        <ele>118.86</ele>
        <time>2019-05-24T10:41:41Z</time>
      </trkpt>
      <trkpt lat="40.68151" lon="-8.48851">
        <ele>117.9</ele>
        <time>2019-05-24T10:41:52Z</time>
      </trkpt>
      <trkpt lat="40.68162" lon="-8.48845">
        <ele>117.9</ele>
        <time>2019-05-24T10:42:05Z</time>
      </trkpt>
      <trkpt lat="40.68176" lon="-8.48841">
        <ele>117.42</ele>
        <time>2019-05-24T10:42:16Z</time>
      </trkpt>
      <trkpt lat="40.68183" lon="-8.48838">
        <ele>117.42</ele>
        <time>2019-05-24T10:42:24Z</time>
      </trkpt>
      <trkpt lat="40.68186" lon="-8.48836">
        <ele>117.42</ele>
        <time>2019-05-24T10:42:27Z</time>
      </trkpt>
      <trkpt lat="40.68205" lon="-8.48831">
        <ele>116.94</ele>
        <time>2019-05-24T10:42:41Z</time>
      </trkpt>
      <trkpt lat="40.68226" lon="-8.48828">
        <ele>116.46</ele>
        <time>2019-05-24T10:42:54Z</time>
      </trkpt>
      <trkpt lat="40.68242" lon="-8.48823">
        <ele>116.46</ele>
        <time>2019-05-24T10:43:09Z</time>
      </trkpt>
      <trkpt lat="40.68262" lon="-8.48817">
        <ele>115.98</ele>
        <time>2019-05-24T10:43:25Z</time>
      </trkpt>
      <trkpt lat="40.68277" lon="-8.48813">
        <ele>115.98</ele>
        <time>2019-05-24T10:43:36Z</time>
      </trkpt>
      <trkpt lat="40.68279" lon="-8.48812">
        <ele>115.5</ele>
        <time>2019-05-24T10:43:38Z</time>
      </trkpt>
      <trkpt lat="40.68288" lon="-8.4881">
        <ele>115.98</ele>
        <time>2019-05-24T10:43:46Z</time>
      </trkpt>
      <trkpt lat="40.68304" lon="-8.48805">
        <ele>115.01</ele>
        <time>2019-05-24T10:44:00Z</time>
      </trkpt>
      <trkpt lat="40.68321" lon="-8.48802">
        <ele>114.53</ele>
        <time>2019-05-24T10:44:14Z</time>
      </trkpt>
      <trkpt lat="40.68335" lon="-8.48801">
        <ele>113.09</ele>
        <time>2019-05-24T10:44:26Z</time>
      </trkpt>
      <trkpt lat="40.68341" lon="-8.488">
        <ele>113.09</ele>
        <time>2019-05-24T10:44:31Z</time>
      </trkpt>
      <trkpt lat="40.68353" lon="-8.48798">
        <ele>112.61</ele>
        <time>2019-05-24T10:44:43Z</time>
      </trkpt>
      <trkpt lat="40.68367" lon="-8.48788">
        <ele>110.69</ele>
        <time>2019-05-24T10:44:55Z</time>
      </trkpt>
      <trkpt lat="40.68373" lon="-8.4878">
        <ele>110.21</ele>
        <time>2019-05-24T10:45:03Z</time>
      </trkpt>
      <trkpt lat="40.68387" lon="-8.48764">
        <ele>109.25</ele>
        <time>2019-05-24T10:45:18Z</time>
      </trkpt>
      <trkpt lat="40.68393" lon="-8.48757">
        <ele>108.77</ele>
        <time>2019-05-24T10:45:23Z</time>
      </trkpt>
      <trkpt lat="40.68395" lon="-8.48752">
        <ele>108.29</ele>
        <time>2019-05-24T10:45:27Z</time>
      </trkpt>
      <trkpt lat="40.68398" lon="-8.48746">
        <ele>107.81</ele>
        <time>2019-05-24T10:45:31Z</time>
      </trkpt>
      <trkpt lat="40.68407" lon="-8.48739">
        <ele>107.32</ele>
        <time>2019-05-24T10:45:43Z</time>
      </trkpt>
      <trkpt lat="40.6842" lon="-8.48732">
        <ele>105.88</ele>
        <time>2019-05-24T10:45:54Z</time>
      </trkpt>
      <trkpt lat="40.68426" lon="-8.48728">
        <ele>105.4</ele>
        <time>2019-05-24T10:45:59Z</time>
      </trkpt>
      <trkpt lat="40.68443" lon="-8.48722">
        <ele>104.44</ele>
        <time>2019-05-24T10:46:13Z</time>
      </trkpt>
      <trkpt lat="40.68448" lon="-8.4872">
        <ele>104.92</ele>
        <time>2019-05-24T10:46:17Z</time>
      </trkpt>
      <trkpt lat="40.68457" lon="-8.48719">
        <ele>104.92</ele>
        <time>2019-05-24T10:46:23Z</time>
      </trkpt>
      <trkpt lat="40.68463" lon="-8.48712">
        <ele>104.92</ele>
        <time>2019-05-24T10:46:29Z</time>
      </trkpt>
      <trkpt lat="40.68471" lon="-8.48703">
        <ele>104.92</ele>
        <time>2019-05-24T10:46:43Z</time>
      </trkpt>
      <trkpt lat="40.68475" lon="-8.48688">
        <ele>105.4</ele>
        <time>2019-05-24T10:46:55Z</time>
      </trkpt>
      <trkpt lat="40.68477" lon="-8.48686">
        <ele>105.4</ele>
        <time>2019-05-24T10:47:10Z</time>
      </trkpt>
      <trkpt lat="40.68478" lon="-8.48679">
        <ele>104.92</ele>
        <time>2019-05-24T10:47:16Z</time>
      </trkpt>
      <trkpt lat="40.68477" lon="-8.48674">
        <ele>104.92</ele>
        <time>2019-05-24T10:47:19Z</time>
      </trkpt>
      <trkpt lat="40.68468" lon="-8.48655">
        <ele>104.92</ele>
        <time>2019-05-24T10:47:33Z</time>
      </trkpt>
      <trkpt lat="40.68458" lon="-8.48648">
        <ele>104.44</ele>
        <time>2019-05-24T10:47:45Z</time>
      </trkpt>
      <trkpt lat="40.68454" lon="-8.48637">
        <ele>104.44</ele>
        <time>2019-05-24T10:47:58Z</time>
      </trkpt>
      <trkpt lat="40.68457" lon="-8.48635">
        <ele>105.4</ele>
        <time>2019-05-24T10:48:13Z</time>
      </trkpt>
      <trkpt lat="40.68457" lon="-8.48634">
        <ele>104.92</ele>
        <time>2019-05-24T10:48:28Z</time>
      </trkpt>
      <trkpt lat="40.68457" lon="-8.48628">
        <ele>105.4</ele>
        <time>2019-05-24T10:48:43Z</time>
      </trkpt>
      <trkpt lat="40.68457" lon="-8.48625">
        <ele>105.4</ele>
        <time>2019-05-24T10:48:45Z</time>
      </trkpt>
      <trkpt lat="40.68455" lon="-8.4861">
        <ele>107.32</ele>
        <time>2019-05-24T10:48:57Z</time>
      </trkpt>
      <trkpt lat="40.68455" lon="-8.48608">
        <ele>107.32</ele>
        <time>2019-05-24T10:48:58Z</time>
      </trkpt>
      <trkpt lat="40.68454" lon="-8.48604">
        <ele>106.84</ele>
        <time>2019-05-24T10:49:03Z</time>
      </trkpt>
      <trkpt lat="40.68452" lon="-8.48601">
        <ele>106.84</ele>
        <time>2019-05-24T10:49:06Z</time>
      </trkpt>
      <trkpt lat="40.68454" lon="-8.48588">
        <ele>108.29</ele>
        <time>2019-05-24T10:49:17Z</time>
      </trkpt>
      <trkpt lat="40.68454" lon="-8.48581">
        <ele>108.77</ele>
        <time>2019-05-24T10:49:22Z</time>
      </trkpt>
      <trkpt lat="40.68453" lon="-8.4856">
        <ele>109.73</ele>
        <time>2019-05-24T10:49:36Z</time>
      </trkpt>
      <trkpt lat="40.68451" lon="-8.48535">
        <ele>111.65</ele>
        <time>2019-05-24T10:49:51Z</time>
      </trkpt>
      <trkpt lat="40.68451" lon="-8.48531">
        <ele>112.13</ele>
        <time>2019-05-24T10:49:54Z</time>
      </trkpt>
      <trkpt lat="40.68445" lon="-8.48505">
        <ele>112.13</ele>
        <time>2019-05-24T10:50:10Z</time>
      </trkpt>
      <trkpt lat="40.68445" lon="-8.48495">
        <ele>113.57</ele>
        <time>2019-05-24T10:50:17Z</time>
      </trkpt>
      <trkpt lat="40.68451" lon="-8.48479">
        <ele>114.53</ele>
        <time>2019-05-24T10:50:31Z</time>
      </trkpt>
      <trkpt lat="40.68456" lon="-8.48468">
        <ele>114.53</ele>
        <time>2019-05-24T10:50:45Z</time>
      </trkpt>
      <trkpt lat="40.68465" lon="-8.48459">
        <ele>115.5</ele>
        <time>2019-05-24T10:50:58Z</time>
      </trkpt>
      <trkpt lat="40.68467" lon="-8.48458">
        <ele>115.98</ele>
        <time>2019-05-24T10:51:00Z</time>
      </trkpt>
      <trkpt lat="40.68481" lon="-8.48451">
        <ele>116.94</ele>
        <time>2019-05-24T10:51:16Z</time>
      </trkpt>
      <trkpt lat="40.68495" lon="-8.48444">
        <ele>117.42</ele>
        <time>2019-05-24T10:51:30Z</time>
      </trkpt>
      <trkpt lat="40.68507" lon="-8.4844">
        <ele>117.9</ele>
        <time>2019-05-24T10:51:42Z</time>
      </trkpt>
      <trkpt lat="40.68521" lon="-8.48438">
        <ele>117.9</ele>
        <time>2019-05-24T10:51:56Z</time>
      </trkpt>
      <trkpt lat="40.68539" lon="-8.48432">
        <ele>118.86</ele>
        <time>2019-05-24T10:52:11Z</time>
      </trkpt>
      <trkpt lat="40.68554" lon="-8.4843">
        <ele>119.82</ele>
        <time>2019-05-24T10:52:24Z</time>
      </trkpt>
      <trkpt lat="40.68567" lon="-8.48426">
        <ele>119.34</ele>
        <time>2019-05-24T10:52:35Z</time>
      </trkpt>
      <trkpt lat="40.68583" lon="-8.48423">
        <ele>118.38</ele>
        <time>2019-05-24T10:52:50Z</time>
      </trkpt>
      <trkpt lat="40.686" lon="-8.48422">
        <ele>120.3</ele>
        <time>2019-05-24T10:53:05Z</time>
      </trkpt>
      <trkpt lat="40.68618" lon="-8.48421">
        <ele>120.3</ele>
        <time>2019-05-24T10:53:20Z</time>
      </trkpt>
      <trkpt lat="40.68633" lon="-8.48421">
        <ele>121.74</ele>
        <time>2019-05-24T10:53:35Z</time>
      </trkpt>
      <trkpt lat="40.68642" lon="-8.48416">
        <ele>121.74</ele>
        <time>2019-05-24T10:53:47Z</time>
      </trkpt>
      <trkpt lat="40.68649" lon="-8.48407">
        <ele>122.22</ele>
        <time>2019-05-24T10:54:07Z</time>
      </trkpt>
      <trkpt lat="40.68658" lon="-8.484">
        <ele>122.22</ele>
        <time>2019-05-24T10:54:18Z</time>
      </trkpt>
      <trkpt lat="40.68673" lon="-8.4839">
        <ele>122.22</ele>
        <time>2019-05-24T10:54:34Z</time>
      </trkpt>
      <trkpt lat="40.68681" lon="-8.48388">
        <ele>121.74</ele>
        <time>2019-05-24T10:54:44Z</time>
      </trkpt>
      <trkpt lat="40.68688" lon="-8.4838">
        <ele>121.74</ele>
        <time>2019-05-24T10:54:56Z</time>
      </trkpt>
      <trkpt lat="40.68696" lon="-8.4837">
        <ele>122.22</ele>
        <time>2019-05-24T10:55:08Z</time>
      </trkpt>
      <trkpt lat="40.68709" lon="-8.48355">
        <ele>122.71</ele>
        <time>2019-05-24T10:55:21Z</time>
      </trkpt>
      <trkpt lat="40.68721" lon="-8.48341">
        <ele>121.74</ele>
        <time>2019-05-24T10:55:33Z</time>
      </trkpt>
      <trkpt lat="40.68738" lon="-8.48324">
        <ele>121.74</ele>
        <time>2019-05-24T10:55:48Z</time>
      </trkpt>
      <trkpt lat="40.68749" lon="-8.48312">
        <ele>121.74</ele>
        <time>2019-05-24T10:56:00Z</time>
      </trkpt>
      <trkpt lat="40.68757" lon="-8.48302">
        <ele>121.74</ele>
        <time>2019-05-24T10:56:13Z</time>
      </trkpt>
      <trkpt lat="40.68766" lon="-8.48293">
        <ele>121.26</ele>
        <time>2019-05-24T10:56:27Z</time>
      </trkpt>
      <trkpt lat="40.68774" lon="-8.48284">
        <ele>121.26</ele>
        <time>2019-05-24T10:56:40Z</time>
      </trkpt>
      <trkpt lat="40.68795" lon="-8.48276">
        <ele>122.22</ele>
        <time>2019-05-24T10:56:52Z</time>
      </trkpt>
      <trkpt lat="40.68801" lon="-8.48265">
        <ele>121.74</ele>
        <time>2019-05-24T10:57:02Z</time>
      </trkpt>
      <trkpt lat="40.68816" lon="-8.48248">
        <ele>121.26</ele>
        <time>2019-05-24T10:57:15Z</time>
      </trkpt>
      <trkpt lat="40.68826" lon="-8.48235">
        <ele>120.78</ele>
        <time>2019-05-24T10:57:30Z</time>
      </trkpt>
      <trkpt lat="40.68834" lon="-8.4823">
        <ele>121.74</ele>
        <time>2019-05-24T10:57:47Z</time>
      </trkpt>
      <trkpt lat="40.68849" lon="-8.48213">
        <ele>121.74</ele>
        <time>2019-05-24T10:58:03Z</time>
      </trkpt>
      <trkpt lat="40.68869" lon="-8.48196">
        <ele>120.3</ele>
        <time>2019-05-24T10:58:19Z</time>
      </trkpt>
      <trkpt lat="40.6888" lon="-8.48188">
        <ele>120.78</ele>
        <time>2019-05-24T10:58:27Z</time>
      </trkpt>
      <trkpt lat="40.68885" lon="-8.48178">
        <ele>120.78</ele>
        <time>2019-05-24T10:58:38Z</time>
      </trkpt>
      <trkpt lat="40.68892" lon="-8.48168">
        <ele>120.78</ele>
        <time>2019-05-24T10:58:51Z</time>
      </trkpt>
      <trkpt lat="40.68903" lon="-8.48152">
        <ele>120.78</ele>
        <time>2019-05-24T10:59:06Z</time>
      </trkpt>
      <trkpt lat="40.68905" lon="-8.4815">
        <ele>120.78</ele>
        <time>2019-05-24T10:59:07Z</time>
      </trkpt>
      <trkpt lat="40.68909" lon="-8.48141">
        <ele>120.3</ele>
        <time>2019-05-24T10:59:15Z</time>
      </trkpt>
      <trkpt lat="40.68911" lon="-8.48135">
        <ele>119.82</ele>
        <time>2019-05-24T10:59:19Z</time>
      </trkpt>
      <trkpt lat="40.68915" lon="-8.48127">
        <ele>120.78</ele>
        <time>2019-05-24T10:59:25Z</time>
      </trkpt>
      <trkpt lat="40.68922" lon="-8.4812">
        <ele>120.78</ele>
        <time>2019-05-24T10:59:33Z</time>
      </trkpt>
      <trkpt lat="40.68937" lon="-8.4812">
        <ele>120.78</ele>
        <time>2019-05-24T10:59:46Z</time>
      </trkpt>
      <trkpt lat="40.68941" lon="-8.48113">
        <ele>120.78</ele>
        <time>2019-05-24T10:59:58Z</time>
      </trkpt>
      <trkpt lat="40.68939" lon="-8.48108">
        <ele>120.3</ele>
        <time>2019-05-24T11:00:15Z</time>
      </trkpt>
      <trkpt lat="40.68937" lon="-8.48106">
        <ele>120.78</ele>
        <time>2019-05-24T11:00:35Z</time>
      </trkpt>
      <trkpt lat="40.68943" lon="-8.48109">
        <ele>120.78</ele>
        <time>2019-05-24T11:00:55Z</time>
      </trkpt>
      <trkpt lat="40.68945" lon="-8.4811">
        <ele>120.78</ele>
        <time>2019-05-24T11:01:22Z</time>
      </trkpt>
      <trkpt lat="40.6894" lon="-8.48111">
        <ele>120.3</ele>
        <time>2019-05-24T11:01:47Z</time>
      </trkpt>
      <trkpt lat="40.68944" lon="-8.48113">
        <ele>120.3</ele>
        <time>2019-05-24T11:02:02Z</time>
      </trkpt>
      <trkpt lat="40.68944" lon="-8.48113">
        <ele>119.34</ele>
        <time>2019-05-24T11:02:23Z</time>
      </trkpt>
      <trkpt lat="40.6895" lon="-8.48116">
        <ele>119.82</ele>
        <time>2019-05-24T11:03:03Z</time>
      </trkpt>
      <trkpt lat="40.68955" lon="-8.48119">
        <ele>119.34</ele>
        <time>2019-05-24T11:03:45Z</time>
      </trkpt>
      <trkpt lat="40.68948" lon="-8.48113">
        <ele>119.34</ele>
        <time>2019-05-24T11:04:31Z</time>
      </trkpt>
      <trkpt lat="40.68944" lon="-8.48114">
        <ele>118.86</ele>
        <time>2019-05-24T11:05:01Z</time>
      </trkpt>
      <trkpt lat="40.68937" lon="-8.48115">
        <ele>119.34</ele>
        <time>2019-05-24T11:05:40Z</time>
      </trkpt>
      <trkpt lat="40.68931" lon="-8.48118">
        <ele>118.38</ele>
        <time>2019-05-24T11:06:20Z</time>
      </trkpt>
      <trkpt lat="40.68935" lon="-8.48121">
        <ele>117.9</ele>
        <time>2019-05-24T11:06:59Z</time>
      </trkpt>
      <trkpt lat="40.68944" lon="-8.48121">
        <ele>117.9</ele>
        <time>2019-05-24T11:07:38Z</time>
      </trkpt>
      <trkpt lat="40.6894" lon="-8.48118">
        <ele>117.42</ele>
        <time>2019-05-24T11:08:23Z</time>
      </trkpt>
      <trkpt lat="40.68947" lon="-8.48117">
        <ele>117.42</ele>
        <time>2019-05-24T11:09:02Z</time>
      </trkpt>
      <trkpt lat="40.6895" lon="-8.48121">
        <ele>117.42</ele>
        <time>2019-05-24T11:09:35Z</time>
      </trkpt>
      <trkpt lat="40.68945" lon="-8.48121">
        <ele>116.94</ele>
        <time>2019-05-24T11:10:16Z</time>
      </trkpt>
      <trkpt lat="40.68941" lon="-8.48117">
        <ele>117.42</ele>
        <time>2019-05-24T11:10:55Z</time>
      </trkpt>
      <trkpt lat="40.68932" lon="-8.48115">
        <ele>116.94</ele>
        <time>2019-05-24T11:11:35Z</time>
      </trkpt>
      <trkpt lat="40.68934" lon="-8.48115">
        <ele>115.98</ele>
        <time>2019-05-24T11:12:11Z</time>
      </trkpt>
      <trkpt lat="40.68932" lon="-8.48115">
        <ele>115.98</ele>
        <time>2019-05-24T11:12:46Z</time>
      </trkpt>
      <trkpt lat="40.68939" lon="-8.48113">
        <ele>115.98</ele>
        <time>2019-05-24T11:13:29Z</time>
      </trkpt>
      <trkpt lat="40.68943" lon="-8.48112">
        <ele>115.5</ele>
        <time>2019-05-24T11:14:10Z</time>
      </trkpt>
      <trkpt lat="40.68948" lon="-8.48115">
        <ele>114.53</ele>
        <time>2019-05-24T11:14:55Z</time>
      </trkpt>
      <trkpt lat="40.68945" lon="-8.48118">
        <ele>114.53</ele>
        <time>2019-05-24T11:15:35Z</time>
      </trkpt>
      <trkpt lat="40.68936" lon="-8.48121">
        <ele>114.53</ele>
        <time>2019-05-24T11:16:24Z</time>
      </trkpt>
      <trkpt lat="40.68936" lon="-8.48138">
        <ele>113.57</ele>
        <time>2019-05-24T11:17:13Z</time>
      </trkpt>
      <trkpt lat="40.68939" lon="-8.48135">
        <ele>114.05</ele>
        <time>2019-05-24T11:17:47Z</time>
      </trkpt>
      <trkpt lat="40.68942" lon="-8.48121">
        <ele>113.09</ele>
        <time>2019-05-24T11:18:27Z</time>
      </trkpt>
      <trkpt lat="40.68943" lon="-8.48113">
        <ele>114.05</ele>
        <time>2019-05-24T11:19:08Z</time>
      </trkpt>
      <trkpt lat="40.68945" lon="-8.4811">
        <ele>114.53</ele>
        <time>2019-05-24T11:19:57Z</time>
      </trkpt>
      <trkpt lat="40.68948" lon="-8.48106">
        <ele>113.57</ele>
        <time>2019-05-24T11:20:40Z</time>
      </trkpt>
      <trkpt lat="40.68945" lon="-8.48102">
        <ele>113.57</ele>
        <time>2019-05-24T11:21:17Z</time>
      </trkpt>
      <trkpt lat="40.68943" lon="-8.48108">
        <ele>113.09</ele>
        <time>2019-05-24T11:21:58Z</time>
      </trkpt>
      <trkpt lat="40.68937" lon="-8.48108">
        <ele>112.61</ele>
        <time>2019-05-24T11:22:36Z</time>
      </trkpt>
      <trkpt lat="40.68932" lon="-8.48101">
        <ele>113.09</ele>
        <time>2019-05-24T11:23:16Z</time>
      </trkpt>
      <trkpt lat="40.68941" lon="-8.48109">
        <ele>113.09</ele>
        <time>2019-05-24T11:24:04Z</time>
      </trkpt>
      <trkpt lat="40.6894" lon="-8.48112">
        <ele>112.61</ele>
        <time>2019-05-24T11:24:44Z</time>
      </trkpt>
      <trkpt lat="40.68936" lon="-8.48095">
        <ele>111.65</ele>
        <time>2019-05-24T11:25:30Z</time>
      </trkpt>
      <trkpt lat="40.68938" lon="-8.481">
        <ele>112.13</ele>
        <time>2019-05-24T11:25:59Z</time>
      </trkpt>
      <trkpt lat="40.6894" lon="-8.48103">
        <ele>111.65</ele>
        <time>2019-05-24T11:26:29Z</time>
      </trkpt>
      <trkpt lat="40.68938" lon="-8.48113">
        <ele>112.61</ele>
        <time>2019-05-24T11:27:15Z</time>
      </trkpt>
      <trkpt lat="40.68941" lon="-8.48116">
        <ele>113.09</ele>
        <time>2019-05-24T11:27:57Z</time>
      </trkpt>
      <trkpt lat="40.68944" lon="-8.48115">
        <ele>112.61</ele>
        <time>2019-05-24T11:28:33Z</time>
      </trkpt>
      <trkpt lat="40.68944" lon="-8.48114">
        <ele>113.09</ele>
        <time>2019-05-24T11:29:10Z</time>
      </trkpt>
      <trkpt lat="40.68946" lon="-8.48113">
        <ele>113.09</ele>
        <time>2019-05-24T11:29:34Z</time>
      </trkpt>
      <trkpt lat="40.68942" lon="-8.48114">
        <ele>112.13</ele>
        <time>2019-05-24T11:30:05Z</time>
      </trkpt>
      <trkpt lat="40.68941" lon="-8.4811">
        <ele>113.09</ele>
        <time>2019-05-24T11:30:31Z</time>
      </trkpt>
      <trkpt lat="40.68943" lon="-8.48107">
        <ele>113.09</ele>
        <time>2019-05-24T11:30:55Z</time>
      </trkpt>
      <trkpt lat="40.68947" lon="-8.4811">
        <ele>113.57</ele>
        <time>2019-05-24T11:31:24Z</time>
      </trkpt>
      <trkpt lat="40.68958" lon="-8.48112">
        <ele>114.53</ele>
        <time>2019-05-24T11:31:40Z</time>
      </trkpt>
      <trkpt lat="40.68959" lon="-8.48109">
        <ele>114.05</ele>
        <time>2019-05-24T11:31:55Z</time>
      </trkpt>
      <trkpt lat="40.68962" lon="-8.48102">
        <ele>114.05</ele>
        <time>2019-05-24T11:32:08Z</time>
      </trkpt>
      <trkpt lat="40.68964" lon="-8.48093">
        <ele>114.53</ele>
        <time>2019-05-24T11:32:24Z</time>
      </trkpt>
      <trkpt lat="40.68964" lon="-8.48092">
        <ele>114.53</ele>
        <time>2019-05-24T11:32:28Z</time>
      </trkpt>
      <trkpt lat="40.68978" lon="-8.48082">
        <ele>114.05</ele>
        <time>2019-05-24T11:32:44Z</time>
      </trkpt>
      <trkpt lat="40.68981" lon="-8.48079">
        <ele>113.57</ele>
        <time>2019-05-24T11:32:59Z</time>
      </trkpt>
      <trkpt lat="40.68985" lon="-8.48078">
        <ele>114.05</ele>
        <time>2019-05-24T11:33:12Z</time>
      </trkpt>
      <trkpt lat="40.68995" lon="-8.48071">
        <ele>113.57</ele>
        <time>2019-05-24T11:33:26Z</time>
      </trkpt>
      <trkpt lat="40.69" lon="-8.48072">
        <ele>114.05</ele>
        <time>2019-05-24T11:33:42Z</time>
      </trkpt>
      <trkpt lat="40.69002" lon="-8.48067">
        <ele>113.57</ele>
        <time>2019-05-24T11:34:04Z</time>
      </trkpt>
      <trkpt lat="40.69003" lon="-8.48065">
        <ele>114.05</ele>
        <time>2019-05-24T11:34:21Z</time>
      </trkpt>
      <trkpt lat="40.69009" lon="-8.48058">
        <ele>115.01</ele>
        <time>2019-05-24T11:34:40Z</time>
      </trkpt>
      <trkpt lat="40.6902" lon="-8.48044">
        <ele>114.05</ele>
        <time>2019-05-24T11:34:56Z</time>
      </trkpt>
      <trkpt lat="40.6903" lon="-8.48035">
        <ele>114.53</ele>
        <time>2019-05-24T11:35:11Z</time>
      </trkpt>
      <trkpt lat="40.69037" lon="-8.48028">
        <ele>115.01</ele>
        <time>2019-05-24T11:35:22Z</time>
      </trkpt>
      <trkpt lat="40.69045" lon="-8.48017">
        <ele>114.05</ele>
        <time>2019-05-24T11:35:34Z</time>
      </trkpt>
      <trkpt lat="40.69053" lon="-8.48007">
        <ele>114.05</ele>
        <time>2019-05-24T11:35:47Z</time>
      </trkpt>
      <trkpt lat="40.69063" lon="-8.47995">
        <ele>114.53</ele>
        <time>2019-05-24T11:36:00Z</time>
      </trkpt>
      <trkpt lat="40.69069" lon="-8.4799">
        <ele>114.53</ele>
        <time>2019-05-24T11:36:08Z</time>
      </trkpt>
      <trkpt lat="40.69079" lon="-8.47982">
        <ele>114.53</ele>
        <time>2019-05-24T11:36:22Z</time>
      </trkpt>
      <trkpt lat="40.69084" lon="-8.47981">
        <ele>115.01</ele>
        <time>2019-05-24T11:36:38Z</time>
      </trkpt>
      <trkpt lat="40.69087" lon="-8.47978">
        <ele>114.53</ele>
        <time>2019-05-24T11:36:57Z</time>
      </trkpt>
      <trkpt lat="40.69087" lon="-8.47975">
        <ele>114.05</ele>
        <time>2019-05-24T11:37:20Z</time>
      </trkpt>
      <trkpt lat="40.69089" lon="-8.47984">
        <ele>113.57</ele>
        <time>2019-05-24T11:37:35Z</time>
      </trkpt>
      <trkpt lat="40.69094" lon="-8.47985">
        <ele>114.05</ele>
        <time>2019-05-24T11:37:47Z</time>
      </trkpt>
      <trkpt lat="40.69105" lon="-8.47984">
        <ele>114.53</ele>
        <time>2019-05-24T11:38:00Z</time>
      </trkpt>
      <trkpt lat="40.69113" lon="-8.47987">
        <ele>114.53</ele>
        <time>2019-05-24T11:38:16Z</time>
      </trkpt>
      <trkpt lat="40.69117" lon="-8.47985">
        <ele>115.5</ele>
        <time>2019-05-24T11:38:30Z</time>
      </trkpt>
      <trkpt lat="40.69114" lon="-8.47984">
        <ele>115.01</ele>
        <time>2019-05-24T11:38:45Z</time>
      </trkpt>
      <trkpt lat="40.69121" lon="-8.47981">
        <ele>115.01</ele>
        <time>2019-05-24T11:39:00Z</time>
      </trkpt>
      <trkpt lat="40.69131" lon="-8.4798">
        <ele>115.01</ele>
        <time>2019-05-24T11:39:18Z</time>
      </trkpt>
      <trkpt lat="40.69146" lon="-8.47973">
        <ele>115.5</ele>
        <time>2019-05-24T11:39:34Z</time>
      </trkpt>
      <trkpt lat="40.69146" lon="-8.47972">
        <ele>115.5</ele>
        <time>2019-05-24T11:39:50Z</time>
      </trkpt>
      <trkpt lat="40.69147" lon="-8.47971">
        <ele>115.5</ele>
        <time>2019-05-24T11:39:53Z</time>
      </trkpt>
      <trkpt lat="40.69153" lon="-8.47973">
        <ele>115.5</ele>
        <time>2019-05-24T11:40:06Z</time>
      </trkpt>
      <trkpt lat="40.69154" lon="-8.47979">
        <ele>115.01</ele>
        <time>2019-05-24T11:40:29Z</time>
      </trkpt>
      <trkpt lat="40.69152" lon="-8.47977">
        <ele>115.01</ele>
        <time>2019-05-24T11:40:51Z</time>
      </trkpt>
      <trkpt lat="40.69148" lon="-8.4798">
        <ele>115.5</ele>
        <time>2019-05-24T11:41:16Z</time>
      </trkpt>
      <trkpt lat="40.69149" lon="-8.47978">
        <ele>115.98</ele>
        <time>2019-05-24T11:41:39Z</time>
      </trkpt>
      <trkpt lat="40.69157" lon="-8.47962">
        <ele>115.5</ele>
        <time>2019-05-24T11:41:52Z</time>
      </trkpt>
      <trkpt lat="40.69164" lon="-8.47951">
        <ele>115.01</ele>
        <time>2019-05-24T11:42:05Z</time>
      </trkpt>
      <trkpt lat="40.69175" lon="-8.47937">
        <ele>115.98</ele>
        <time>2019-05-24T11:42:19Z</time>
      </trkpt>
      <trkpt lat="40.69185" lon="-8.4793">
        <ele>116.46</ele>
        <time>2019-05-24T11:42:31Z</time>
      </trkpt>
      <trkpt lat="40.69197" lon="-8.47916">
        <ele>115.98</ele>
        <time>2019-05-24T11:42:44Z</time>
      </trkpt>
      <trkpt lat="40.69205" lon="-8.47906">
        <ele>115.5</ele>
        <time>2019-05-24T11:42:54Z</time>
      </trkpt>
      <trkpt lat="40.69211" lon="-8.47896">
        <ele>115.5</ele>
        <time>2019-05-24T11:43:05Z</time>
      </trkpt>
      <trkpt lat="40.69214" lon="-8.47893">
        <ele>115.98</ele>
        <time>2019-05-24T11:43:09Z</time>
      </trkpt>
      <trkpt lat="40.69223" lon="-8.47881">
        <ele>116.94</ele>
        <time>2019-05-24T11:43:22Z</time>
      </trkpt>
      <trkpt lat="40.69224" lon="-8.47875">
        <ele>116.94</ele>
        <time>2019-05-24T11:43:26Z</time>
      </trkpt>
      <trkpt lat="40.69225" lon="-8.47871">
        <ele>117.42</ele>
        <time>2019-05-24T11:43:29Z</time>
      </trkpt>
      <trkpt lat="40.6923" lon="-8.47875">
        <ele>116.94</ele>
        <time>2019-05-24T11:43:42Z</time>
      </trkpt>
      <trkpt lat="40.69262" lon="-8.47894">
        <ele>117.42</ele>
        <time>2019-05-24T11:44:00Z</time>
      </trkpt>
      <trkpt lat="40.69272" lon="-8.47895">
        <ele>117.9</ele>
        <time>2019-05-24T11:44:18Z</time>
      </trkpt>
      <trkpt lat="40.69271" lon="-8.47896">
        <ele>117.9</ele>
        <time>2019-05-24T11:44:32Z</time>
      </trkpt>
      <trkpt lat="40.69266" lon="-8.47896">
        <ele>117.9</ele>
        <time>2019-05-24T11:44:57Z</time>
      </trkpt>
      <trkpt lat="40.6927" lon="-8.47895">
        <ele>118.86</ele>
        <time>2019-05-24T11:45:21Z</time>
      </trkpt>
      <trkpt lat="40.69267" lon="-8.47901">
        <ele>118.38</ele>
        <time>2019-05-24T11:45:33Z</time>
      </trkpt>
      <trkpt lat="40.6927" lon="-8.47914">
        <ele>119.82</ele>
        <time>2019-05-24T11:45:44Z</time>
      </trkpt>
      <trkpt lat="40.69286" lon="-8.47932">
        <ele>118.86</ele>
        <time>2019-05-24T11:46:01Z</time>
      </trkpt>
      <trkpt lat="40.69296" lon="-8.47941">
        <ele>120.3</ele>
        <time>2019-05-24T11:46:13Z</time>
      </trkpt>
      <trkpt lat="40.693" lon="-8.47946">
        <ele>120.3</ele>
        <time>2019-05-24T11:46:16Z</time>
      </trkpt>
      <trkpt lat="40.69303" lon="-8.47961">
        <ele>121.26</ele>
        <time>2019-05-24T11:46:30Z</time>
      </trkpt>
      <trkpt lat="40.69305" lon="-8.47972">
        <ele>120.78</ele>
        <time>2019-05-24T11:46:49Z</time>
      </trkpt>
      <trkpt lat="40.69311" lon="-8.4797">
        <ele>122.22</ele>
        <time>2019-05-24T11:47:05Z</time>
      </trkpt>
      <trkpt lat="40.69314" lon="-8.47976">
        <ele>122.71</ele>
        <time>2019-05-24T11:47:17Z</time>
      </trkpt>
      <trkpt lat="40.69329" lon="-8.4799">
        <ele>124.63</ele>
        <time>2019-05-24T11:47:30Z</time>
      </trkpt>
      <trkpt lat="40.69342" lon="-8.47995">
        <ele>123.67</ele>
        <time>2019-05-24T11:47:43Z</time>
      </trkpt>
      <trkpt lat="40.69353" lon="-8.47999">
        <ele>124.15</ele>
        <time>2019-05-24T11:47:57Z</time>
      </trkpt>
      <trkpt lat="40.69361" lon="-8.48008">
        <ele>125.59</ele>
        <time>2019-05-24T11:48:11Z</time>
      </trkpt>
      <trkpt lat="40.6937" lon="-8.48015">
        <ele>126.07</ele>
        <time>2019-05-24T11:48:24Z</time>
      </trkpt>
      <trkpt lat="40.69386" lon="-8.48015">
        <ele>126.55</ele>
        <time>2019-05-24T11:48:37Z</time>
      </trkpt>
      <trkpt lat="40.69401" lon="-8.48014">
        <ele>126.55</ele>
        <time>2019-05-24T11:48:49Z</time>
      </trkpt>
      <trkpt lat="40.69405" lon="-8.48014">
        <ele>127.03</ele>
        <time>2019-05-24T11:48:52Z</time>
      </trkpt>
      <trkpt lat="40.6942" lon="-8.48015">
        <ele>127.51</ele>
        <time>2019-05-24T11:49:05Z</time>
      </trkpt>
      <trkpt lat="40.6943" lon="-8.48015">
        <ele>127.51</ele>
        <time>2019-05-24T11:49:17Z</time>
      </trkpt>
      <trkpt lat="40.69446" lon="-8.48015">
        <ele>127.99</ele>
        <time>2019-05-24T11:49:31Z</time>
      </trkpt>
      <trkpt lat="40.69453" lon="-8.48017">
        <ele>129.92</ele>
        <time>2019-05-24T11:49:37Z</time>
      </trkpt>
      <trkpt lat="40.69462" lon="-8.48014">
        <ele>127.51</ele>
        <time>2019-05-24T11:49:51Z</time>
      </trkpt>
      <trkpt lat="40.69468" lon="-8.48013">
        <ele>128.95</ele>
        <time>2019-05-24T11:49:57Z</time>
      </trkpt>
      <trkpt lat="40.69474" lon="-8.48014">
        <ele>128.95</ele>
        <time>2019-05-24T11:50:02Z</time>
      </trkpt>
      <trkpt lat="40.69488" lon="-8.48011">
        <ele>130.4</ele>
        <time>2019-05-24T11:50:15Z</time>
      </trkpt>
      <trkpt lat="40.695" lon="-8.48012">
        <ele>129.92</ele>
        <time>2019-05-24T11:50:32Z</time>
      </trkpt>
      <trkpt lat="40.69504" lon="-8.48012">
        <ele>130.88</ele>
        <time>2019-05-24T11:50:38Z</time>
      </trkpt>
      <trkpt lat="40.69529" lon="-8.48024">
        <ele>130.88</ele>
        <time>2019-05-24T11:50:52Z</time>
      </trkpt>
      <trkpt lat="40.69543" lon="-8.48028">
        <ele>130.4</ele>
        <time>2019-05-24T11:51:04Z</time>
      </trkpt>
      <trkpt lat="40.69557" lon="-8.48033">
        <ele>130.4</ele>
        <time>2019-05-24T11:51:17Z</time>
      </trkpt>
      <trkpt lat="40.69563" lon="-8.48035">
        <ele>130.88</ele>
        <time>2019-05-24T11:51:23Z</time>
      </trkpt>
      <trkpt lat="40.69566" lon="-8.48035">
        <ele>130.88</ele>
        <time>2019-05-24T11:51:26Z</time>
      </trkpt>
      <trkpt lat="40.69568" lon="-8.48035">
        <ele>130.88</ele>
        <time>2019-05-24T11:51:28Z</time>
      </trkpt>
      <trkpt lat="40.69589" lon="-8.48035">
        <ele>131.36</ele>
        <time>2019-05-24T11:51:43Z</time>
      </trkpt>
      <trkpt lat="40.69595" lon="-8.48035">
        <ele>130.4</ele>
        <time>2019-05-24T11:51:58Z</time>
      </trkpt>
      <trkpt lat="40.69606" lon="-8.48038">
        <ele>131.84</ele>
        <time>2019-05-24T11:52:09Z</time>
      </trkpt>
      <trkpt lat="40.69615" lon="-8.48044">
        <ele>132.8</ele>
        <time>2019-05-24T11:52:21Z</time>
      </trkpt>
      <trkpt lat="40.69628" lon="-8.48048">
        <ele>132.32</ele>
        <time>2019-05-24T11:52:32Z</time>
      </trkpt>
      <trkpt lat="40.69637" lon="-8.48052">
        <ele>132.8</ele>
        <time>2019-05-24T11:52:43Z</time>
      </trkpt>
      <trkpt lat="40.69646" lon="-8.48056">
        <ele>131.84</ele>
        <time>2019-05-24T11:52:52Z</time>
      </trkpt>
      <trkpt lat="40.69659" lon="-8.4806">
        <ele>132.8</ele>
        <time>2019-05-24T11:53:05Z</time>
      </trkpt>
      <trkpt lat="40.69663" lon="-8.48055">
        <ele>132.32</ele>
        <time>2019-05-24T11:53:16Z</time>
      </trkpt>
      <trkpt lat="40.69675" lon="-8.48059">
        <ele>133.76</ele>
        <time>2019-05-24T11:53:29Z</time>
      </trkpt>
      <trkpt lat="40.69685" lon="-8.48057">
        <ele>133.76</ele>
        <time>2019-05-24T11:53:44Z</time>
      </trkpt>
      <trkpt lat="40.69702" lon="-8.48056">
        <ele>134.72</ele>
        <time>2019-05-24T11:53:58Z</time>
      </trkpt>
      <trkpt lat="40.69708" lon="-8.48053">
        <ele>134.24</ele>
        <time>2019-05-24T11:54:04Z</time>
      </trkpt>
      <trkpt lat="40.69721" lon="-8.48051">
        <ele>134.72</ele>
        <time>2019-05-24T11:54:15Z</time>
      </trkpt>
      <trkpt lat="40.69722" lon="-8.48051">
        <ele>134.72</ele>
        <time>2019-05-24T11:54:16Z</time>
      </trkpt>
      <trkpt lat="40.69728" lon="-8.48051">
        <ele>134.72</ele>
        <time>2019-05-24T11:54:21Z</time>
      </trkpt>
      <trkpt lat="40.69735" lon="-8.48051">
        <ele>134.72</ele>
        <time>2019-05-24T11:54:31Z</time>
      </trkpt>
      <trkpt lat="40.6974" lon="-8.48051">
        <ele>136.64</ele>
        <time>2019-05-24T11:54:36Z</time>
      </trkpt>
      <trkpt lat="40.69749" lon="-8.48051">
        <ele>135.2</ele>
        <time>2019-05-24T11:54:44Z</time>
      </trkpt>
      <trkpt lat="40.69756" lon="-8.4805">
        <ele>135.68</ele>
        <time>2019-05-24T11:54:50Z</time>
      </trkpt>
      <trkpt lat="40.69764" lon="-8.48049">
        <ele>135.68</ele>
        <time>2019-05-24T11:54:55Z</time>
      </trkpt>
      <trkpt lat="40.6977" lon="-8.48049">
        <ele>136.16</ele>
        <time>2019-05-24T11:54:59Z</time>
      </trkpt>
      <trkpt lat="40.69784" lon="-8.48049">
        <ele>137.13</ele>
        <time>2019-05-24T11:55:09Z</time>
      </trkpt>
      <trkpt lat="40.69799" lon="-8.48049">
        <ele>137.13</ele>
        <time>2019-05-24T11:55:22Z</time>
      </trkpt>
      <trkpt lat="40.69812" lon="-8.48048">
        <ele>137.13</ele>
        <time>2019-05-24T11:55:34Z</time>
      </trkpt>
      <trkpt lat="40.69827" lon="-8.48048">
        <ele>138.57</ele>
        <time>2019-05-24T11:55:47Z</time>
      </trkpt>
      <trkpt lat="40.69845" lon="-8.48047">
        <ele>139.05</ele>
        <time>2019-05-24T11:56:01Z</time>
      </trkpt>
      <trkpt lat="40.69859" lon="-8.48045">
        <ele>139.53</ele>
        <time>2019-05-24T11:56:14Z</time>
      </trkpt>
      <trkpt lat="40.69865" lon="-8.48044">
        <ele>139.53</ele>
        <time>2019-05-24T11:56:19Z</time>
      </trkpt>
      <trkpt lat="40.6988" lon="-8.48043">
        <ele>139.53</ele>
        <time>2019-05-24T11:56:32Z</time>
      </trkpt>
      <trkpt lat="40.69895" lon="-8.48045">
        <ele>139.05</ele>
        <time>2019-05-24T11:56:46Z</time>
      </trkpt>
      <trkpt lat="40.69912" lon="-8.48041">
        <ele>138.57</ele>
        <time>2019-05-24T11:57:01Z</time>
      </trkpt>
      <trkpt lat="40.69934" lon="-8.48039">
        <ele>138.57</ele>
        <time>2019-05-24T11:57:16Z</time>
      </trkpt>
      <trkpt lat="40.69936" lon="-8.4804">
        <ele>138.09</ele>
        <time>2019-05-24T11:57:18Z</time>
      </trkpt>
      <trkpt lat="40.69939" lon="-8.48042">
        <ele>138.09</ele>
        <time>2019-05-24T11:57:20Z</time>
      </trkpt>
      <trkpt lat="40.69953" lon="-8.48042">
        <ele>140.97</ele>
        <time>2019-05-24T11:57:31Z</time>
      </trkpt>
      <trkpt lat="40.69965" lon="-8.48042">
        <ele>139.05</ele>
        <time>2019-05-24T11:57:41Z</time>
      </trkpt>
      <trkpt lat="40.69969" lon="-8.48043">
        <ele>139.53</ele>
        <time>2019-05-24T11:57:44Z</time>
      </trkpt>
      <trkpt lat="40.6998" lon="-8.48055">
        <ele>139.53</ele>
        <time>2019-05-24T11:57:56Z</time>
      </trkpt>
      <trkpt lat="40.69979" lon="-8.48086">
        <ele>140.01</ele>
        <time>2019-05-24T11:58:15Z</time>
      </trkpt>
      <trkpt lat="40.69981" lon="-8.48107">
        <ele>140.97</ele>
        <time>2019-05-24T11:58:30Z</time>
      </trkpt>
      <trkpt lat="40.7" lon="-8.4811">
        <ele>141.45</ele>
        <time>2019-05-24T11:58:47Z</time>
      </trkpt>
      <trkpt lat="40.70005" lon="-8.48106">
        <ele>140.97</ele>
        <time>2019-05-24T11:58:54Z</time>
      </trkpt>
      <trkpt lat="40.70023" lon="-8.48113">
        <ele>141.93</ele>
        <time>2019-05-24T11:59:10Z</time>
      </trkpt>
      <trkpt lat="40.70029" lon="-8.48122">
        <ele>140.49</ele>
        <time>2019-05-24T11:59:18Z</time>
      </trkpt>
      <trkpt lat="40.70032" lon="-8.48131">
        <ele>141.93</ele>
        <time>2019-05-24T11:59:25Z</time>
      </trkpt>
      <trkpt lat="40.70042" lon="-8.48142">
        <ele>141.93</ele>
        <time>2019-05-24T11:59:40Z</time>
      </trkpt>
      <trkpt lat="40.70046" lon="-8.4815">
        <ele>140.97</ele>
        <time>2019-05-24T11:59:51Z</time>
      </trkpt>
      <trkpt lat="40.70047" lon="-8.4815">
        <ele>141.93</ele>
        <time>2019-05-24T12:00:09Z</time>
      </trkpt>
      <trkpt lat="40.70057" lon="-8.48157">
        <ele>141.45</ele>
        <time>2019-05-24T12:00:25Z</time>
      </trkpt>
      <trkpt lat="40.7007" lon="-8.48158">
        <ele>140.01</ele>
        <time>2019-05-24T12:00:38Z</time>
      </trkpt>
      <trkpt lat="40.70085" lon="-8.48154">
        <ele>139.05</ele>
        <time>2019-05-24T12:00:52Z</time>
      </trkpt>
      <trkpt lat="40.70098" lon="-8.48145">
        <ele>138.09</ele>
        <time>2019-05-24T12:01:05Z</time>
      </trkpt>
      <trkpt lat="40.70109" lon="-8.48134">
        <ele>138.09</ele>
        <time>2019-05-24T12:01:16Z</time>
      </trkpt>
      <trkpt lat="40.70118" lon="-8.48118">
        <ele>137.61</ele>
        <time>2019-05-24T12:01:28Z</time>
      </trkpt>
      <trkpt lat="40.70133" lon="-8.48088">
        <ele>138.09</ele>
        <time>2019-05-24T12:01:51Z</time>
      </trkpt>
      <trkpt lat="40.70134" lon="-8.48079">
        <ele>138.09</ele>
        <time>2019-05-24T12:01:54Z</time>
      </trkpt>
      <trkpt lat="40.70135" lon="-8.4807">
        <ele>138.57</ele>
        <time>2019-05-24T12:01:59Z</time>
      </trkpt>
      <trkpt lat="40.70139" lon="-8.48057">
        <ele>138.57</ele>
        <time>2019-05-24T12:02:12Z</time>
      </trkpt>
      <trkpt lat="40.70148" lon="-8.48048">
        <ele>138.57</ele>
        <time>2019-05-24T12:02:25Z</time>
      </trkpt>
      <trkpt lat="40.70162" lon="-8.48038">
        <ele>139.05</ele>
        <time>2019-05-24T12:02:40Z</time>
      </trkpt>
      <trkpt lat="40.70177" lon="-8.48027">
        <ele>139.05</ele>
        <time>2019-05-24T12:02:53Z</time>
      </trkpt>
      <trkpt lat="40.70189" lon="-8.48016">
        <ele>140.97</ele>
        <time>2019-05-24T12:03:06Z</time>
      </trkpt>
      <trkpt lat="40.70195" lon="-8.48006">
        <ele>140.49</ele>
        <time>2019-05-24T12:03:21Z</time>
      </trkpt>
      <trkpt lat="40.70204" lon="-8.47982">
        <ele>141.93</ele>
        <time>2019-05-24T12:03:39Z</time>
      </trkpt>
      <trkpt lat="40.70206" lon="-8.47962">
        <ele>142.89</ele>
        <time>2019-05-24T12:03:53Z</time>
      </trkpt>
      <trkpt lat="40.70205" lon="-8.47954">
        <ele>143.85</ele>
        <time>2019-05-24T12:03:59Z</time>
      </trkpt>
      <trkpt lat="40.70203" lon="-8.47943">
        <ele>143.37</ele>
        <time>2019-05-24T12:04:12Z</time>
      </trkpt>
      <trkpt lat="40.70198" lon="-8.47926">
        <ele>144.34</ele>
        <time>2019-05-24T12:04:26Z</time>
      </trkpt>
      <trkpt lat="40.70197" lon="-8.47918">
        <ele>144.82</ele>
        <time>2019-05-24T12:04:31Z</time>
      </trkpt>
      <trkpt lat="40.70197" lon="-8.47912">
        <ele>145.3</ele>
        <time>2019-05-24T12:04:35Z</time>
      </trkpt>
      <trkpt lat="40.70204" lon="-8.47895">
        <ele>144.82</ele>
        <time>2019-05-24T12:04:50Z</time>
      </trkpt>
      <trkpt lat="40.70208" lon="-8.47888">
        <ele>145.3</ele>
        <time>2019-05-24T12:04:57Z</time>
      </trkpt>
      <trkpt lat="40.70219" lon="-8.47868">
        <ele>146.26</ele>
        <time>2019-05-24T12:05:11Z</time>
      </trkpt>
      <trkpt lat="40.7023" lon="-8.47851">
        <ele>146.26</ele>
        <time>2019-05-24T12:05:25Z</time>
      </trkpt>
      <trkpt lat="40.7024" lon="-8.47837">
        <ele>146.26</ele>
        <time>2019-05-24T12:05:39Z</time>
      </trkpt>
      <trkpt lat="40.70245" lon="-8.4783">
        <ele>147.7</ele>
        <time>2019-05-24T12:05:47Z</time>
      </trkpt>
      <trkpt lat="40.70252" lon="-8.4782">
        <ele>149.62</ele>
        <time>2019-05-24T12:06:03Z</time>
      </trkpt>
      <trkpt lat="40.70261" lon="-8.47811">
        <ele>149.62</ele>
        <time>2019-05-24T12:06:17Z</time>
      </trkpt>
      <trkpt lat="40.70266" lon="-8.47805">
        <ele>150.58</ele>
        <time>2019-05-24T12:06:24Z</time>
      </trkpt>
      <trkpt lat="40.70282" lon="-8.47798">
        <ele>152.03</ele>
        <time>2019-05-24T12:06:35Z</time>
      </trkpt>
      <trkpt lat="40.70293" lon="-8.47789">
        <ele>152.03</ele>
        <time>2019-05-24T12:06:49Z</time>
      </trkpt>
      <trkpt lat="40.70299" lon="-8.4779">
        <ele>152.99</ele>
        <time>2019-05-24T12:07:04Z</time>
      </trkpt>
      <trkpt lat="40.70313" lon="-8.47778">
        <ele>152.51</ele>
        <time>2019-05-24T12:07:20Z</time>
      </trkpt>
      <trkpt lat="40.70327" lon="-8.47769">
        <ele>152.99</ele>
        <time>2019-05-24T12:07:34Z</time>
      </trkpt>
      <trkpt lat="40.70337" lon="-8.47759">
        <ele>152.99</ele>
        <time>2019-05-24T12:07:47Z</time>
      </trkpt>
      <trkpt lat="40.70349" lon="-8.47748">
        <ele>153.95</ele>
        <time>2019-05-24T12:07:59Z</time>
      </trkpt>
      <trkpt lat="40.70357" lon="-8.47744">
        <ele>153.95</ele>
        <time>2019-05-24T12:08:12Z</time>
      </trkpt>
      <trkpt lat="40.70373" lon="-8.47732">
        <ele>152.03</ele>
        <time>2019-05-24T12:08:28Z</time>
      </trkpt>
      <trkpt lat="40.7038" lon="-8.47726">
        <ele>153.95</ele>
        <time>2019-05-24T12:08:35Z</time>
      </trkpt>
      <trkpt lat="40.70395" lon="-8.47716">
        <ele>153.95</ele>
        <time>2019-05-24T12:08:51Z</time>
      </trkpt>
      <trkpt lat="40.70408" lon="-8.47707">
        <ele>153.47</ele>
        <time>2019-05-24T12:09:05Z</time>
      </trkpt>
      <trkpt lat="40.70425" lon="-8.47701">
        <ele>153.47</ele>
        <time>2019-05-24T12:09:19Z</time>
      </trkpt>
      <trkpt lat="40.70443" lon="-8.47695">
        <ele>152.99</ele>
        <time>2019-05-24T12:09:34Z</time>
      </trkpt>
      <trkpt lat="40.70463" lon="-8.47687">
        <ele>154.43</ele>
        <time>2019-05-24T12:09:50Z</time>
      </trkpt>
      <trkpt lat="40.7047" lon="-8.47686">
        <ele>154.43</ele>
        <time>2019-05-24T12:10:05Z</time>
      </trkpt>
      <trkpt lat="40.70489" lon="-8.47683">
        <ele>154.43</ele>
        <time>2019-05-24T12:10:23Z</time>
      </trkpt>
      <trkpt lat="40.70496" lon="-8.47683">
        <ele>154.43</ele>
        <time>2019-05-24T12:10:30Z</time>
      </trkpt>
      <trkpt lat="40.70504" lon="-8.47682">
        <ele>154.91</ele>
        <time>2019-05-24T12:10:36Z</time>
      </trkpt>
      <trkpt lat="40.7052" lon="-8.4768">
        <ele>154.43</ele>
        <time>2019-05-24T12:10:50Z</time>
      </trkpt>
      <trkpt lat="40.70535" lon="-8.47677">
        <ele>155.39</ele>
        <time>2019-05-24T12:11:04Z</time>
      </trkpt>
      <trkpt lat="40.70538" lon="-8.47677">
        <ele>153.95</ele>
        <time>2019-05-24T12:11:07Z</time>
      </trkpt>
      <trkpt lat="40.7054" lon="-8.47677">
        <ele>154.91</ele>
        <time>2019-05-24T12:11:09Z</time>
      </trkpt>
      <trkpt lat="40.70556" lon="-8.47672">
        <ele>154.91</ele>
        <time>2019-05-24T12:11:22Z</time>
      </trkpt>
      <trkpt lat="40.70573" lon="-8.47665">
        <ele>154.91</ele>
        <time>2019-05-24T12:11:38Z</time>
      </trkpt>
      <trkpt lat="40.70582" lon="-8.47661">
        <ele>154.91</ele>
        <time>2019-05-24T12:11:47Z</time>
      </trkpt>
      <trkpt lat="40.70597" lon="-8.4765">
        <ele>155.39</ele>
        <time>2019-05-24T12:12:01Z</time>
      </trkpt>
      <trkpt lat="40.70613" lon="-8.47642">
        <ele>155.39</ele>
        <time>2019-05-24T12:12:14Z</time>
      </trkpt>
      <trkpt lat="40.70628" lon="-8.47635">
        <ele>155.39</ele>
        <time>2019-05-24T12:12:28Z</time>
      </trkpt>
      <trkpt lat="40.7064" lon="-8.47629">
        <ele>154.91</ele>
        <time>2019-05-24T12:12:41Z</time>
      </trkpt>
      <trkpt lat="40.70655" lon="-8.47621">
        <ele>154.91</ele>
        <time>2019-05-24T12:12:54Z</time>
      </trkpt>
      <trkpt lat="40.70676" lon="-8.47615">
        <ele>156.83</ele>
        <time>2019-05-24T12:13:09Z</time>
      </trkpt>
      <trkpt lat="40.70681" lon="-8.47611">
        <ele>155.87</ele>
        <time>2019-05-24T12:13:23Z</time>
      </trkpt>
      <trkpt lat="40.70693" lon="-8.47609">
        <ele>156.83</ele>
        <time>2019-05-24T12:13:36Z</time>
      </trkpt>
      <trkpt lat="40.70704" lon="-8.47607">
        <ele>157.31</ele>
        <time>2019-05-24T12:13:46Z</time>
      </trkpt>
      <trkpt lat="40.70712" lon="-8.47606">
        <ele>157.31</ele>
        <time>2019-05-24T12:13:52Z</time>
      </trkpt>
      <trkpt lat="40.70713" lon="-8.47606">
        <ele>157.31</ele>
        <time>2019-05-24T12:13:53Z</time>
      </trkpt>
      <trkpt lat="40.70732" lon="-8.47607">
        <ele>157.31</ele>
        <time>2019-05-24T12:14:08Z</time>
      </trkpt>
      <trkpt lat="40.70739" lon="-8.47609">
        <ele>158.27</ele>
        <time>2019-05-24T12:14:15Z</time>
      </trkpt>
      <trkpt lat="40.70756" lon="-8.47612">
        <ele>157.31</ele>
        <time>2019-05-24T12:14:30Z</time>
      </trkpt>
      <trkpt lat="40.70761" lon="-8.47612">
        <ele>158.75</ele>
        <time>2019-05-24T12:14:35Z</time>
      </trkpt>
      <trkpt lat="40.70777" lon="-8.47615">
        <ele>158.27</ele>
        <time>2019-05-24T12:14:48Z</time>
      </trkpt>
      <trkpt lat="40.70794" lon="-8.47618">
        <ele>159.24</ele>
        <time>2019-05-24T12:15:01Z</time>
      </trkpt>
      <trkpt lat="40.70809" lon="-8.47622">
        <ele>159.24</ele>
        <time>2019-05-24T12:15:14Z</time>
      </trkpt>
      <trkpt lat="40.70827" lon="-8.47622">
        <ele>159.24</ele>
        <time>2019-05-24T12:15:28Z</time>
      </trkpt>
      <trkpt lat="40.7084" lon="-8.4762">
        <ele>158.75</ele>
        <time>2019-05-24T12:15:39Z</time>
      </trkpt>
      <trkpt lat="40.70841" lon="-8.47619">
        <ele>158.75</ele>
        <time>2019-05-24T12:15:40Z</time>
      </trkpt>
      <trkpt lat="40.70845" lon="-8.47618">
        <ele>158.75</ele>
        <time>2019-05-24T12:15:44Z</time>
      </trkpt>
      <trkpt lat="40.70855" lon="-8.47612">
        <ele>159.72</ele>
        <time>2019-05-24T12:15:53Z</time>
      </trkpt>
      <trkpt lat="40.7087" lon="-8.47599">
        <ele>159.72</ele>
        <time>2019-05-24T12:16:08Z</time>
      </trkpt>
      <trkpt lat="40.70876" lon="-8.47593">
        <ele>159.72</ele>
        <time>2019-05-24T12:16:15Z</time>
      </trkpt>
      <trkpt lat="40.70882" lon="-8.47587">
        <ele>160.2</ele>
        <time>2019-05-24T12:16:21Z</time>
      </trkpt>
      <trkpt lat="40.7089" lon="-8.47581">
        <ele>159.72</ele>
        <time>2019-05-24T12:16:28Z</time>
      </trkpt>
      <trkpt lat="40.70905" lon="-8.47575">
        <ele>160.2</ele>
        <time>2019-05-24T12:16:41Z</time>
      </trkpt>
      <trkpt lat="40.70908" lon="-8.47574">
        <ele>160.2</ele>
        <time>2019-05-24T12:16:44Z</time>
      </trkpt>
      <trkpt lat="40.70922" lon="-8.47569">
        <ele>159.72</ele>
        <time>2019-05-24T12:16:57Z</time>
      </trkpt>
      <trkpt lat="40.70931" lon="-8.47565">
        <ele>159.24</ele>
        <time>2019-05-24T12:17:04Z</time>
      </trkpt>
      <trkpt lat="40.70938" lon="-8.47561">
        <ele>159.72</ele>
        <time>2019-05-24T12:17:11Z</time>
      </trkpt>
      <trkpt lat="40.70952" lon="-8.47555">
        <ele>159.72</ele>
        <time>2019-05-24T12:17:23Z</time>
      </trkpt>
      <trkpt lat="40.70967" lon="-8.4755">
        <ele>160.2</ele>
        <time>2019-05-24T12:17:37Z</time>
      </trkpt>
      <trkpt lat="40.70982" lon="-8.4754">
        <ele>159.72</ele>
        <time>2019-05-24T12:17:52Z</time>
      </trkpt>
      <trkpt lat="40.71007" lon="-8.47532">
        <ele>159.72</ele>
        <time>2019-05-24T12:18:08Z</time>
      </trkpt>
      <trkpt lat="40.71019" lon="-8.47529">
        <ele>160.68</ele>
        <time>2019-05-24T12:18:21Z</time>
      </trkpt>
      <trkpt lat="40.7103" lon="-8.47525">
        <ele>161.16</ele>
        <time>2019-05-24T12:18:32Z</time>
      </trkpt>
      <trkpt lat="40.71045" lon="-8.47524">
        <ele>161.64</ele>
        <time>2019-05-24T12:18:48Z</time>
      </trkpt>
      <trkpt lat="40.71052" lon="-8.4752">
        <ele>161.64</ele>
        <time>2019-05-24T12:19:03Z</time>
      </trkpt>
      <trkpt lat="40.71051" lon="-8.47516">
        <ele>161.64</ele>
        <time>2019-05-24T12:19:42Z</time>
      </trkpt>
      <trkpt lat="40.71057" lon="-8.47514">
        <ele>161.64</ele>
        <time>2019-05-24T12:19:57Z</time>
      </trkpt>
      <trkpt lat="40.71069" lon="-8.47511">
        <ele>162.12</ele>
        <time>2019-05-24T12:20:10Z</time>
      </trkpt>
      <trkpt lat="40.71082" lon="-8.47507">
        <ele>161.16</ele>
        <time>2019-05-24T12:20:23Z</time>
      </trkpt>
      <trkpt lat="40.71098" lon="-8.47501">
        <ele>160.2</ele>
        <time>2019-05-24T12:20:35Z</time>
      </trkpt>
      <trkpt lat="40.71112" lon="-8.47491">
        <ele>161.16</ele>
        <time>2019-05-24T12:20:47Z</time>
      </trkpt>
      <trkpt lat="40.71127" lon="-8.4748">
        <ele>160.68</ele>
        <time>2019-05-24T12:20:59Z</time>
      </trkpt>
      <trkpt lat="40.71139" lon="-8.47472">
        <ele>160.2</ele>
        <time>2019-05-24T12:21:10Z</time>
      </trkpt>
      <trkpt lat="40.71155" lon="-8.47459">
        <ele>159.72</ele>
        <time>2019-05-24T12:21:26Z</time>
      </trkpt>
      <trkpt lat="40.71165" lon="-8.47449">
        <ele>159.72</ele>
        <time>2019-05-24T12:21:36Z</time>
      </trkpt>
      <trkpt lat="40.71169" lon="-8.47441">
        <ele>159.72</ele>
        <time>2019-05-24T12:21:42Z</time>
      </trkpt>
      <trkpt lat="40.71176" lon="-8.47421">
        <ele>160.2</ele>
        <time>2019-05-24T12:21:55Z</time>
      </trkpt>
      <trkpt lat="40.71177" lon="-8.47419">
        <ele>160.2</ele>
        <time>2019-05-24T12:21:56Z</time>
      </trkpt>
      <trkpt lat="40.71181" lon="-8.47399">
        <ele>160.2</ele>
        <time>2019-05-24T12:22:10Z</time>
      </trkpt>
      <trkpt lat="40.71181" lon="-8.47379">
        <ele>160.2</ele>
        <time>2019-05-24T12:22:23Z</time>
      </trkpt>
      <trkpt lat="40.71181" lon="-8.47359">
        <ele>161.16</ele>
        <time>2019-05-24T12:22:35Z</time>
      </trkpt>
      <trkpt lat="40.7118" lon="-8.47344">
        <ele>162.6</ele>
        <time>2019-05-24T12:22:47Z</time>
      </trkpt>
      <trkpt lat="40.7118" lon="-8.47328">
        <ele>163.56</ele>
        <time>2019-05-24T12:23:00Z</time>
      </trkpt>
      <trkpt lat="40.71179" lon="-8.47313">
        <ele>163.08</ele>
        <time>2019-05-24T12:23:13Z</time>
      </trkpt>
      <trkpt lat="40.71186" lon="-8.47316">
        <ele>163.08</ele>
        <time>2019-05-24T12:23:27Z</time>
      </trkpt>
      <trkpt lat="40.71196" lon="-8.47321">
        <ele>163.08</ele>
        <time>2019-05-24T12:23:40Z</time>
      </trkpt>
      <trkpt lat="40.7121" lon="-8.47328">
        <ele>163.08</ele>
        <time>2019-05-24T12:23:53Z</time>
      </trkpt>
      <trkpt lat="40.71226" lon="-8.47336">
        <ele>163.08</ele>
        <time>2019-05-24T12:24:07Z</time>
      </trkpt>
      <trkpt lat="40.71237" lon="-8.47342">
        <ele>164.04</ele>
        <time>2019-05-24T12:24:20Z</time>
      </trkpt>
      <trkpt lat="40.71246" lon="-8.47346">
        <ele>163.56</ele>
        <time>2019-05-24T12:24:33Z</time>
      </trkpt>
      <trkpt lat="40.71252" lon="-8.47347">
        <ele>164.04</ele>
        <time>2019-05-24T12:24:40Z</time>
      </trkpt>
      <trkpt lat="40.7127" lon="-8.47349">
        <ele>164.04</ele>
        <time>2019-05-24T12:24:56Z</time>
      </trkpt>
      <trkpt lat="40.71284" lon="-8.47345">
        <ele>164.04</ele>
        <time>2019-05-24T12:25:09Z</time>
      </trkpt>
      <trkpt lat="40.71297" lon="-8.47334">
        <ele>164.52</ele>
        <time>2019-05-24T12:25:22Z</time>
      </trkpt>
      <trkpt lat="40.71307" lon="-8.4732">
        <ele>164.52</ele>
        <time>2019-05-24T12:25:35Z</time>
      </trkpt>
      <trkpt lat="40.71314" lon="-8.47302">
        <ele>165</ele>
        <time>2019-05-24T12:25:47Z</time>
      </trkpt>
      <trkpt lat="40.71319" lon="-8.47287">
        <ele>165</ele>
        <time>2019-05-24T12:26:00Z</time>
      </trkpt>
      <trkpt lat="40.71327" lon="-8.4727">
        <ele>165</ele>
        <time>2019-05-24T12:26:15Z</time>
      </trkpt>
      <trkpt lat="40.71337" lon="-8.4725">
        <ele>164.52</ele>
        <time>2019-05-24T12:26:27Z</time>
      </trkpt>
      <trkpt lat="40.71342" lon="-8.47236">
        <ele>164.52</ele>
        <time>2019-05-24T12:26:41Z</time>
      </trkpt>
      <trkpt lat="40.71345" lon="-8.47228">
        <ele>165</ele>
        <time>2019-05-24T12:27:01Z</time>
      </trkpt>
      <trkpt lat="40.71354" lon="-8.47221">
        <ele>164.52</ele>
        <time>2019-05-24T12:27:18Z</time>
      </trkpt>
      <trkpt lat="40.7136" lon="-8.47225">
        <ele>165</ele>
        <time>2019-05-24T12:27:29Z</time>
      </trkpt>
      <trkpt lat="40.71367" lon="-8.47228">
        <ele>165</ele>
        <time>2019-05-24T12:27:46Z</time>
      </trkpt>
      <trkpt lat="40.71374" lon="-8.47234">
        <ele>165.96</ele>
        <time>2019-05-24T12:28:00Z</time>
      </trkpt>
      <trkpt lat="40.71383" lon="-8.47242">
        <ele>166.45</ele>
        <time>2019-05-24T12:28:14Z</time>
      </trkpt>
      <trkpt lat="40.71394" lon="-8.47253">
        <ele>166.45</ele>
        <time>2019-05-24T12:28:27Z</time>
      </trkpt>
      <trkpt lat="40.71403" lon="-8.47263">
        <ele>167.89</ele>
        <time>2019-05-24T12:28:38Z</time>
      </trkpt>
      <trkpt lat="40.71417" lon="-8.47275">
        <ele>167.41</ele>
        <time>2019-05-24T12:28:51Z</time>
      </trkpt>
      <trkpt lat="40.71428" lon="-8.47284">
        <ele>168.37</ele>
        <time>2019-05-24T12:29:02Z</time>
      </trkpt>
      <trkpt lat="40.71439" lon="-8.47296">
        <ele>168.85</ele>
        <time>2019-05-24T12:29:16Z</time>
      </trkpt>
      <trkpt lat="40.71452" lon="-8.47307">
        <ele>168.85</ele>
        <time>2019-05-24T12:29:30Z</time>
      </trkpt>
      <trkpt lat="40.71467" lon="-8.47318">
        <ele>169.33</ele>
        <time>2019-05-24T12:29:44Z</time>
      </trkpt>
      <trkpt lat="40.71481" lon="-8.47329">
        <ele>169.33</ele>
        <time>2019-05-24T12:29:58Z</time>
      </trkpt>
      <trkpt lat="40.71499" lon="-8.47337">
        <ele>170.77</ele>
        <time>2019-05-24T12:30:14Z</time>
      </trkpt>
      <trkpt lat="40.71512" lon="-8.47343">
        <ele>169.81</ele>
        <time>2019-05-24T12:30:26Z</time>
      </trkpt>
      <trkpt lat="40.71525" lon="-8.47349">
        <ele>170.29</ele>
        <time>2019-05-24T12:30:40Z</time>
      </trkpt>
      <trkpt lat="40.71541" lon="-8.47356">
        <ele>170.77</ele>
        <time>2019-05-24T12:30:54Z</time>
      </trkpt>
      <trkpt lat="40.71562" lon="-8.47366">
        <ele>171.25</ele>
        <time>2019-05-24T12:31:08Z</time>
      </trkpt>
      <trkpt lat="40.71582" lon="-8.47373">
        <ele>172.21</ele>
        <time>2019-05-24T12:31:24Z</time>
      </trkpt>
      <trkpt lat="40.71592" lon="-8.47375">
        <ele>172.69</ele>
        <time>2019-05-24T12:31:34Z</time>
      </trkpt>
      <trkpt lat="40.71603" lon="-8.47382">
        <ele>173.17</ele>
        <time>2019-05-24T12:31:45Z</time>
      </trkpt>
      <trkpt lat="40.71605" lon="-8.47382">
        <ele>173.17</ele>
        <time>2019-05-24T12:31:47Z</time>
      </trkpt>
      <trkpt lat="40.71621" lon="-8.47385">
        <ele>173.17</ele>
        <time>2019-05-24T12:32:00Z</time>
      </trkpt>
      <trkpt lat="40.71631" lon="-8.47392">
        <ele>172.69</ele>
        <time>2019-05-24T12:32:13Z</time>
      </trkpt>
      <trkpt lat="40.71641" lon="-8.47396">
        <ele>172.21</ele>
        <time>2019-05-24T12:32:34Z</time>
      </trkpt>
      <trkpt lat="40.71654" lon="-8.47402">
        <ele>172.69</ele>
        <time>2019-05-24T12:32:48Z</time>
      </trkpt>
      <trkpt lat="40.71668" lon="-8.47407">
        <ele>172.21</ele>
        <time>2019-05-24T12:33:02Z</time>
      </trkpt>
      <trkpt lat="40.71687" lon="-8.4741">
        <ele>172.21</ele>
        <time>2019-05-24T12:33:17Z</time>
      </trkpt>
      <trkpt lat="40.71702" lon="-8.47415">
        <ele>171.25</ele>
        <time>2019-05-24T12:33:29Z</time>
      </trkpt>
      <trkpt lat="40.71709" lon="-8.47417">
        <ele>171.73</ele>
        <time>2019-05-24T12:33:34Z</time>
      </trkpt>
      <trkpt lat="40.7173" lon="-8.47425">
        <ele>172.21</ele>
        <time>2019-05-24T12:33:50Z</time>
      </trkpt>
      <trkpt lat="40.71747" lon="-8.47432">
        <ele>171.73</ele>
        <time>2019-05-24T12:34:05Z</time>
      </trkpt>
      <trkpt lat="40.71763" lon="-8.47439">
        <ele>172.21</ele>
        <time>2019-05-24T12:34:19Z</time>
      </trkpt>
      <trkpt lat="40.7178" lon="-8.47441">
        <ele>172.21</ele>
        <time>2019-05-24T12:34:32Z</time>
      </trkpt>
      <trkpt lat="40.71795" lon="-8.47444">
        <ele>172.69</ele>
        <time>2019-05-24T12:34:46Z</time>
      </trkpt>
      <trkpt lat="40.71807" lon="-8.47447">
        <ele>172.69</ele>
        <time>2019-05-24T12:34:59Z</time>
      </trkpt>
      <trkpt lat="40.71819" lon="-8.47451">
        <ele>173.66</ele>
        <time>2019-05-24T12:35:13Z</time>
      </trkpt>
      <trkpt lat="40.71837" lon="-8.47453">
        <ele>173.17</ele>
        <time>2019-05-24T12:35:29Z</time>
      </trkpt>
      <trkpt lat="40.71842" lon="-8.47447">
        <ele>174.14</ele>
        <time>2019-05-24T12:35:56Z</time>
      </trkpt>
      <trkpt lat="40.71844" lon="-8.47445">
        <ele>174.14</ele>
        <time>2019-05-24T12:36:20Z</time>
      </trkpt>
      <trkpt lat="40.71849" lon="-8.47445">
        <ele>174.62</ele>
        <time>2019-05-24T12:36:48Z</time>
      </trkpt>
      <trkpt lat="40.71847" lon="-8.47447">
        <ele>174.62</ele>
        <time>2019-05-24T12:37:12Z</time>
      </trkpt>
      <trkpt lat="40.71842" lon="-8.47441">
        <ele>174.62</ele>
        <time>2019-05-24T12:37:33Z</time>
      </trkpt>
      <trkpt lat="40.71849" lon="-8.47445">
        <ele>174.62</ele>
        <time>2019-05-24T12:37:47Z</time>
      </trkpt>
      <trkpt lat="40.71866" lon="-8.47457">
        <ele>175.1</ele>
        <time>2019-05-24T12:38:02Z</time>
      </trkpt>
      <trkpt lat="40.71881" lon="-8.47464">
        <ele>176.06</ele>
        <time>2019-05-24T12:38:16Z</time>
      </trkpt>
      <trkpt lat="40.71894" lon="-8.47468">
        <ele>176.06</ele>
        <time>2019-05-24T12:38:30Z</time>
      </trkpt>
      <trkpt lat="40.71902" lon="-8.47471">
        <ele>176.06</ele>
        <time>2019-05-24T12:38:37Z</time>
      </trkpt>
      <trkpt lat="40.71915" lon="-8.47475">
        <ele>177.98</ele>
        <time>2019-05-24T12:38:49Z</time>
      </trkpt>
      <trkpt lat="40.71922" lon="-8.47477">
        <ele>177.5</ele>
        <time>2019-05-24T12:38:55Z</time>
      </trkpt>
      <trkpt lat="40.71939" lon="-8.47481">
        <ele>178.46</ele>
        <time>2019-05-24T12:39:08Z</time>
      </trkpt>
      <trkpt lat="40.7196" lon="-8.4749">
        <ele>177.98</ele>
        <time>2019-05-24T12:39:24Z</time>
      </trkpt>
      <trkpt lat="40.71978" lon="-8.47496">
        <ele>177.5</ele>
        <time>2019-05-24T12:39:38Z</time>
      </trkpt>
      <trkpt lat="40.71997" lon="-8.475">
        <ele>178.46</ele>
        <time>2019-05-24T12:39:54Z</time>
      </trkpt>
      <trkpt lat="40.72015" lon="-8.47503">
        <ele>178.46</ele>
        <time>2019-05-24T12:40:09Z</time>
      </trkpt>
      <trkpt lat="40.72037" lon="-8.47504">
        <ele>177.98</ele>
        <time>2019-05-24T12:40:26Z</time>
      </trkpt>
      <trkpt lat="40.7205" lon="-8.47506">
        <ele>178.46</ele>
        <time>2019-05-24T12:40:38Z</time>
      </trkpt>
      <trkpt lat="40.72066" lon="-8.47507">
        <ele>179.9</ele>
        <time>2019-05-24T12:40:52Z</time>
      </trkpt>
      <trkpt lat="40.72082" lon="-8.47506">
        <ele>178.94</ele>
        <time>2019-05-24T12:41:06Z</time>
      </trkpt>
      <trkpt lat="40.72102" lon="-8.47505">
        <ele>179.9</ele>
        <time>2019-05-24T12:41:22Z</time>
      </trkpt>
      <trkpt lat="40.72128" lon="-8.47507">
        <ele>179.9</ele>
        <time>2019-05-24T12:41:39Z</time>
      </trkpt>
      <trkpt lat="40.72141" lon="-8.47507">
        <ele>180.38</ele>
        <time>2019-05-24T12:41:49Z</time>
      </trkpt>
      <trkpt lat="40.72159" lon="-8.47507">
        <ele>180.38</ele>
        <time>2019-05-24T12:42:04Z</time>
      </trkpt>
      <trkpt lat="40.72175" lon="-8.47507">
        <ele>180.38</ele>
        <time>2019-05-24T12:42:19Z</time>
      </trkpt>
      <trkpt lat="40.72193" lon="-8.47506">
        <ele>180.38</ele>
        <time>2019-05-24T12:42:33Z</time>
      </trkpt>
      <trkpt lat="40.72218" lon="-8.47505">
        <ele>179.9</ele>
        <time>2019-05-24T12:42:50Z</time>
      </trkpt>
      <trkpt lat="40.72238" lon="-8.47505">
        <ele>179.9</ele>
        <time>2019-05-24T12:43:05Z</time>
      </trkpt>
      <trkpt lat="40.72246" lon="-8.47505">
        <ele>180.87</ele>
        <time>2019-05-24T12:43:22Z</time>
      </trkpt>
      <trkpt lat="40.72255" lon="-8.47505">
        <ele>179.42</ele>
        <time>2019-05-24T12:43:44Z</time>
      </trkpt>
      <trkpt lat="40.72273" lon="-8.47503">
        <ele>179.42</ele>
        <time>2019-05-24T12:43:58Z</time>
      </trkpt>
      <trkpt lat="40.72286" lon="-8.47501">
        <ele>180.87</ele>
        <time>2019-05-24T12:44:11Z</time>
      </trkpt>
      <trkpt lat="40.72303" lon="-8.47507">
        <ele>179.42</ele>
        <time>2019-05-24T12:44:26Z</time>
      </trkpt>
      <trkpt lat="40.72318" lon="-8.47514">
        <ele>179.42</ele>
        <time>2019-05-24T12:44:37Z</time>
      </trkpt>
      <trkpt lat="40.72334" lon="-8.47526">
        <ele>179.42</ele>
        <time>2019-05-24T12:44:50Z</time>
      </trkpt>
      <trkpt lat="40.7235" lon="-8.47535">
        <ele>179.9</ele>
        <time>2019-05-24T12:45:04Z</time>
      </trkpt>
      <trkpt lat="40.72365" lon="-8.47546">
        <ele>179.9</ele>
        <time>2019-05-24T12:45:18Z</time>
      </trkpt>
      <trkpt lat="40.72381" lon="-8.47554">
        <ele>178.94</ele>
        <time>2019-05-24T12:45:31Z</time>
      </trkpt>
      <trkpt lat="40.72394" lon="-8.47556">
        <ele>179.42</ele>
        <time>2019-05-24T12:45:41Z</time>
      </trkpt>
      <trkpt lat="40.72411" lon="-8.47559">
        <ele>178.46</ele>
        <time>2019-05-24T12:45:55Z</time>
      </trkpt>
      <trkpt lat="40.72431" lon="-8.47561">
        <ele>178.46</ele>
        <time>2019-05-24T12:46:10Z</time>
      </trkpt>
      <trkpt lat="40.72446" lon="-8.47562">
        <ele>177.5</ele>
        <time>2019-05-24T12:46:23Z</time>
      </trkpt>
      <trkpt lat="40.72459" lon="-8.47563">
        <ele>177.98</ele>
        <time>2019-05-24T12:46:36Z</time>
      </trkpt>
      <trkpt lat="40.72476" lon="-8.47563">
        <ele>178.46</ele>
        <time>2019-05-24T12:46:51Z</time>
      </trkpt>
      <trkpt lat="40.7249" lon="-8.47566">
        <ele>178.46</ele>
        <time>2019-05-24T12:47:01Z</time>
      </trkpt>
      <trkpt lat="40.72507" lon="-8.47569">
        <ele>177.98</ele>
        <time>2019-05-24T12:47:15Z</time>
      </trkpt>
      <trkpt lat="40.7252" lon="-8.47572">
        <ele>177.98</ele>
        <time>2019-05-24T12:47:26Z</time>
      </trkpt>
      <trkpt lat="40.7253" lon="-8.47574">
        <ele>177.5</ele>
        <time>2019-05-24T12:47:35Z</time>
      </trkpt>
      <trkpt lat="40.72548" lon="-8.47577">
        <ele>178.46</ele>
        <time>2019-05-24T12:47:49Z</time>
      </trkpt>
      <trkpt lat="40.72561" lon="-8.4758">
        <ele>178.46</ele>
        <time>2019-05-24T12:48:02Z</time>
      </trkpt>
      <trkpt lat="40.72565" lon="-8.47585">
        <ele>178.94</ele>
        <time>2019-05-24T12:48:22Z</time>
      </trkpt>
      <trkpt lat="40.72566" lon="-8.47589">
        <ele>178.46</ele>
        <time>2019-05-24T12:48:44Z</time>
      </trkpt>
      <trkpt lat="40.72571" lon="-8.47587">
        <ele>178.94</ele>
        <time>2019-05-24T12:49:05Z</time>
      </trkpt>
      <trkpt lat="40.7258" lon="-8.47596">
        <ele>177.98</ele>
        <time>2019-05-24T12:49:22Z</time>
      </trkpt>
      <trkpt lat="40.72595" lon="-8.47602">
        <ele>177.98</ele>
        <time>2019-05-24T12:49:35Z</time>
      </trkpt>
      <trkpt lat="40.72606" lon="-8.4761">
        <ele>178.46</ele>
        <time>2019-05-24T12:49:48Z</time>
      </trkpt>
      <trkpt lat="40.7262" lon="-8.47617">
        <ele>177.5</ele>
        <time>2019-05-24T12:50:02Z</time>
      </trkpt>
      <trkpt lat="40.72633" lon="-8.47627">
        <ele>177.5</ele>
        <time>2019-05-24T12:50:17Z</time>
      </trkpt>
      <trkpt lat="40.72643" lon="-8.47633">
        <ele>177.5</ele>
        <time>2019-05-24T12:50:30Z</time>
      </trkpt>
      <trkpt lat="40.72652" lon="-8.47642">
        <ele>177.02</ele>
        <time>2019-05-24T12:50:41Z</time>
      </trkpt>
      <trkpt lat="40.72665" lon="-8.47654">
        <ele>177.5</ele>
        <time>2019-05-24T12:50:55Z</time>
      </trkpt>
      <trkpt lat="40.72683" lon="-8.47668">
        <ele>177.02</ele>
        <time>2019-05-24T12:51:08Z</time>
      </trkpt>
      <trkpt lat="40.72698" lon="-8.47684">
        <ele>176.54</ele>
        <time>2019-05-24T12:51:23Z</time>
      </trkpt>
      <trkpt lat="40.72714" lon="-8.47699">
        <ele>175.58</ele>
        <time>2019-05-24T12:51:38Z</time>
      </trkpt>
      <trkpt lat="40.72721" lon="-8.47711">
        <ele>175.58</ele>
        <time>2019-05-24T12:51:51Z</time>
      </trkpt>
      <trkpt lat="40.7273" lon="-8.47721">
        <ele>175.58</ele>
        <time>2019-05-24T12:52:02Z</time>
      </trkpt>
      <trkpt lat="40.7274" lon="-8.47736">
        <ele>174.62</ele>
        <time>2019-05-24T12:52:16Z</time>
      </trkpt>
      <trkpt lat="40.72753" lon="-8.47756">
        <ele>174.14</ele>
        <time>2019-05-24T12:52:32Z</time>
      </trkpt>
      <trkpt lat="40.72759" lon="-8.47767">
        <ele>173.17</ele>
        <time>2019-05-24T12:52:41Z</time>
      </trkpt>
      <trkpt lat="40.72769" lon="-8.47782">
        <ele>172.21</ele>
        <time>2019-05-24T12:52:54Z</time>
      </trkpt>
      <trkpt lat="40.72774" lon="-8.47798">
        <ele>172.21</ele>
        <time>2019-05-24T12:53:07Z</time>
      </trkpt>
      <trkpt lat="40.72779" lon="-8.47825">
        <ele>171.25</ele>
        <time>2019-05-24T12:53:20Z</time>
      </trkpt>
      <trkpt lat="40.72781" lon="-8.47838">
        <ele>171.25</ele>
        <time>2019-05-24T12:53:31Z</time>
      </trkpt>
      <trkpt lat="40.72788" lon="-8.47855">
        <ele>170.77</ele>
        <time>2019-05-24T12:53:45Z</time>
      </trkpt>
      <trkpt lat="40.72798" lon="-8.47867">
        <ele>170.29</ele>
        <time>2019-05-24T12:53:58Z</time>
      </trkpt>
      <trkpt lat="40.72801" lon="-8.47876">
        <ele>169.33</ele>
        <time>2019-05-24T12:54:04Z</time>
      </trkpt>
      <trkpt lat="40.72806" lon="-8.47887">
        <ele>168.85</ele>
        <time>2019-05-24T12:54:13Z</time>
      </trkpt>
      <trkpt lat="40.72814" lon="-8.47902">
        <ele>167.89</ele>
        <time>2019-05-24T12:54:27Z</time>
      </trkpt>
      <trkpt lat="40.72816" lon="-8.4791">
        <ele>168.37</ele>
        <time>2019-05-24T12:54:32Z</time>
      </trkpt>
      <trkpt lat="40.72821" lon="-8.47925">
        <ele>166.93</ele>
        <time>2019-05-24T12:54:47Z</time>
      </trkpt>
      <trkpt lat="40.72831" lon="-8.47943">
        <ele>167.41</ele>
        <time>2019-05-24T12:55:00Z</time>
      </trkpt>
      <trkpt lat="40.7284" lon="-8.47967">
        <ele>166.93</ele>
        <time>2019-05-24T12:55:15Z</time>
      </trkpt>
      <trkpt lat="40.72842" lon="-8.47974">
        <ele>166.93</ele>
        <time>2019-05-24T12:55:19Z</time>
      </trkpt>
      <trkpt lat="40.7285" lon="-8.47993">
        <ele>166.45</ele>
        <time>2019-05-24T12:55:32Z</time>
      </trkpt>
      <trkpt lat="40.72853" lon="-8.47997">
        <ele>166.45</ele>
        <time>2019-05-24T12:55:36Z</time>
      </trkpt>
      <trkpt lat="40.72865" lon="-8.48017">
        <ele>165</ele>
        <time>2019-05-24T12:55:51Z</time>
      </trkpt>
      <trkpt lat="40.72876" lon="-8.4803">
        <ele>165</ele>
        <time>2019-05-24T12:56:02Z</time>
      </trkpt>
      <trkpt lat="40.72888" lon="-8.48046">
        <ele>165.48</ele>
        <time>2019-05-24T12:56:15Z</time>
      </trkpt>
      <trkpt lat="40.72899" lon="-8.48064">
        <ele>164.52</ele>
        <time>2019-05-24T12:56:29Z</time>
      </trkpt>
      <trkpt lat="40.729" lon="-8.48066">
        <ele>164.04</ele>
        <time>2019-05-24T12:56:30Z</time>
      </trkpt>
      <trkpt lat="40.72904" lon="-8.48072">
        <ele>164.04</ele>
        <time>2019-05-24T12:56:35Z</time>
      </trkpt>
      <trkpt lat="40.72917" lon="-8.48096">
        <ele>163.56</ele>
        <time>2019-05-24T12:56:51Z</time>
      </trkpt>
      <trkpt lat="40.72924" lon="-8.48111">
        <ele>162.6</ele>
        <time>2019-05-24T12:57:01Z</time>
      </trkpt>
      <trkpt lat="40.72926" lon="-8.48114">
        <ele>161.64</ele>
        <time>2019-05-24T12:57:03Z</time>
      </trkpt>
      <trkpt lat="40.72928" lon="-8.48118">
        <ele>163.08</ele>
        <time>2019-05-24T12:57:06Z</time>
      </trkpt>
      <trkpt lat="40.72931" lon="-8.48122">
        <ele>162.6</ele>
        <time>2019-05-24T12:57:09Z</time>
      </trkpt>
      <trkpt lat="40.72941" lon="-8.48143">
        <ele>162.12</ele>
        <time>2019-05-24T12:57:23Z</time>
      </trkpt>
      <trkpt lat="40.72949" lon="-8.4816">
        <ele>162.12</ele>
        <time>2019-05-24T12:57:36Z</time>
      </trkpt>
      <trkpt lat="40.72959" lon="-8.48178">
        <ele>162.6</ele>
        <time>2019-05-24T12:57:50Z</time>
      </trkpt>
      <trkpt lat="40.7296" lon="-8.48179">
        <ele>162.6</ele>
        <time>2019-05-24T12:57:51Z</time>
      </trkpt>
      <trkpt lat="40.72978" lon="-8.48193">
        <ele>161.16</ele>
        <time>2019-05-24T12:58:05Z</time>
      </trkpt>
      <trkpt lat="40.72988" lon="-8.48206">
        <ele>160.68</ele>
        <time>2019-05-24T12:58:17Z</time>
      </trkpt>
      <trkpt lat="40.72996" lon="-8.48222">
        <ele>161.16</ele>
        <time>2019-05-24T12:58:33Z</time>
      </trkpt>
      <trkpt lat="40.73005" lon="-8.48239">
        <ele>159.72</ele>
        <time>2019-05-24T12:58:49Z</time>
      </trkpt>
      <trkpt lat="40.73015" lon="-8.48255">
        <ele>160.2</ele>
        <time>2019-05-24T12:59:02Z</time>
      </trkpt>
      <trkpt lat="40.7302" lon="-8.48261">
        <ele>160.68</ele>
        <time>2019-05-24T12:59:08Z</time>
      </trkpt>
      <trkpt lat="40.73029" lon="-8.48277">
        <ele>159.24</ele>
        <time>2019-05-24T12:59:20Z</time>
      </trkpt>
      <trkpt lat="40.73039" lon="-8.48295">
        <ele>158.75</ele>
        <time>2019-05-24T12:59:33Z</time>
      </trkpt>
      <trkpt lat="40.73053" lon="-8.48313">
        <ele>159.72</ele>
        <time>2019-05-24T12:59:47Z</time>
      </trkpt>
      <trkpt lat="40.73064" lon="-8.48328">
        <ele>158.75</ele>
        <time>2019-05-24T12:59:59Z</time>
      </trkpt>
      <trkpt lat="40.73078" lon="-8.48351">
        <ele>160.2</ele>
        <time>2019-05-24T13:00:12Z</time>
      </trkpt>
      <trkpt lat="40.73081" lon="-8.48357">
        <ele>158.75</ele>
        <time>2019-05-24T13:00:29Z</time>
      </trkpt>
      <trkpt lat="40.73079" lon="-8.48353">
        <ele>159.24</ele>
        <time>2019-05-24T13:00:42Z</time>
      </trkpt>
      <trkpt lat="40.73086" lon="-8.48352">
        <ele>158.27</ele>
        <time>2019-05-24T13:01:02Z</time>
      </trkpt>
      <trkpt lat="40.73086" lon="-8.48352">
        <ele>162.12</ele>
        <time>2019-05-24T13:01:10Z</time>
      </trkpt>
      <trkpt lat="40.73086" lon="-8.48351">
        <ele>158.75</ele>
        <time>2019-05-24T13:01:11Z</time>
      </trkpt>
      <trkpt lat="40.73087" lon="-8.48354">
        <ele>158.75</ele>
        <time>2019-05-24T13:01:32Z</time>
      </trkpt>
      <trkpt lat="40.73087" lon="-8.48355">
        <ele>159.72</ele>
        <time>2019-05-24T13:01:57Z</time>
      </trkpt>
      <trkpt lat="40.73083" lon="-8.48358">
        <ele>159.24</ele>
        <time>2019-05-24T13:02:24Z</time>
      </trkpt>
      <trkpt lat="40.73084" lon="-8.48354">
        <ele>159.72</ele>
        <time>2019-05-24T13:02:52Z</time>
      </trkpt>
      <trkpt lat="40.73081" lon="-8.48353">
        <ele>159.72</ele>
        <time>2019-05-24T13:03:14Z</time>
      </trkpt>
      <trkpt lat="40.7308" lon="-8.48349">
        <ele>159.72</ele>
        <time>2019-05-24T13:03:56Z</time>
      </trkpt>
      <trkpt lat="40.73078" lon="-8.48355">
        <ele>160.68</ele>
        <time>2019-05-24T13:04:21Z</time>
      </trkpt>
      <trkpt lat="40.73078" lon="-8.48356">
        <ele>160.2</ele>
        <time>2019-05-24T13:04:33Z</time>
      </trkpt>
      <trkpt lat="40.73083" lon="-8.48352">
        <ele>160.2</ele>
        <time>2019-05-24T13:04:49Z</time>
      </trkpt>
      <trkpt lat="40.73087" lon="-8.48355">
        <ele>160.2</ele>
        <time>2019-05-24T13:05:12Z</time>
      </trkpt>
      <trkpt lat="40.73091" lon="-8.48363">
        <ele>160.2</ele>
        <time>2019-05-24T13:05:29Z</time>
      </trkpt>
      <trkpt lat="40.73091" lon="-8.48366">
        <ele>160.68</ele>
        <time>2019-05-24T13:05:32Z</time>
      </trkpt>
      <trkpt lat="40.73096" lon="-8.48374">
        <ele>160.2</ele>
        <time>2019-05-24T13:05:46Z</time>
      </trkpt>
      <trkpt lat="40.73101" lon="-8.48379">
        <ele>159.72</ele>
        <time>2019-05-24T13:05:53Z</time>
      </trkpt>
      <trkpt lat="40.73114" lon="-8.48394">
        <ele>160.68</ele>
        <time>2019-05-24T13:06:09Z</time>
      </trkpt>
      <trkpt lat="40.7312" lon="-8.48404">
        <ele>159.72</ele>
        <time>2019-05-24T13:06:25Z</time>
      </trkpt>
      <trkpt lat="40.73124" lon="-8.48407">
        <ele>160.2</ele>
        <time>2019-05-24T13:06:29Z</time>
      </trkpt>
      <trkpt lat="40.73135" lon="-8.4842">
        <ele>159.72</ele>
        <time>2019-05-24T13:06:41Z</time>
      </trkpt>
      <trkpt lat="40.73147" lon="-8.48432">
        <ele>159.72</ele>
        <time>2019-05-24T13:06:55Z</time>
      </trkpt>
      <trkpt lat="40.73159" lon="-8.48442">
        <ele>159.72</ele>
        <time>2019-05-24T13:07:08Z</time>
      </trkpt>
      <trkpt lat="40.73171" lon="-8.48451">
        <ele>158.75</ele>
        <time>2019-05-24T13:07:21Z</time>
      </trkpt>
      <trkpt lat="40.7319" lon="-8.48458">
        <ele>157.79</ele>
        <time>2019-05-24T13:07:37Z</time>
      </trkpt>
      <trkpt lat="40.73197" lon="-8.48461">
        <ele>157.31</ele>
        <time>2019-05-24T13:07:43Z</time>
      </trkpt>
      <trkpt lat="40.73215" lon="-8.48472">
        <ele>156.35</ele>
        <time>2019-05-24T13:07:56Z</time>
      </trkpt>
      <trkpt lat="40.7323" lon="-8.48482">
        <ele>155.39</ele>
        <time>2019-05-24T13:08:10Z</time>
      </trkpt>
      <trkpt lat="40.73247" lon="-8.48494">
        <ele>153.95</ele>
        <time>2019-05-24T13:08:25Z</time>
      </trkpt>
      <trkpt lat="40.73264" lon="-8.485">
        <ele>153.47</ele>
        <time>2019-05-24T13:08:41Z</time>
      </trkpt>
      <trkpt lat="40.73284" lon="-8.48502">
        <ele>152.51</ele>
        <time>2019-05-24T13:08:55Z</time>
      </trkpt>
      <trkpt lat="40.73302" lon="-8.48499">
        <ele>152.51</ele>
        <time>2019-05-24T13:09:09Z</time>
      </trkpt>
      <trkpt lat="40.73323" lon="-8.48493">
        <ele>152.99</ele>
        <time>2019-05-24T13:09:21Z</time>
      </trkpt>
      <trkpt lat="40.73344" lon="-8.48489">
        <ele>152.99</ele>
        <time>2019-05-24T13:09:37Z</time>
      </trkpt>
      <trkpt lat="40.73352" lon="-8.48487">
        <ele>152.99</ele>
        <time>2019-05-24T13:09:51Z</time>
      </trkpt>
      <trkpt lat="40.73365" lon="-8.48482">
        <ele>154.43</ele>
        <time>2019-05-24T13:10:05Z</time>
      </trkpt>
      <trkpt lat="40.73384" lon="-8.48479">
        <ele>155.87</ele>
        <time>2019-05-24T13:10:19Z</time>
      </trkpt>
      <trkpt lat="40.73392" lon="-8.48482">
        <ele>156.35</ele>
        <time>2019-05-24T13:10:32Z</time>
      </trkpt>
      <trkpt lat="40.73403" lon="-8.48495">
        <ele>156.35</ele>
        <time>2019-05-24T13:10:47Z</time>
      </trkpt>
      <trkpt lat="40.73416" lon="-8.48504">
        <ele>156.83</ele>
        <time>2019-05-24T13:11:02Z</time>
      </trkpt>
      <trkpt lat="40.73424" lon="-8.48512">
        <ele>157.31</ele>
        <time>2019-05-24T13:11:16Z</time>
      </trkpt>
      <trkpt lat="40.73433" lon="-8.48531">
        <ele>156.35</ele>
        <time>2019-05-24T13:11:30Z</time>
      </trkpt>
      <trkpt lat="40.73442" lon="-8.48551">
        <ele>156.35</ele>
        <time>2019-05-24T13:11:45Z</time>
      </trkpt>
      <trkpt lat="40.73443" lon="-8.48554">
        <ele>155.87</ele>
        <time>2019-05-24T13:11:47Z</time>
      </trkpt>
      <trkpt lat="40.73454" lon="-8.4857">
        <ele>155.87</ele>
        <time>2019-05-24T13:12:01Z</time>
      </trkpt>
      <trkpt lat="40.73466" lon="-8.48587">
        <ele>153.95</ele>
        <time>2019-05-24T13:12:15Z</time>
      </trkpt>
      <trkpt lat="40.73473" lon="-8.48599">
        <ele>155.87</ele>
        <time>2019-05-24T13:12:26Z</time>
      </trkpt>
      <trkpt lat="40.73474" lon="-8.48602">
        <ele>153.95</ele>
        <time>2019-05-24T13:12:30Z</time>
      </trkpt>
      <trkpt lat="40.73484" lon="-8.48624">
        <ele>153.47</ele>
        <time>2019-05-24T13:12:45Z</time>
      </trkpt>
      <trkpt lat="40.73493" lon="-8.48645">
        <ele>153.47</ele>
        <time>2019-05-24T13:12:59Z</time>
      </trkpt>
      <trkpt lat="40.73502" lon="-8.48666">
        <ele>152.99</ele>
        <time>2019-05-24T13:13:14Z</time>
      </trkpt>
      <trkpt lat="40.73505" lon="-8.48672">
        <ele>153.95</ele>
        <time>2019-05-24T13:13:29Z</time>
      </trkpt>
      <trkpt lat="40.73512" lon="-8.48689">
        <ele>152.51</ele>
        <time>2019-05-24T13:13:42Z</time>
      </trkpt>
      <trkpt lat="40.73517" lon="-8.4872">
        <ele>152.51</ele>
        <time>2019-05-24T13:14:01Z</time>
      </trkpt>
      <trkpt lat="40.73518" lon="-8.48745">
        <ele>151.54</ele>
        <time>2019-05-24T13:14:17Z</time>
      </trkpt>
      <trkpt lat="40.73509" lon="-8.48762">
        <ele>151.06</ele>
        <time>2019-05-24T13:14:31Z</time>
      </trkpt>
      <trkpt lat="40.7349" lon="-8.48774">
        <ele>150.1</ele>
        <time>2019-05-24T13:14:48Z</time>
      </trkpt>
      <trkpt lat="40.73476" lon="-8.4878">
        <ele>148.18</ele>
        <time>2019-05-24T13:15:03Z</time>
      </trkpt>
      <trkpt lat="40.73475" lon="-8.48782">
        <ele>149.14</ele>
        <time>2019-05-24T13:15:05Z</time>
      </trkpt>
      <trkpt lat="40.73476" lon="-8.48807">
        <ele>147.7</ele>
        <time>2019-05-24T13:15:20Z</time>
      </trkpt>
      <trkpt lat="40.7348" lon="-8.48828">
        <ele>146.74</ele>
        <time>2019-05-24T13:15:33Z</time>
      </trkpt>
      <trkpt lat="40.7349" lon="-8.4883">
        <ele>148.18</ele>
        <time>2019-05-24T13:15:46Z</time>
      </trkpt>
      <trkpt lat="40.73507" lon="-8.4883">
        <ele>147.22</ele>
        <time>2019-05-24T13:16:01Z</time>
      </trkpt>
      <trkpt lat="40.73525" lon="-8.4883">
        <ele>148.66</ele>
        <time>2019-05-24T13:16:17Z</time>
      </trkpt>
      <trkpt lat="40.73543" lon="-8.48828">
        <ele>146.74</ele>
        <time>2019-05-24T13:16:34Z</time>
      </trkpt>
      <trkpt lat="40.73548" lon="-8.48826">
        <ele>147.7</ele>
        <time>2019-05-24T13:16:48Z</time>
      </trkpt>
      <trkpt lat="40.73551" lon="-8.48825">
        <ele>147.7</ele>
        <time>2019-05-24T13:17:13Z</time>
      </trkpt>
      <trkpt lat="40.73555" lon="-8.48817">
        <ele>149.14</ele>
        <time>2019-05-24T13:17:29Z</time>
      </trkpt>
      <trkpt lat="40.73559" lon="-8.48804">
        <ele>149.14</ele>
        <time>2019-05-24T13:17:44Z</time>
      </trkpt>
      <trkpt lat="40.73556" lon="-8.48792">
        <ele>150.1</ele>
        <time>2019-05-24T13:18:03Z</time>
      </trkpt>
      <trkpt lat="40.73555" lon="-8.48792">
        <ele>149.62</ele>
        <time>2019-05-24T13:18:24Z</time>
      </trkpt>
      <trkpt lat="40.73555" lon="-8.48795">
        <ele>150.1</ele>
        <time>2019-05-24T13:18:46Z</time>
      </trkpt>
      <trkpt lat="40.73554" lon="-8.48794">
        <ele>150.1</ele>
        <time>2019-05-24T13:19:09Z</time>
      </trkpt>
      <trkpt lat="40.73557" lon="-8.48792">
        <ele>150.1</ele>
        <time>2019-05-24T13:19:29Z</time>
      </trkpt>
      <trkpt lat="40.73557" lon="-8.48791">
        <ele>150.58</ele>
        <time>2019-05-24T13:19:32Z</time>
      </trkpt>
    </trkseg>
  </trk>
</gpx>